     2              OBSERVATION DATA    GPS                 RINEX VERSION / TYPE
teqc 2000Jul20 Karen Wendt 20040122 20:55:08UTC             PGM / RUN BY / DATE
                                                            COMMENT
L2: 1 -> 1; 150 -> 5; 250 -> 9                              COMMENT
L2: 1 -> 1; 150 -> 5; 250 -> 9                              COMMENT
L2: 1 -> 1; 150 -> 5; 250 -> 9                              COMMENT
L2: 1 -> 1; 150 -> 5; 250 -> 9                              COMMENT
L2: 1 -> 1; 150 -> 5; 250 -> 9                              COMMENT
L2: 1 -> 1; 150 -> 5; 250 -> 9                              COMMENT
L2: 1 -> 1; 150 -> 5; 250 -> 9                              COMMENT
L2: 1 -> 1; 150 -> 5; 250 -> 9                              COMMENT
L2: 1 -> 1; 150 -> 5; 250 -> 9                              COMMENT
L2: 1 -> 1; 150 -> 5; 250 -> 9                              COMMENT
L2: 1 -> 1; 150 -> 5; 250 -> 9                              COMMENT
L2: 1 -> 1; 150 -> 5; 250 -> 9                              COMMENT
L2: 1 -> 1; 150 -> 5; 250 -> 9                              COMMENT
L2: 1 -> 1; 150 -> 5; 250 -> 9                              COMMENT
Original Marker Name: 2076 2076_stmpd_SLO-01_PM53.8_GPS-7_19COMMENT
Campaign Name: USGS San Simeon 2003-2004                    COMMENT
4-Character Station Name: 2076                              COMMENT
6-Character Antenna Code: DMRCHT                            COMMENT
Vertical Measurement Point: BCR                             COMMENT
Vertical Offset to Rinex Ref. Point: 0.0348                 COMMENT
Radial Measurement Point: ECF                               COMMENT
Radial Offset to Rinex Ref. Point: 0.1897                   COMMENT
Antenna Height from Field Measurement: 0.5850 m             COMMENT
Additional Antenna Identification Info.:                    COMMENT
Turborogue and Ashtech Choke Ring                           COMMENT
Original XYZ: -2684303.4901 -4443818.7330 3692664.0948      COMMENT
New XYZ position is based on association with SCEC monument COMMENT
E1F0L6J2+0011. Position of that monument is believed to be  COMMENT
valid to within 1 m horizontally; vertical accuracy         COMMENT
should be no worse than 3-times this value.                 COMMENT
                                                            COMMENT
Revised Rinex header created by UCSD GPS archive for        COMMENT
GSAC on 20-Apr-2005 (2005:110) 16:28:40 GMT                 COMMENT
For assistance contact dagnew@ucsd.edu                      COMMENT
or anderson@python.ucsd.edu                                 COMMENT
                                                            COMMENT
SLO 01 PM53.8 GPS7 1986                                     MARKER NAME
JLS US GEOLOGICAL SURVEY                                    OBSERVER / AGENCY
ZE120023202 ASHTECH UZ-12 ZE00                              REC # / TYPE / VERS
CR520031626 DORNE-MARGOL. TYPE T                            ANT # / TYPE
 -2684321.0000 -4443797.0000  3692656.0000                  APPROX POSITION XYZ
        0.5186        0.0000        0.0000                  ANTENNA: DELTA H/E/N
     1     1     0                                          WAVELENGTH FACT L1/2
     5    C1    L1    L2    P1    P2                        # / TYPES OF OBSERV
    30                                                      INTERVAL
  2004     1    21     0     0    0.000000                  TIME OF FIRST OBS
  2004     1    21    17    21    0.000000                  TIME OF LAST OBS
                                                            END OF HEADER
 04  1 21  0  0  0.0000000  0  8G30G29G21G24G10G 6G 5G17
  20679004.721   -24127355.66344 -18770515.89642  20679006.641    20679003.830
  24423842.476    -6080681.09843  -4710492.95142  24423844.381    24423845.243
  22420333.125   -17783934.45743 -13845121.34642  22420334.460    22420331.931
  24217199.080    -6926065.16043  -5392489.67742  24217199.385    24217199.522
  21401109.962   -17376585.58843 -13529101.18642  21401110.797    21401108.948
  20846735.845   -25351961.21044 -19751366.81542  20846737.382    20846734.824
  22917065.598   -13826329.68243 -10745492.62342  22917066.490    22917065.897
  21446142.338   -19244167.96743 -14988688.03042  21446142.856    21446141.038
 04  1 21  0  0 30.0000000  0  8G30G29G21G24G10G 6G 5G17
  20689155.286   -24074014.16944 -18728951.11342  20689157.221    20689154.384
  24410736.355    -6149554.09743  -4764160.12242  24410738.239    24410739.055
  22408055.749   -17848451.95743 -13895394.65742  22408057.090    22408054.672
  24233011.004    -6842973.30843  -5327742.81742  24233011.216    24233011.391
  21410568.629   -17326879.96143 -13490369.53242  21410569.459    21410567.610
  20838898.937   -25393144.42344 -19783457.61642  20838900.465    20838897.914
  22936568.206   -13723842.90243 -10665632.87142  22936569.080    22936568.621
  21455857.715   -19193113.38443 -14948905.26142  21455858.233    21455856.418
 04  1 21  0  1  0.0000000  0  9G30G29G21G24G10G 6G 5G18G17
  20699401.065   -24020172.33444 -18686996.45342  20699402.979    20699400.146
  24397653.211    -6218306.08543  -4817732.98642  24397655.142    24397655.905
  22395818.076   -17912761.33043 -13945505.80342  22395819.417    22395816.909
  24248814.137    -6759927.49443  -5263031.83542  24248814.413    24248814.504
  21420129.528   -17276637.15143 -13451219.29242  21420130.368    21420128.526
  20831104.242   -25434105.82444 -19815375.57642  20831105.743    20831103.224
  22956102.189   -13621191.46343 -10585644.78542  22956103.056    22956102.576
  24768574.772    -1372477.55253  -1056274.44652  24768577.017    24768579.189
  21465605.695   -19141887.61843 -14908989.10042  21465606.206    21465604.378
 04  1 21  0  1 30.0000000  0  9G30G29G21G24G10G 6G 5G18G17
  20709748.132   -23965798.06344 -18644626.90542  20709750.058    20709747.244
  24384600.127    -6286900.32343  -4871182.92442  24384602.065    24384602.628
  22383626.452   -17976828.41143 -13995428.15042  22383627.776    22383625.292
  24264614.823    -6676894.37343  -5198330.73042  24264615.149    24264615.234
  21429798.727   -17225825.20443 -13411625.56542  21429799.550    21429797.740
  20823358.444   -25474810.02544 -19847093.12042  20823359.967    20823357.459
  22975673.254   -13518344.88443 -10505504.67442  22975674.116    22975673.727
  24747438.408    -1483546.78843  -1142821.33242  24747440.935    24747443.405
  21475392.459   -19090457.91043 -14868914.02442  21475392.956    21475391.147
 04  1 21  0  2  0.0000000  0  9G30G29G21G24G10G 6G 5G18G17
  20720190.938   -23910920.68344 -18601865.32942  20720192.874    20720190.058
  24371572.445    -6355360.95143  -4924528.75642  24371574.492    24371574.936
  22371475.798   -18040680.40143 -14045182.89442  22371477.129    22371474.640
  24280407.700    -6593902.20543  -5133661.54342  24280408.033    24280408.223
  21439570.549   -17174473.83543 -13371611.51142  21439571.384    21439569.588
  20815656.670   -25515282.93544 -19878630.43442  20815658.193    20815655.699
  22995275.759   -13415333.03843 -10425235.76742  22995276.655    22995276.254
  24726305.511    -1594600.38543  -1229356.24642  24726307.864    24726309.701
  21485212.549   -19038853.01843 -14828702.44642  21485213.073    21485211.233
 04  1 21  0  2 30.0000000  0  9G30G29G21G24G10G 6G 5G18G17
  20730731.642   -23855528.98344 -18558702.98442  20730733.566    20730730.749
  24358573.260    -6423671.67743  -4977757.73042  24358575.396    24358575.797
  22359368.478   -18104304.27243 -14094759.87542  22359369.790    22359367.314
  24296195.079    -6510938.64843  -5069014.63742  24296195.391    24296195.675
  21449447.157   -17122571.95743 -13331168.49242  21449447.979    21449446.178
  20808001.727   -25555509.82144 -19909976.04642  20808003.264    20808000.783
  23014911.783   -13312145.32243 -10344829.82742  23014912.697    23014912.311
  24705178.464    -1705623.17943  -1315867.24942  24705180.717    24705182.424
  21495068.198   -18987061.22643 -14788345.22742  21495068.732    21495066.917
 04  1 21  0  3  0.0000000  0  9G30G29G21G24G10G 6G 5G18G17
  20741367.793   -23799635.62344 -18515149.73142  20741369.726    20741366.912
  24345601.056    -6491840.63943  -5030876.24342  24345603.146    24345603.741
  22347302.623   -18167710.71343 -14144167.42542  22347303.930    22347301.466
  24311974.902    -6428015.10143  -5004398.92242  24311975.231    24311975.560
  21459426.129   -17070132.33443 -13290306.45242  21459426.910    21459425.107
  20800391.845   -25595499.97844 -19941137.18742  20800393.389    20800390.892
  23034578.673   -13208795.11243 -10264297.26342  23034579.581    23034579.233
  24684055.194    -1816623.90043  -1402360.78942  24684057.436    24684059.706
  21504957.185   -18935094.27343 -14747851.52042  21504957.720    21504955.908
 04  1 21  0  3 30.0000000  0  9G30G29G21G24G10G 6G 5G18G17
  20752100.591   -23743234.48744 -18471200.81342  20752102.534    20752099.686
  24332657.916    -6559856.67943  -5083875.58442  24332659.985    24332660.568
  22335279.673   -18230891.41943 -14193399.08542  22335280.960    22335278.466
  24327748.499    -6345124.27543  -4939808.69142  24327748.779    24327749.235
  21469508.527   -17017148.93843 -13249020.69342  21469509.323    21469507.513
  20792828.823   -25635243.86844 -19972106.42742  20792830.366    20792827.868
  23054277.584   -13105277.08643 -10183633.94442  23054278.468    23054278.170
  24662938.753    -1927591.65843  -1488829.01542  24662940.795    24662942.574
  21514880.796   -18882945.46843 -14707216.11042  21514881.306    21514879.509
 04  1 21  0  4  0.0000000  0  9G30G29G21G24G10G 6G 5G18G17
  20762929.099   -23686330.30944 -18426859.91242  20762931.037    20762928.214
  24319743.949    -6627719.52343  -5136755.54542  24319745.912    24319746.578
  22323299.148   -18293849.27443 -14242457.08642  22323300.438    22323297.950
  24343515.215    -6262269.83143  -4875246.80442  24343515.478    24343515.871
  21479693.451   -16963626.73643 -13207315.09042  21479694.275    21479692.465
  20785312.430   -25674742.66544 -20002884.69142  20785313.983    20785311.484
  23074007.436   -13001596.25343 -10102843.75042  23074008.330    23074007.995
  24641828.041    -2038527.42443  -1575272.16442  24641830.178    24641832.065
  21524838.234   -18830618.85443 -14666442.14442  21524838.727    21524836.961
 04  1 21  0  4 30.0000000  0  9G30G29G21G24G10G 6G 5G18G17
  20773853.473   -23628922.38343 -18382126.47942  20773855.384    20773852.580
  24306860.228    -6695423.50243  -5189511.72142  24306862.061    24306862.723
  22311361.584   -18356581.41343 -14291339.20842  22311362.850    22311360.327
  24359275.165    -6179450.12543  -4810711.99042  24359275.606    24359275.943
  21489980.930   -16909565.56143 -13165189.50342  21489981.767    21489979.971
  20777843.459   -25713992.38644 -20033468.86242  20777844.982    20777842.487
  23093768.101   -12897753.19943 -10021927.16842  23093768.983    23093768.731
  24620724.647    -2149426.04943  -1661686.46442  24620726.730    24620728.373
  21534829.761   -18778113.06243 -14625528.55742  21534830.250    21534828.511
 04  1 21  0  5  0.0000000  0  9G30G29G21G24G10G 6G 5G18G17
  20784872.211   -23571018.41443 -18337006.52242  20784874.129    20784871.371
  24294006.123    -6762971.43143  -5242146.29242  24294008.006    24294008.637
  22299465.771   -18419093.95843 -14340050.21242  22299467.049    22299464.518
  24375027.334    -6096671.20743  -4746208.96642  24375027.945    24375028.368
  21500369.585   -16854972.93443 -13122649.80242  21500370.401    21500368.610
  20770421.114   -25752996.98844 -20063862.03142  20770422.647    20770420.139
  23113558.298   -12793755.92643  -9940890.38342  23113559.148    23113558.821
  24599627.521    -2260290.83843  -1748074.45442  24599629.588    24599631.041
  21544854.041   -18725435.22743 -14584480.91242  21544854.541    21544852.797
 04  1 21  0  5 30.0000000  0  9G30G29G21G24G10G 6G 5G18G17
  20795985.543   -23512617.47743 -18291499.31442  20795987.455    20795984.698
  24281182.822    -6830357.36043  -5294654.62042  24281184.730    24281185.420
  22287612.494   -18481383.39843 -14388587.37442  22287613.739    22287611.182
  24390772.177    -6013931.08843  -4681736.16642  24390772.880    24390773.299
  21510859.478   -16799848.18143 -13079695.45842  21510860.277    21510858.504
  20763046.258   -25791752.16144 -20094060.83942  20763047.779    20763045.276
  23133377.754   -12689604.05543  -9859733.17042  23133378.622    23133378.349
  24578538.164    -2371116.26943  -1834431.78542  24578540.209    24578541.620
  21554911.443   -18672583.36143 -14543297.65142  21554911.923    21554910.190
 04  1 21  0  6  0.0000000  0  9G30G29G21G24G10G 6G 5G18G17
  20807193.197   -23453720.97244 -18245605.94942  20807195.105    20807192.352
  24268391.022    -6897577.65543  -5347033.89142  24268393.052    24268393.667
  22275801.750   -18543448.80343 -14436949.95742  22275803.014    22275800.423
  24406509.779    -5931229.45043  -4617293.35942  24406510.581    24406510.851
  21521450.252   -16744193.18043 -13036327.93642  21521451.058    21521449.316
  20755719.230   -25830255.74644 -20124063.60242  20755720.769    20755718.253
  23153226.228   -12585299.99343  -9778457.34542  23153227.094    23153226.852
  24557456.436    -2481899.59143  -1920756.11742  24557458.616    24557460.071
  21565001.799   -18619558.28843 -14501979.42642  21565002.287    21565000.525
 04  1 21  0  6 30.0000000  0  9G30G29G21G24G10G 6G 5G18G17
  20818495.084   -23394329.34043 -18199326.77242  20818496.982    20818494.196
  24255631.694    -6964627.60043  -5399280.44842  24255633.870    24255634.279
  22264033.954   -18605289.07743 -14485137.12042  22264035.198    22264032.607
  24422240.148    -5848565.59343  -4552879.97842  24422241.079    24422241.285
  21532141.891   -16688008.21743 -12992547.45742  21532142.720    21532140.974
  20748440.638   -25868504.66844 -20153867.92742  20748442.227    20748439.693
  23173103.584   -12480844.40043  -9697063.43742  23173104.469    23173104.082
  24536383.757    -2592636.76643  -2007044.70942  24536385.795    24536386.874
  21575125.194   -18566359.48943 -14460525.82842  21575125.707    21575123.951
 04  1 21  0  7  0.0000000  0  9G30G29G21G24G10G 6G 5G18G17
  20829889.959   -23334449.04643 -18152666.81742  20829891.844    20829889.072
  24242904.570    -7031508.49443  -5451395.28942  24242906.777    24242907.101
  22252308.072   -18666908.48143 -14533152.17242  22252309.318    22252306.681
  24437962.310    -5765944.77743  -4488500.14342  24437963.382    24437963.518
  21542933.116   -16631300.04543 -12948359.28042  21542933.912    21542932.180
  20741210.031   -25906501.68344 -20183475.95942  20741211.592    20741209.078
  23193008.355   -12376244.01943  -9615556.73942  23193009.269    23193008.972
  24515319.270    -2703329.81843  -2093298.74342  24515321.306    24515322.839
  21585280.574   -18512992.77443 -14418941.38242  21585281.065    21585279.308
 04  1 21  0  7 30.0000000  0  9G30G29G21G24G10G 6G 5G18G17
  20841377.264   -23274082.90643 -18105628.28442  20841379.146    20841376.351
  24230210.001    -7098218.33443  -5503376.84342  24230212.151    24230212.372
  22240624.228   -18728307.31043 -14580995.34842  22240625.505    22240622.859
  24453676.028    -5683368.47643  -4424154.98842  24453677.040    24453677.227
  21553823.369   -16574071.55843 -12903765.66842  21553824.157    21553822.401
  20734027.484   -25944246.05844 -20212887.13442  20734029.049    20734026.540
  23212940.066   -12271502.90143  -9533940.33442  23212940.961    23212940.543
  24494263.874    -2813976.90343  -2179517.10142  24494265.814    24494267.142
  21595467.569   -18459459.77843 -14377227.37042  21595468.055    21595466.313
 04  1 21  0  8  0.0000000  0  9G30G29G21G24G10G 6G 5G18G17
  20852958.217   -23213224.65243 -18058206.28542  20852960.108    20852957.340
  24217550.193    -7164745.51343  -5555216.08742  24217552.450    24217552.398
  22228983.839   -18789477.59843 -14628660.44742  22228985.117    22228982.430
  24469382.753    -5600828.85343  -4359838.39742  24469383.879    24469384.061
  21564813.768   -16516316.69443 -12858761.88542  21564814.547    21564812.794
  20726894.923   -25981727.81544 -20242093.66842  20726896.488    20726893.954
  23232899.538   -12166615.05143  -9452209.64542  23232900.424    23232900.182
  24473219.115    -2924567.29243  -2265691.21642  24473220.981    24473222.411
  21605687.566   -18405753.30443 -14335378.18042  21605688.062    21605686.345
 04  1 21  0  8 30.0000000  0  9G30G29G21G24G10G 6G 5G18G17
  20864631.190   -23151882.88043 -18010407.51942  20864633.069    20864630.317
  24204924.444    -7231093.79243  -5606915.91442  24204926.576    24204926.604
  22217385.718   -18850425.81943 -14676152.50042  22217386.980    22217384.350
  24485081.137    -5518333.14443  -4295556.04942  24485082.264    24485082.453
  21575902.643   -16458044.22943 -12813354.78142  21575903.440    21575901.675
  20719811.402   -26018951.98144 -20271099.48442  20719812.954    20719810.402
  23252885.345   -12061589.54743  -9370371.65242  23252886.171    23252885.815
  24452184.162    -3035105.50443  -2351824.59042  24452186.061    24452187.626
  21615939.021   -18351881.49843 -14293400.15842  21615939.541    21615937.831
 04  1 21  0  9  0.0000000  0  9G30G29G21G24G10G 6G 5G18G17
  20876396.045   -23090058.24343 -17962232.49242  20876397.942    20876395.187
  24192333.586    -7297258.49943  -5658472.73342  24192335.712    24192335.642
  22205830.231   -18911150.27543 -14723470.19642  22205831.485    22205828.764
  24500771.376    -5435880.19043  -4231307.00342  24500772.664    24500772.706
  21587089.871   -16399254.91343 -12767544.93342  21587090.673    21587088.908
  20712777.458   -26055915.43244 -20299902.14342  20712779.025    20712776.456
  23272897.138   -11956427.29143  -9288427.13242  23272897.948    23272897.716
  24431159.788    -3145587.63943  -2437914.35742  24431161.637    24431163.117
  21626221.989   -18297844.07843 -14251293.08442  21626222.519    21626220.819
 04  1 21  0  9 30.0000000  0  9G30G29G21G24G10G 6G 5G18G17
  20888252.083   -23027754.43343 -17913684.08642  20888253.991    20888251.217
  24179777.974    -7363238.13343  -5709885.32842  24179780.072    24179780.094
  22194316.953   -18971652.50243 -14770614.72542  22194318.199    22194315.490
  24516453.062    -5353472.56343  -4167093.26942  24516454.244    24516454.380
  21598374.721   -16339952.59443 -12721335.34642  21598375.516    21598373.782
  20705793.134   -26092618.23544 -20328501.70742  20705794.690    20705792.109
  23292934.036   -11851132.58443  -9206379.37342  23292934.896    23292934.577
  24410146.473    -3256012.74343  -2523959.69442  24410148.385    24410149.700
  21636535.995   -18243643.63943 -14209058.98142  21636536.517    21636534.840
 04  1 21  0 10  0.0000000  0  9G30G29G21G24G10G 6G 5G18G17
  20900198.570   -22964975.31043 -17864765.30942  20900200.488    20900197.734
  24167257.938    -7429031.65243  -5761152.95542  24167259.785    24167259.964
  22182845.696   -19031934.22743 -14817587.43642  22182846.931    22182844.209
  24532125.615    -5271112.42543  -4102916.54342  24532126.765    24532126.939
  21609756.393   -16280141.40743 -12674729.23642  21609757.220    21609755.490
  20698858.387   -26129060.52844 -20356898.27442  20698859.922    20698857.344
  23312995.472   -11745709.78143  -9124231.82442  23312996.331    23312996.028
  24389144.078    -3366380.43043  -2609960.37642  24389145.993    24389147.159
  21646880.502   -18189282.90043 -14166699.97242  21646881.026    21646879.337
 04  1 21  0 10 30.0000000  0  9G30G29G21G24G10G 6G 5G18G17
  20912236.746   -22901714.40043 -17815471.11042  20912238.660    20912235.912
  24154775.372    -7494627.09643  -5812266.19242  24154777.228    24154777.487
  22171418.006   -19091986.65943 -14864381.47442  22171419.263    22171416.533
  24547790.725    -5188791.81743  -4038770.61042  24547791.821    24547792.075
  21621236.075   -16219815.33343 -12627721.91542  21621236.875    21621235.147
  20691975.121   -26165232.21144 -20385083.97842  20691976.663    20691974.062
  23333082.207   -11640152.84643  -9041979.74342  23333083.105    23333082.866
  24368154.701    -3476679.40543  -2695907.42442  24368156.609    24368157.846
  21657256.906   -18134754.52043 -14124210.33442  21657257.433    21657255.762
 04  1 21  0 11  0.0000000  0  9G30G29G21G24G10G 6G 5G18G17
  20924364.295   -22837983.80243 -17765810.92242  20924366.189    20924363.438
  24142329.302    -7560031.63643  -5863230.70742  24142331.080    24142331.284
  22160032.090   -19151819.85843 -14911004.67742  22160033.347    22160030.634
  24563446.413    -5106521.11643  -3974663.57242  24563447.448    24563447.777
  21632811.464   -16158986.30543 -12580322.68142  21632812.260    21632810.550
  20685141.759   -26201141.62644 -20413065.31742  20685143.300    20685140.704
  23353192.324   -11534474.39243  -8959632.95842  23353193.182    23353192.871
  24347176.851    -3586917.33443  -2781806.86342  24347178.708    24347180.042
  21667663.079   -18080069.81643 -14081598.88242  21667663.602    21667661.928
 04  1 21  0 11 30.0000000  0  9G30G29G21G24G10G 6G 5G18G17
  20936581.540   -22773781.76243 -17715783.37942  20936583.452    20936580.715
  24129920.967    -7625238.24143  -5914041.00442  24129922.725    24129922.743
  22148688.660   -19211429.76443 -14957453.89842  22148689.914    22148687.129
  24579093.089    -5024296.97243  -3910592.80742  24579094.229    24579094.490
  21644482.875   -16097652.58743 -12532530.18642  21644483.693    21644481.979
  20678359.362   -26236783.26744 -20440838.00242  20678360.896    20678358.293
  23373325.658   -11428672.86243  -8877190.31542  23373326.537    23373326.321
  24326212.236    -3697087.32343  -2867653.49642  24326213.973    24326215.125
  21678099.548   -18025225.64643 -14038863.17342  21678100.092    21678098.427
 04  1 21  0 12  0.0000000  0  9G30G29G21G24G10G 6G 5G18G17
  20948888.360   -22709109.10843 -17665389.12442  20948890.261    20948887.529
  24117551.068    -7690242.50143  -5964693.62842  24117552.729    24117552.852
  22137387.948   -19270814.99943 -15003728.03342  22137389.213    22137386.470
  24594731.023    -4942118.88943  -3846557.93342  24594732.219    24594732.417
  21656250.106   -16035815.33143 -12484345.31642  21656250.923    21656249.215
  20671628.478   -26272154.22344 -20468399.76142  20671630.025    20671627.409
  23393482.241   -11322749.83143  -8794652.93142  23393483.091    23393482.857
  24305260.789    -3807186.38643  -2953444.71742  24305262.469    24305263.977
  21688566.418   -17970221.97343 -13996003.17242  21688566.951    21688565.283
 04  1 21  0 12 30.0000000  0  9G30G29G21G24G10G 6G 5G18G17
  20961283.868   -22643970.35043 -17614631.67042  20961285.771    20961283.051
  24105219.804    -7755043.61943  -6015187.95542  24105221.447    24105221.650
  22126129.645   -19329977.86843 -15049828.92142  22126130.890    22126128.050
  24610359.736    -4859989.56543  -3782561.05242  24610360.865    24610361.164
  21668112.296   -15973479.21343 -12435771.72242  21668113.102    21668111.392
  20664948.992   -26307255.03644 -20495751.02142  20664950.537    20664947.915
  23413661.059   -11216709.71343  -8712024.37842  23413661.910    23413661.801
  24284323.147    -3917213.51143  -3039179.85942  24284324.939    24284326.088
  21699063.019   -17915062.04343 -13953021.41542  21699063.562    21699061.876
 04  1 21  0 13  0.0000000  0 10G30G29G26G21G24G10G 6G 5G18G17
  20973767.416   -22578368.86543 -17563513.64442  20973769.331    20973766.609
  24092927.567    -7819639.86443  -6065522.63442  24092929.157    24092929.296
  24289496.043    -7180365.17353  -5473988.13452  24289497.972    24289498.949
  22114913.410   -19388919.04843 -15095757.04342  22114914.665    22114911.883
  24625978.906    -4777910.53143  -3718603.35142  24625980.090    24625980.318
  21680068.707   -15910647.91743 -12386812.27142  21680069.516    21680067.800
  20658320.980   -26342085.46744 -20522891.59342  20658322.515    20658319.878
  23433861.287   -11110556.80843  -8629307.89242  23433862.143    23433862.001
  24263399.264    -4027168.44843  -3124858.79242  24263401.079    24263402.075
  21709588.888   -17859748.21243 -13909919.72942  21709589.437    21709587.748
 04  1 21  0 13 30.0000000  0 10G30G29G26G21G24G10G 6G 5G18G17
  20986339.231   -22512303.64643 -17512034.27042  20986341.132    20986338.437
  24080675.467    -7884024.99043  -6115692.81742  24080677.076    24080677.153
  24272548.844    -7269422.79643  -5543383.53942  24272550.876    24272551.880
  22103739.918   -19447635.81943 -15141510.31342  22103741.169    22103738.328
  24641588.882    -4695879.31943  -3654682.92242  24641590.108    24641590.342
  21692119.502   -15847320.52243 -12337466.24842  21692120.317    21692118.606
  20651745.315   -26376640.64044 -20549817.67642  20651746.865    20651744.219
  23454083.363   -11004290.16343  -8546502.79742  23454084.222    23454084.045
  24242490.283    -4137045.07143  -3210476.77242  24242492.050    24242492.939
  21720144.341   -17804278.80943 -13866696.82242  21720144.917    21720143.234
 04  1 21  0 14  0.0000000  0 10G30G29G26G21G24G10G 6G 5G18G17
  20998999.209   -22445774.93643 -17460193.73542  20999001.123    20998998.446
  24068464.398    -7948193.80243  -6165694.41642  24068466.163    24068466.201
  24255611.590    -7358428.64143  -5612738.64142  24255613.601    24255614.405
  22092609.579   -19506125.98843 -15187087.00742  22092610.796    22092607.965
  24657190.160    -4613894.39643  -3590798.55942  24657191.337    24657191.551
  21704264.638   -15783497.41243 -12287733.95442  21704265.453    21704263.726
  20645222.720   -26410917.07244 -20576526.56142  20645224.260    20645221.598
  23474326.733   -10897910.38643  -8463609.54542  23474327.604    23474327.474
  24221597.026    -4246838.75143  -3296030.05842  24221598.848    24221599.704
  21730729.718   -17748652.38343 -13823351.55442  21730730.280    21730728.570
 04  1 21  0 14 30.0000000  0 10G30G29G26G21G24G10G 6G 5G18G17
  21011745.634   -22378792.10643 -17407999.33742  21011747.550    21011744.884
  24056293.681    -8012150.73643  -6215530.92242  24056295.429    24056295.534
  24238683.427    -7447386.35343  -5682056.22042  24238685.329    24238686.205
  22081520.965   -19564396.81343 -15232492.78642  22081522.151    22081519.289
  24672781.132    -4531963.61543  -3526956.39142  24672782.236    24672782.504
  21716502.282   -15719188.16943 -12237622.84942  21716503.105    21716501.367
  20638752.116   -26444920.22344 -20603022.49742  20638753.668    20638751.000
  23494589.990   -10791427.14143  -8380635.66242  23494590.888    23494590.683
  24200718.523    -4356554.69443  -3381522.72542  24200720.285    24200721.341
  21741343.350   -17692877.17343 -13779890.34842  21741343.943    21741342.259
 04  1 21  0 15  0.0000000  0 10G30G29G26G21G24G10G 6G 5G18G17
  21024579.054   -22311352.06543 -17355448.67342  21024580.983    21024578.302
  24044165.022    -8075887.20543  -6265195.64742  24044166.637    24044166.705
  24221766.086    -7536287.07943  -5751329.39842  24221768.057    24221768.879
  22070475.185   -19622442.65743 -15277723.25742  22070476.365    22070473.480
  24688362.789    -4450081.82643  -3463152.36542  24688363.761    24688364.082
  21728833.056   -15654389.58743 -12187130.44142  21728833.879    21728832.131
  20632334.875   -26478642.94944 -20629299.92442  20632336.438    20632333.753
  23514873.229   -10684837.74043  -8297579.08042  23514874.108    23514874.070
  24179856.464    -4466184.83343  -3466948.58142  24179858.191    24179859.261
  21751986.104   -17636949.15743 -13736310.08242  21751986.687    21751985.019
 04  1 21  0 15 30.0000000  0 10G30G29G26G21G24G10G 6G 5G18G17
  21037499.177   -22243456.36343 -17302542.94742  21037501.106    21037498.440
  24032078.963    -8139399.43243  -6314685.61942  24032080.625    24032080.722
  24204860.318    -7625126.77643  -5820555.03342  24204862.343    24204863.118
  22059472.288   -19680262.97343 -15322777.98742  22059473.470    22059470.528
  24703935.015    -4368249.07543  -3399386.56942  24703936.055    24703936.403
  21741256.596   -15589103.43043 -12136258.10242  21741257.432    21741255.657
  20625971.451   -26512083.00444 -20655357.08942  20625973.000    20625970.297
  23535176.568   -10578143.83143  -8214441.02642  23535177.419    23535177.303
  24159011.201    -4575726.61343  -3552305.54642  24159013.003    24159013.909
  21762657.885   -17580868.58443 -13692610.93642  21762658.454    21762656.775
 04  1 21  0 16  0.0000000  0 10G30G29G26G21G24G10G 6G 5G18G17
  21050504.875   -22175111.07843 -17249286.89642  21050506.792    21050504.105
  24020035.360    -8202688.24953  -6364001.52552  24020037.151    24020037.152
  24187966.083    -7713905.75443  -5889733.33842  24187968.222    24187968.969
  22048511.617   -19737861.56043 -15367659.94542  22048512.798    22048509.838
  24719497.186    -4286469.64443  -3335662.31742  24719498.235    24719498.512
  21753771.690   -15523336.22143 -12085010.91442  21753772.522    21753770.741
  20619661.379   -26545242.52844 -20681195.65642  20619662.932    20619660.223
  23555498.353   -10471352.00143  -8131226.72742  23555499.225    23555499.240
  24138182.582    -4685180.82743  -3637594.28842  24138184.441    24138185.305
  21773357.749   -17524640.47643 -13648796.82542  21773358.310    21773356.624
 04  1 21  0 16 30.0000000  0 10G30G29G26G21G24G10G 6G 5G18G17
  21063595.797   -22106317.82143 -17195681.78142  21063597.718    21063595.061
  24008035.077    -8265750.03443  -6413140.53942  24008036.706    24008036.799
  24171084.288    -7802619.80043  -5958861.03642  24171086.316    24171087.112
  22037593.326   -19795237.47043 -15412368.40042  22037594.517    22037591.475
  24735049.206    -4204743.11443  -3271979.25542  24735050.331    24735050.460
  21766377.981   -15457089.61843 -12033390.17342  21766378.823    21766377.056
  20613405.134   -26578119.19944 -20706813.82242  20613406.690    20613403.974
  23575838.593   -10364464.18643  -8047937.55742  23575839.455    23575839.346
  24117371.149    -4794544.40943  -3722812.42042  24117373.080    24117373.838
  21784085.653   -17468265.01243 -13604867.89442  21784086.193    21784084.519
 04  1 21  0 17  0.0000000  0 10G30G29G26G21G24G10G 6G 5G18G17
  21076771.603   -22037078.46943 -17141729.05342  21076773.524    21076770.851
  23996078.706    -8328581.11543  -6462099.77742  23996080.298    23996080.317
  24154215.554    -7891265.01343  -6027935.08442  24154217.713    24154218.414
  22026717.441   -19852390.15243 -15456902.89542  22026718.660    22026715.656
  24750591.211    -4123069.61643  -3208337.54942  24750592.177    24750592.308
  21779075.133   -15390365.60543 -11981397.42642  21779075.984    21779074.200
  20607203.100   -26610711.07344 -20732210.06742  20607204.643    20607201.902
  23596196.576   -10257482.29043  -7964575.13442  23596197.452    23596197.444
  24096577.573    -4903814.23343  -3807957.50442  24096579.493    24096580.220
  21794841.485   -17411742.86943 -13560824.67042  21794841.991    21794840.315
 04  1 21  0 17 30.0000000  0 10G30G29G26G21G24G10G 6G 5G18G17
  21090032.007   -21967394.62443 -17087429.96742  21090033.942    21090031.286
  23984166.818    -8391178.02443  -6510876.55642  23984168.465    23984168.507
  24137360.719    -7979837.33743  -6096952.34442  24137362.916    24137363.525
  22015884.160   -19909319.18643 -15501263.12742  22015885.380    22015882.350
  24766123.162    -4041448.81143  -3144736.89342  24766124.166    24766124.257
  21791862.837   -15323165.76243 -11929033.90742  21791863.668    21791861.886
  20601055.708   -26643015.77444 -20757382.54242  20601057.243    20601054.500
  23616572.259   -10150408.00643  -7881140.70342  23616573.081    23616573.076
  24075802.281    -5012987.53443  -3893027.32242  24075804.335    24075804.936
  21805625.142   -17355074.40643 -13516667.42542  21805625.648    21805623.960
 04  1 21  0 18  0.0000000  0 10G30G29G26G21G24G10G 6G 5G18G17
  21103376.391   -21897269.32643 -17032786.89142  21103378.336    21103375.652
  23972300.116    -8453538.48243  -6559469.08942  23972301.511    23972301.611
  24120520.308    -8068333.82843  -6165910.53442  24120522.469    24120522.997
  22005093.431   -19966024.82943 -15545449.28842  22005094.638    22005091.593
  24781644.884    -3959881.72243  -3081178.07542  24781645.711    24781645.741
  21804740.482   -15255493.36643 -11876302.16242  21804741.311    21804739.522
  20594963.150   -26675032.33044 -20782330.49142  20594964.688    20594961.919
  23636964.775   -10043244.55743  -7797636.78542  23636965.606    23636965.674
  24055045.793    -5122062.59943  -3978020.63742  24055047.796    24055048.409
  21816436.324   -17298261.22643 -13472397.41742  21816436.831    21816435.149
 04  1 21  0 18 30.0000000  0 10G30G29G26G21G24G10G 6G 5G18G17
  21116803.976   -21826706.86743 -16977803.17542  21116805.920    21116803.261
  23960478.569    -8515661.08243  -6607876.27542  23960480.045    23960479.955
  24103694.612    -8156753.02243  -6234808.47142  24103696.720    24103697.293
  21994344.701   -20022509.48843 -15589463.25942  21994345.950    21994342.876
  24797155.909    -3878370.83243  -3017663.07242  24797156.679    24797156.812
  21817707.222   -15187352.76043 -11823205.58642  21817708.060    21817706.224
  20588925.351   -26706761.14644 -20807054.22542  20588926.886    20588924.092
  23657373.491    -9935996.74743  -7714067.14142  23657374.269    23657374.421
  24034308.223    -5231038.99543  -4062937.12042  24034310.166    24034310.566
  21827274.459   -17241306.51443 -13428017.12942  21827274.944    21827273.261
 04  1 21  0 19  0.0000000  0 10G30G29G26G21G24G10G 6G 5G18G17
  21130315.080   -21755705.64443 -16922477.56242  21130317.007    21130314.351
  23948703.588    -8577538.97943  -6656092.76842  23948705.127    23948704.872
  24086884.966    -8245087.36843  -6303640.27742  24086887.060    24086887.713
  21983638.855   -20078768.87843 -15633301.69342  21983640.092    21983637.045
  24812656.956    -3796912.44243  -2954188.94042  24812657.768    24812657.709
  21830763.346   -15118742.48343 -11769743.03242  21830764.177    21830762.341
  20582943.402   -26738196.47744 -20831549.26742  20582944.939    20582942.137
  23677798.471    -9828662.81043  -7630430.37842  23677799.282    23677799.390
  24013590.442    -5339910.20743  -4147771.57242  24013592.473    24013592.828
  21838140.127   -17184207.05043 -13383524.04742  21838140.623    21838138.915
 04  1 21  0 19 30.0000000  0 10G30G29G26G21G24G10G 6G 5G18G17
  21143908.601   -21684271.34143 -16866814.48342  21143910.508    21143907.869
  23936975.060    -8639172.69243  -6704119.00842  23936976.691    23936976.335
  24070091.507    -8333336.68843  -6372405.79942  24070093.647    24070094.303
  21972975.229   -20134806.39043 -15676967.23742  21972976.475    21972973.398
  24828147.191    -3715510.85543  -2890759.09742  24828147.999    24828147.878
  21843907.703   -15049668.44343 -11715919.10842  21843908.538    21843906.696
  20577016.959   -26769340.16644 -20855817.05542  20577018.494    20577015.663
  23698238.810    -9721248.78943  -7546731.22342  23698239.606    23698239.716
  23992892.637    -5448677.19243  -4232524.88942  23992894.634    23992894.989
  21849032.513   -17126967.11643 -13338921.50442  21849033.009    21849031.292
 04  1 21  0 20  0.0000000  0 10G30G29G26G21G24G10G 6G 5G18G17
  21157584.584   -21612403.70443 -16810813.74542  21157586.500    21157583.834
  23925293.954    -8700556.45143  -6751950.44142  23925295.643    23925295.390
  24053315.399    -8421494.91843  -6441100.35842  24053317.641    24053318.252
  21962354.280   -20190619.70743 -15720458.09142  21962355.519    21962352.451
  24843626.997    -3634163.54943  -2827371.52042  24843627.823    24843627.883
  21857140.336   -14980130.48743 -11661733.69242  21857141.171    21857139.326
  20571146.768   -26800188.03344 -20879854.33342  20571148.309    20571145.481
  23718694.346    -9613754.44843  -7462969.48142  23718695.132    23718695.278
  23972215.567    -5557335.07443  -4317193.19642  23972217.522    23972217.771
  21859951.861   -17069585.51743 -13294208.58142  21859952.363    21859950.654
 04  1 21  0 20 30.0000000  0 10G30G29G26G21G24G10G 6G 5G18G17
  21171341.830   -21540108.98143 -16754480.21142  21171343.751    21171341.084
  23913660.378    -8761691.17243  -6799587.81942  23913662.040    23913661.869
  24036556.631    -8509562.40143  -6509724.21642  24036558.845    24036559.327
  21951775.331   -20246212.29243 -15763776.94442  21951776.565    21951773.495
  24859095.842    -3552874.50743  -2764029.40742  24859096.482    24859096.564
  21870460.022   -14910135.25443 -11607191.95742  21870460.817    21870458.987
  20565332.480   -26830742.20944 -20903662.75942  20565334.021    20565331.186
  23739163.937    -9506186.22143  -7379150.13242  23739164.779    23739164.907
  23951559.187    -5665884.79843  -4401777.24242  23951561.077    23951561.264
  21870897.249   -17012066.86643 -13249388.86142  21870897.799    21870896.084
 04  1 21  0 21  0.0000000  0 10G30G29G26G21G24G10G 6G 5G18G17
  21185180.046   -21467388.81043 -16697815.15742  21185181.957    21185179.284
  23902074.911    -8822572.98343  -6847028.12242  23902076.659    23902076.405
  24019815.974    -8597534.83843  -6578274.00042  24019818.094    24019818.581
  21941238.529   -20301583.41843 -15806923.23442  21941239.742    21941236.688
  24874553.741    -3471643.51143  -2700732.45642  24874554.060    24874554.344
  21883866.413   -14839684.21743 -11552295.05442  21883867.218    21883865.386
  20559574.521   -26861000.35444 -20927240.50842  20559576.077    20559573.231
  23759647.249    -9398545.78743  -7295274.58242  23759648.111    23759648.311
  23930924.098    -5774323.33543  -4486274.68042  23930925.891    23930925.847
  21881868.744   -16954411.27543 -13204462.43142  21881869.303    21881867.597
 04  1 21  0 21 30.0000000  0  9G30G29G26G21G10G 6G 5G18G17
  21199099.508   -21394241.75443 -16640817.46342  21199101.411    21199098.737
  23890538.850    -8883195.05543  -6894266.02242  23890540.591    23890540.385
  24003094.790    -8685404.85243  -6646744.02242  24003096.874    24003097.327
  21930744.600   -20356729.08843 -15849893.84142  21930745.811    21930742.766
  21897359.769   -14768776.15443 -11497042.02242  21897360.590    21897358.744
  20553873.986   -26890956.78644 -20950583.15842  20553875.534    20553872.687
  23780144.571    -9290832.02643  -7211341.83142  23780145.484    23780145.584
  23910311.296    -5882644.21243  -4570680.44742  23910312.957    23910312.928
  21892866.887   -16896615.67443 -13159426.90842  21892867.448    21892865.741
 04  1 21  0 22  0.0000000  0  9G30G29G26G21G10G 6G 5G18G17
  21213098.990   -21320674.20743 -16583492.11542  21213100.887    21213098.184
  23879051.973    -8943558.54843  -6941302.41642  23879053.799    23879053.551
  23986393.028    -8773172.67643  -6715134.38442  23986395.167    23986395.478
  21920292.795   -20411653.50343 -15892692.04042  21920294.005    21920290.966
  21910938.873   -14697417.38743 -11441437.79242  21910939.685    21910937.879
  20548230.403   -26920613.88644 -20973692.56342  20548231.960    20548229.113
  23800654.577    -9183051.20643  -7127356.86342  23800655.525    23800655.651
  23889720.489    -5990849.08843  -4654995.82342  23889722.153    23889722.069
  21903890.642   -16838685.43343 -13114286.46942  21903891.215    21903889.519
 04  1 21  0 22 30.0000000  0  9G30G29G26G21G10G 6G 5G18G17
  21227178.543   -21246685.60443 -16525838.68042  21227180.459    21227177.764
  23867615.453    -9003657.21943  -6988132.43742  23867617.343    23867617.125
  23969711.965    -8860831.94143  -6783440.18242  23969714.039    23969714.278
  21909883.716   -20466353.48843 -15935315.36042  21909884.901    21909881.875
  21924603.854   -14625607.46143 -11385482.01242  21924604.650    21924602.842
  20542644.662   -26949967.05744 -20996565.13642  20542646.212    20542643.369
  23821177.589    -9075202.83143  -7043319.24142  23821178.482    23821178.683
  23869152.870    -6098932.39743  -4739216.49242  23869154.556    23869154.298
  21914940.496   -16780618.21743 -13069039.29342  21914941.047    21914939.343
 04  1 21  0 23  0.0000000  0  9G30G29G26G21G10G 6G 5G18G17
  21241336.933   -21172282.85743 -16467862.53842  21241338.869    21241336.131
  23856229.131    -9063492.89443  -7034757.52242  23856230.886    23856230.695
  23953051.415    -8948383.51043  -6851662.11542  23953053.441    23953053.643
  21899516.506   -20520833.42543 -15977767.21542  21899517.688    21899514.665
  21938353.300   -14553353.66443 -11329180.35942  21938354.103    21938352.293
  20537116.190   -26979019.22344 -21019203.16442  20537117.738    20537114.894
  23841711.938    -8967293.96343  -6959234.47542  23841712.892    23841713.085
  23848607.945    -6206896.31643  -4823344.12342  23848609.495    23848609.260
  21926015.350   -16722419.58543 -13023689.71342  21926015.907    21926014.161
 04  1 21  0 23 30.0000000  0  9G30G29G26G21G10G 6G 5G18G17
  21255574.737   -21097462.72743 -16409561.15342  21255576.684    21255573.955
  23844894.389    -9123056.68243  -7081170.75242  23844896.231    23844896.048
  23936413.097    -9035818.28343  -6919793.04642  23936415.052    23936415.233
  21889192.132   -20575088.06243 -16020043.50642  21889193.332    21889190.321
  21952187.786   -14480652.87243 -11272530.39842  21952188.598    21952186.804
  20531646.426   -27007763.03544 -21041600.91342  20531647.962    20531645.105
  23862258.574    -8859321.24643  -6875099.94942  23862259.556    23862259.695
  23828087.245    -6314732.74143  -4907372.39242  23828088.847    23828088.639
  21937116.123   -16664084.72543 -12978233.97842  21937116.691    21937114.938
 04  1 21  0 24  0.0000000  0  9G30G29G26G21G10G 6G 5G18G17
  21269890.229   -21022234.36443 -16350941.66542  21269892.171    21269889.477
  23833610.640    -9182352.42543  -7127375.09542  23833612.545    23833612.399
  23919796.461    -9123139.08043  -6987835.14942  23919798.416    23919798.572
  21878909.462   -20629123.73943 -16062149.17942  21878910.666    21878907.641
  21966105.651   -14407513.92643 -11215539.01842  21966106.457    21966104.686
  20526234.367   -27036203.42244 -21063762.23042  20526235.923    20526233.043
  23882815.491    -8751294.10243  -6790923.06142  23882816.401    23882816.653
  23807590.038    -6422445.94043  -4991304.65442  23807591.537    23807591.336
  21948241.355   -16605621.38843 -12932678.13442  21948241.913    21948240.138
 04  1 21  0 24 30.0000000  0  9G30G29G26G21G10G 6G 5G18G17
  21284283.478   -20946597.40243 -16292003.79642  21284285.413    21284282.739
  23822379.077    -9241374.20443  -7173365.97542  23822381.023    23822380.736
  23903202.667    -9210339.85643  -7055783.77142  23903204.614    23903204.780
  21868668.928   -20682937.82243 -16104082.18142  21868670.150    21868667.120
  21980106.880   -14333936.83843 -11158206.22442  21980107.704    21980105.936
  20520880.872   -27064336.16344 -21085683.81942  20520882.425    20520879.550
  23903382.893    -8643212.38343  -6706703.58642  23903383.795    23903383.916
  23787117.183    -6530031.03143  -5075137.08342  23787118.634    23787118.422
  21959391.375   -16547027.54743 -12887020.59642  21959391.973    21959390.193
 04  1 21  0 25  0.0000000  0  9G30G29G26G21G10G 6G 5G18G17
  21298754.437   -20870552.11243 -16232747.74842  21298756.356    21298753.680
  23811200.652    -9300116.91743  -7219139.39842  23811202.593    23811202.341
  23886632.887    -9297414.44343  -7123634.08742  23886634.841    23886634.900
  21858471.058   -20736527.81543 -16145840.57342  21858472.282    21858469.237
  21994191.447   -14259921.91743 -11100532.27042  21994192.259    21994190.518
  20515586.702   -27092157.17944 -21107362.51342  20515588.238    20515585.355
  23923960.669    -8535075.71643  -6622441.36342  23923961.560    23923961.755
  23766669.728    -6637482.83243  -5158865.66342  23766671.160    23766670.863
  21970566.489   -16488302.06643 -12841260.48442  21970567.052    21970565.312
 04  1 21  0 25 30.0000000  0  9G30G29G26G21G10G 6G 5G18G17
  21313301.495   -20794106.84643 -16173180.03042  21313303.405    21313300.778
  23800074.731    -9358583.56443  -7264697.69742  23800076.692    23800076.478
  23870086.637    -9384365.45643  -7191388.10742  23870088.545    23870088.614
  21848314.673   -20789899.80643 -16187429.09342  21848315.904    21848312.840
  22008357.661   -14185477.89343 -11042523.94142  22008358.465    22008356.741
  20510350.993   -27119670.83144 -21128801.69642  20510352.557    20510349.658
  23944547.317    -8426892.71243  -6538142.97942  23944548.202    23944548.385
  23746247.004    -6744804.62243  -5242492.89642  23746248.481    23746248.165
  21981765.364   -16429451.59243 -12795402.97242  21981765.946    21981764.194
 04  1 21  0 26  0.0000000  0  9G30G29G26G21G10G 6G 5G18G17
  21327925.662   -20717256.44643 -16113296.62642  21327927.578    21327924.936
  23789003.377    -9416763.49243  -7310032.58142  23789005.354    23789005.041
  23853566.138    -9471181.31643  -7259036.83642  23853567.986    23853568.076
  21838201.229   -20843046.01643 -16228841.67642  21838202.489    21838199.391
  22022606.505   -14110599.58643 -10984177.21542  22022607.304    22022605.634
  20505175.590   -27146867.57544 -21149993.94342  20505177.166    20505174.265
  23965143.697    -8318658.07643  -6453804.39242  23965144.637    23965144.745
  23725850.839    -6851986.44843  -5326011.06142  23725852.366    23725851.997
  21992989.310   -16370469.39543 -12749442.81642  21992989.887    21992988.145
 04  1 21  0 26 30.0000000  0  9G30G29G26G21G10G 6G 5G18G17
  21342625.545   -20640007.99743 -16053103.05242  21342627.467    21342624.876
  23777986.251    -9474658.25943  -7355145.25242  23777988.233    23777987.847
  23837071.134    -9557863.10643  -7326581.09542  23837072.954    23837073.077
  21828129.943   -20895970.80843 -16270081.72542  21828131.227    21828128.091
  22036936.717   -14035293.84043 -10925497.41342  22036937.498    22036935.829
  20500059.932   -27173750.59244 -21170941.72742  20500061.484    20500058.578
  23985748.579    -8210378.92543  -6369431.11342  23985749.502    23985749.742
  23705481.159    -6959030.01843  -5409421.52342  23705482.627    23705482.115
  22004237.311   -16311360.80143 -12703384.17542  22004237.881    22004236.149
 04  1 21  0 27  0.0000000  0  9G30G29G26G21G10G 6G 5G18G17
  21357400.105   -20562367.08643 -15992603.66342  21357402.038    21357399.461
  23767023.369    -9532267.99743  -7400035.81442  23767025.410    23767024.959
  23820601.813    -9644410.20043  -7394020.40342  23820603.520    23820603.670
  21818100.169   -20948677.53243 -16311151.85642  21818101.410    21818098.274
  22051347.099   -13959566.66043 -10866489.22442  22051347.893    22051346.238
  20495003.710   -27200321.16744 -21191646.04942  20495005.253    20495002.355
  24006360.870    -8102061.05043  -6285027.63942  24006361.786    24006362.017
  23685137.410    -7065936.60143  -5492725.21442  23685138.916    23685138.348
  22015508.575   -16252129.90643 -12657230.22142  22015509.159    22015507.433
 04  1 21  0 27 30.0000000  0  9G30G29G26G21G10G 6G 5G18G17
  21372249.964   -20484330.65643 -15931796.07742  21372251.881    21372249.334
  23756116.350    -9589584.28443  -7444697.72542  23756118.408    23756117.851
  23804159.844    -9730813.48343  -7461347.63442  23804161.561    23804161.664
  21808112.925   -21001160.68143 -16352047.76942  21808114.169    21808111.014
  22065838.300   -13883414.93443 -10807150.21642  22065839.082    22065837.447
  20490008.328   -27226572.00344 -21212101.22542  20490009.864    20490006.979
  24026981.089    -7993701.06143  -6200591.36742  24026981.994    24026982.299
  23664821.249    -7172698.11043  -5575915.85342  23664822.775    23664822.147
  22026804.041   -16192771.78943 -12610977.13642  22026804.623    22026802.909
 04  1 21  0 28  0.0000000  0  9G30G29G26G21G10G 6G 5G18G17
  21387174.296   -20405902.88343 -15870683.54342  21387176.211    21387173.664
  23745265.410    -9646605.75843  -7489129.89142  23745267.479    23745266.931
  23787745.556    -9817071.07843  -7528561.32942  23787747.308    23787747.353
  21798167.887   -21053421.96443 -16392770.80142  21798169.142    21798165.988
  22080409.398   -13806843.15443 -10747483.89342  22080410.205    22080408.571
  20485073.779   -27252503.14744 -21232307.29342  20485075.325    20485072.415
  24047608.671    -7885303.22743  -6116125.61142  24047609.560    24047609.900
  23644532.906    -7279313.56243  -5658992.67142  23644534.375    23644533.760
  22038123.157   -16133289.39343 -12564627.21042  22038123.738    22038122.040
 04  1 21  0 28 30.0000000  0  9G30G29G26G21G10G 6G 5G18G17
  21402173.116   -20327083.46143 -15809265.83942  21402175.051    21402172.523
  23734471.741    -9703326.67943  -7533327.86642  23734473.759    23734473.104
  23771360.245    -9903176.40243  -7595656.36442  23771362.012    23771362.031
  21788265.668   -21105458.43143 -16433318.65542  21788266.915    21788263.712
  22095060.549   -13729850.72143 -10687489.78742  22095061.371    22095059.751
  20480200.899   -27278110.22744 -21252260.84542  20480202.433    20480199.536
  24068243.432    -7776866.78743  -6031629.76842  24068244.329    24068244.672
  23624273.148    -7385778.19343  -5741951.95142  23624274.700    23624274.029
  22049466.407   -16073680.23043 -12518178.50942  22049466.974    22049465.274
 04  1 21  0 29  0.0000000  0  9G30G29G26G21G10G 6G 5G18G17
  21417243.639   -20247887.39343 -15747554.63242  21417245.569    21417243.038
  23723733.280    -9759756.59443  -7577299.07242  23723735.318    23723734.753
  23755002.230    -9989138.06543  -7662639.45442  23755004.080    23755004.113
  21778403.819   -21157282.64643 -16473701.10842  21778405.045    21778401.823
  22109788.898   -13652452.74743 -10627179.67342  22109789.709    22109788.119
  20475387.649   -27303403.90344 -21271970.17642  20475389.187    20475386.295
  24088882.764    -7668406.74543  -5947115.52042  24088883.706    24088883.940
  23604040.525    -7492101.35143  -5824801.01142  23604042.036    23604041.257
  22060831.232   -16013957.73143 -12471641.48542  22060831.765    22060830.096
 04  1 21  0 29 30.0000000  0  9G30G29G26G21G10G 6G 5G18G17
  21432387.953   -20168303.58543 -15685541.30142  21432389.876    21432387.340
  23713053.526    -9815879.04643  -7621030.70942  23713055.597    23713054.866
  23738674.805   -10074939.17743  -7729497.42542  23738676.678    23738676.710
  21768584.982   -21208880.69343 -16513907.32742  21768586.247    21768582.998
  22124596.416   -13574638.63643 -10566545.29642  22124597.256    22124595.630
  20470636.902   -27328369.07944 -21291423.53542  20470638.463    20470635.553
  24109528.623    -7559912.45343  -5862574.63042  24109529.565    24109529.924
  23583837.676    -7598267.14043  -5907527.42442  23583839.170    23583838.430
  22072219.955   -15954109.35343 -12425006.37642  22072220.529    22072218.849
 04  1 21  0 30  0.0000000  0  9G30G29G26G21G10G 6G 5G18G17
  21447604.682   -20088339.24643 -15623231.44842  21447606.596    21447604.078
  23702431.770    -9871695.62143  -7664523.99042  23702433.900    23702433.159
  23722377.794   -10160580.52143  -7796230.89642  23722379.593    23722379.658
  21758808.342   -21260257.21543 -16553940.93642  21758809.605    21758806.328
  22139481.823   -13496415.38243 -10505592.10942  22139482.664    22139480.994
  20465948.171   -27353008.53244 -21310623.08142  20465949.728    20465946.800
  24130179.758    -7451390.45243  -5778012.10442  24130180.639    24130180.983
  23563664.436    -7704277.65143  -5990132.87042  23563665.909    23563665.154
  22083631.718   -15894140.18843 -12378277.15242  22083632.278    22083630.607
 04  1 21  0 30 30.0000000  0  9G30G29G26G21G10G 6G 5G18G17
  21462892.793   -20007999.78843 -15560629.29242  21462894.719    21462892.179
  23691868.445    -9927206.29643  -7707778.92742  23691870.519    23691869.617
  23706111.339   -10246061.27843  -7862839.22342  23706113.144    23706113.114
  21749073.256   -21311415.19043 -16593804.24042  21749074.523    21749071.247
  22154444.036   -13417788.54243 -10444324.43342  22154444.858    22154443.173
  20461321.116   -27377323.64644 -21329569.89542  20461322.686    20461319.771
  24150835.111    -7342846.12643  -5693432.18042  24150836.005    24150836.339
  23543520.602    -7810133.75343  -6072618.00042  23543522.082    23543521.294
  22095065.673   -15834054.31843 -12331456.98042  22095066.217    22095064.548
 04  1 21  0 31  0.0000000  0  9G30G29G26G21G10G 6G 5G18G17
  21478252.359   -19927284.79843 -15497734.51742  21478254.278    21478251.743
  23681364.250    -9982405.21843  -7750790.91042  23681366.391    23681365.548
  23689876.704   -10331374.60743  -7929317.05542  23689878.541    23689878.526
  21739380.352   -21362351.61243 -16633494.91742  21739381.618    21739378.303
  22169483.138   -13338757.60143 -10382741.87642  22169483.935    22169482.235
  20456756.704   -27401309.66544 -21348260.27542  20456758.272    20456755.359
  24171494.830    -7234278.97043  -5608834.52442  24171495.660    24171496.079
  23523407.119    -7915829.78243  -6154978.38042  23523408.608    23523407.846
  22106522.351   -15773849.12543 -12284543.83842  22106522.867    22106521.206
 04  1 21  0 31 30.0000000  0  9G30G29G26G21G10G 6G 5G18G17
  21493682.527   -19846198.94343 -15434550.75642  21493684.448    21493681.871
  23670919.677   -10037291.60943  -7793559.38842  23670921.783    23670920.835
  23673674.136   -10416519.19543  -7995663.37642  23673676.013    23673676.026
  21729729.172   -21413068.72343 -16673014.70142  21729730.437    21729727.111
  22184598.199   -13259327.42443 -10320848.22642  22184599.018    22184597.265
  20452254.826   -27424967.07144 -21366694.59042  20452256.402    20452253.488
  24192158.081    -7125693.34943  -5524222.42542  24192158.852    24192159.409
  23503324.278    -8021365.46643  -6237213.83542  23503325.749    23503324.982
  22118001.099   -15713527.91643 -12237540.29442  22118001.594    22117999.965
 04  1 21  0 32  0.0000000  0  9G30G29G26G21G10G 6G 5G18G17
  21509182.823   -19764744.42843 -15371079.72842  21509184.750    21509182.189
  23660535.038   -10091862.32443  -7836081.86642  23660537.097    23660536.201
  23657504.416   -10501491.13043  -8061875.15842  23657506.342    23657506.385
  21720119.796   -21463566.18643 -16712363.33142  21720121.055    21720117.709
  22199788.803   -13179500.28743 -10258645.26042  22199789.622    22199787.850
  20447815.891   -27448293.77544 -21384871.21942  20447817.456    20447814.553
  24212824.471    -7017091.02643  -5439597.35442  24212825.230    24212825.804
  23483272.447    -8126737.69743  -6319321.90442  23483273.942    23483273.138
  22129501.887   -15653090.80343 -12190446.43042  22129502.389    22129500.780
 04  1 21  0 32 30.0000000  0  9G30G29G26G21G10G 6G 5G18G17
  21524753.257   -19682921.41943 -15307321.55842  21524755.164    21524752.595
  23650211.657   -10146111.79843  -7878354.03242  23650213.726    23650212.718
  23641368.773   -10586284.03043  -8127947.43742  23641370.650    23641370.757
  21710552.760   -21513841.27843 -16751538.68842  21710553.994    21710550.616
  22215054.932   -13099276.14643 -10196132.93542  22215055.763    22215053.956
  20443440.660   -27471285.64944 -21402786.93942  20443442.220    20443439.313
  24233494.031    -6908472.33043  -5354959.50942  24233494.773    24233495.366
  23463252.741    -8231941.36643  -6401298.63842  23463254.233    23463253.417
  22141025.076   -15592536.12343 -12143260.96842  22141025.545    22141023.939
 04  1 21  0 33  0.0000000  0  9G30G29G26G21G10G 6G 5G18G17
  21540393.023   -19600734.11243 -15243279.51642  21540394.925    21540392.318
  23639949.419   -10200039.01743  -7920375.08742  23639951.505    23639950.619
  23625267.525   -10670896.00643  -8193878.71942  23625269.449    23625269.544
  21701027.670   -21563895.82843 -16790542.19142  21701028.891    21701025.499
  22230395.755   -13018659.49943 -10133314.76142  22230396.614    22230394.783
  20439129.139   -27493942.74444 -21420441.79442  20439130.709    20439127.779
  24254165.921    -6799840.82543  -5270311.67642  24254166.741    24254167.290
  23443265.171    -8336975.99443  -6483143.67342  23443266.706    23443265.802
  22152570.141   -15531866.37043 -12095985.82342  22152570.589    22152569.005
 04  1 21  0 33 30.0000000  0  9G30G29G26G21G10G 6G 5G18G17
  21556100.862   -19518188.97243 -15178958.64542  21556102.765    21556100.182
  23629748.492   -10253644.84843  -7962145.71942  23629750.571    23629749.640
  23609200.671   -10755327.10643  -8259669.03642  23609202.690    23609202.791
  21691543.795   -21613733.72543 -16829376.88042  21691545.022    21691541.604
  22245810.091   -12937656.63043 -10070195.63042  22245810.953    22245809.085
  20434880.886   -27516267.30544 -21437837.53142  20434882.460    20434879.550
  24274838.967    -6691203.13943  -5185659.02442  24274839.826    24274840.442
  23423309.577    -8441842.71743  -6564857.87042  23423311.142    23423310.146
  22164136.239   -15471086.10243 -12048624.56842  22164136.659    22164135.121
 04  1 21  0 34  0.0000000  0  9G30G29G26G21G10G 6G 5G18G17
  21571877.161   -19435284.00043 -15114357.38542  21571879.077    21571876.494
  23619610.072   -10306921.66843  -8003659.97642  23619612.194    23619611.227
  23593169.831   -10839569.04943  -8325311.96142  23593171.886    23593171.973
  21682102.114   -21663350.09143 -16868038.94942  21682103.306    21682099.867
  22261298.224   -12856265.88343 -10006774.25842  22261299.063    22261297.235
  20430697.134   -27538253.07544 -21454969.27642  20430698.693    20430695.770
  24295513.711    -6582556.91943  -5100999.73642  24295514.585    24295515.271
  23403387.314    -8546534.62943  -6646435.84042  23403388.841    23403387.803
  22175724.122   -15410191.41443 -12001174.15642  22175724.520    22175722.991
 04  1 21  0 34 30.0000000  0  9G30G29G26G21G10G 6G 5G18G17
  21587720.912   -19352024.52643 -15049479.89242  21587722.831    21587720.259
  23609534.266   -10359869.68943  -8044918.04242  23609536.312    23609535.430
  23577175.211   -10923620.80543  -8390806.65942  23577177.243    23577177.389
  21672702.060   -21712747.57143 -16906530.46142  21672703.240    21672699.777
  22276859.169   -12774492.56043  -9943054.77242  22276860.017    22276858.163
  20426577.614   -27559901.13744 -21471837.87142  20426579.185    20426576.269
  24316189.157    -6473907.17343  -5016337.71242  24316190.024    24316190.722
  23383498.159    -8651052.24643  -6727877.99542  23383499.637    23383498.623
  22187333.025   -15349185.91943 -11953637.39842  22187333.444    22187331.934
 04  1 21  0 35  0.0000000  0  9G30G29G26G21G10G 6G 5G18G17
  21603631.823   -19268412.30843 -14984327.53842  21603633.743    21603631.151
  23599521.883   -10412484.87543  -8085916.76042  23599523.929    23599522.888
  23561217.543   -11007477.96143  -8456149.71042  23561219.661    23561219.732
  21663343.743   -21761925.68543 -16944851.03842  21663344.924    21663341.450
  22292492.559   -12692338.39543  -9879038.52842  22292493.402    22292491.586
  20422522.835   -27581209.02044 -21488441.39542  20422524.420    20422521.482
  24336864.911    -6365255.86943  -4931674.49642  24336865.731    24336866.454
  23363642.844    -8755391.98343  -6809181.55542  23363644.372    23363643.295
  22198963.095   -15288069.45643 -11906014.17742  22198963.479    22198961.978
 04  1 21  0 35 30.0000000  0 10G30G29G26G21G10G 6G 5G18G16G17
  21619607.427   -19184459.96443 -14918910.14442  21619609.362    21619606.766
  23589571.405   -10464774.59943  -8126661.87542  23589573.427    23589572.337
  23545295.720   -11091146.78243  -8521345.97442  23545297.885    23545297.932
  21654025.294   -21810894.44043 -16983008.47542  21654026.443    21654022.972
  22308196.085   -12609815.89243  -9814735.27242  22308196.934    22308195.073
  20418531.251   -27602184.91644 -21504786.22642  20418532.811    20418529.869
  24357538.650    -6256615.25243  -4847019.57942  24357539.497    24357540.223
  23343819.968    -8859561.43343  -6890352.43242  23343821.509    23343820.351
  24749790.841    -3937305.10853  -3052666.57252  24749792.112    24749791.463
  22210612.258   -15226852.59743 -11858312.71242  22210612.652    22210611.133
 04  1 21  0 36  0.0000000  0 10G30G29G26G21G10G 6G 5G18G16G17
  21635651.482   -19100148.05943 -14853212.57942  21635653.405    21635650.815
  23579687.575   -10516713.77143  -8167133.82542  23579689.676    23579688.475
  23529414.725   -11174601.25243  -8586375.21942  23529416.854    23529416.927
  21644750.950   -21859631.27343 -17020985.19642  21644752.097    21644748.607
  22323973.317   -12526905.82043  -9750129.99942  22323974.177    22323972.323
  20414607.365   -27622805.08944 -21520853.86842  20414608.923    20414605.946
  24378214.144    -6147965.24643  -4762357.34642  24378214.993    24378215.736
  23324034.220    -8963535.88943  -6971371.36642  23324035.794    23324034.595
  24732926.216    -4025928.59043  -3121723.71942  24732927.678    24732926.948
  22222284.603   -15165513.85843 -11810516.27942  22222285.032    22222283.495
 04  1 21  0 36 30.0000000  0 10G30G29G26G21G10G 6G 5G18G16G17
  21651760.279   -19015495.82743 -14787249.82142  21651762.193    21651759.587
  23569867.917   -10568316.50043  -8207343.62442  23569869.936    23569868.701
  23513571.916   -11257854.65443  -8651247.77842  23513574.127    23513574.105
  21635517.464   -21908153.53243 -17058794.71342  21635518.586    21635515.099
  22339820.658   -12443627.43643  -9685237.74142  22339821.506    22339819.645
  20410748.262   -27643084.77044 -21536656.19642  20410749.812    20410746.821
  24398887.802    -6039324.54043  -4677702.33942  24398888.670    24398889.493
  23304282.746    -9067329.99843  -7052249.74842  23304284.380    23304283.088
  24716116.829    -4114262.06943  -3190554.89342  24716118.229    24716117.590
  22233976.787   -15104070.81343 -11762638.56742  22233977.259    22233975.694
 04  1 21  0 37  0.0000000  0 10G30G29G26G21G10G 6G 5G18G16G17
  21667934.279   -18930501.01243 -14721020.12142  21667936.185    21667933.605
  23560113.648   -10619574.73743  -8247285.00442  23560115.694    23560114.442
  23497769.131   -11340897.95743  -8715956.61942  23497771.353    23497771.308
  21626325.791   -21956455.90443 -17096432.89142  21626326.931    21626323.427
  22355738.514   -12359978.30743  -9620056.59142  22355739.427    22355737.540
  20406955.248   -27663017.12544 -21552187.88042  20406956.812    20406953.791
  24419560.228    -5930690.70843  -4593052.68342  24419561.111    24419561.924
  23284567.112    -9170935.80143  -7132981.43442  23284568.750    23284567.350
  24699364.063    -4202297.76443  -3259154.00942  24699365.460    24699364.870
  22245689.691   -15042519.21243 -11714676.26442  22245690.157    22245688.562
 04  1 21  0 37 30.0000000  0 10G30G29G26G21G10G 6G 5G18G16G17
  21684172.322   -18845169.56343 -14654528.10442  21684174.229    21684171.640
  23550424.879   -10670489.18943  -8286958.51242  23550426.906    23550425.569
  23482006.297   -11423731.14643  -8780501.74442  23482008.555    23482008.486
  21617175.408   -22004541.35043 -17133902.03842  21617176.541    21617173.045
  22371725.798   -12275964.63343  -9554591.37842  22371726.682    22371724.802
  20403227.990   -27682603.96244 -21567450.33042  20403229.541    20403226.527
  24440230.228    -5822069.44843  -4508412.84042  24440231.096    24440231.956
  23264887.159    -9274354.50543  -7213567.29842  23264888.719    23264887.317
  24682667.844    -4290036.47243  -3327521.72642  24682669.318    24682668.687
  22257422.457   -14980862.94243 -11666632.39942  22257422.937    22257421.353
 04  1 21  0 38  0.0000000  0 10G30G29G26G21G10G 6G 5G18G16G17
  21700474.838   -18759499.29243 -14587772.07642  21700476.728    21700474.186
  23540802.919   -10721052.16543  -8326358.13942  23540804.935    23540803.659
  23466285.159   -11506345.47743  -8844876.32642  23466287.412    23466287.256
  21608067.193   -22052405.20143 -17171198.51042  21608068.320    21608064.851
  22387782.859   -12191584.27343  -9488840.43842  22387783.739    22387781.832
  20399567.705   -27701838.78944 -21582438.48942  20399569.253    20399566.245
  24460898.217    -5713458.51343  -4423781.05042  24460899.114    24460900.055
  23245244.168    -9377578.63043  -7294001.55142  23245245.716    23245244.355
  24666029.643    -4377470.37443  -3395651.93142  24666031.146    24666030.570
  22269175.938   -14919097.86743 -11618503.75142  22269176.438    22269174.816
 04  1 21  0 38 30.0000000  0 10G30G29G26G21G10G 6G 5G18G16G17
  21716840.549   -18673496.80443 -14520757.17242  21716842.462    21716839.929
  23531247.729   -10771264.78843  -8365484.78042  23531249.743    23531248.443
  23450605.635   -11588741.21543  -8909080.58742  23450607.871    23450607.670
  21599000.244   -22100052.14543 -17208325.96342  21599001.384    21598997.904
  22403908.481   -12106843.71043  -9422808.82542  22403909.313    22403907.410
  20395973.916   -27720723.87544 -21597154.11742  20395975.521    20395972.512
  24481563.130    -5604864.11443  -4339162.14742  24481564.014    24481564.921
  23225637.922    -9480609.69043  -7374285.37542  23225639.481    23225638.001
  24649449.182    -4464600.96043  -3463545.77842  24649450.423    24649450.118
  22280949.261   -14857228.69243 -11570293.99642  22280949.750    22280948.094
 04  1 21  0 39  0.0000000  0 10G30G29G26G21G10G 6G 5G18G16G17
  21733268.920   -18587165.37643 -14453485.95542  21733270.809    21733268.318
  23521759.545   -10821124.93643  -8404336.76342  23521761.528    23521760.285
  23434968.326   -11670915.38043  -8973112.19942  23434970.501    23434970.255
  21589974.650   -22147481.89243 -17245284.17042  21589975.772    21589972.303
  22420102.025   -12021746.18043  -9356499.05442  22420102.824    22420100.935
  20392446.913   -27739258.32744 -21611596.52942  20392448.519    20392445.491
  24502224.411    -5496289.16443  -4254558.39842  24502225.264    24502226.143
  23206068.689    -9583446.14743  -7454417.53042  23206070.240    23206068.769
  24632926.766    -4551426.12243  -3531201.64142  24632928.054    24632927.559
  22292742.162   -14795256.54843 -11522003.98542  22292742.669    22292740.976
 04  1 21  0 39 30.0000000  0 10G30G29G26G21G10G 6G 5G18G16G17
  21749759.463   -18500506.86443 -14385959.85942  21749761.378    21749758.876
  23512339.201   -10870629.05943  -8442911.31642  23512341.153    23512339.900
  23419374.083   -11752863.20443  -9036967.44642  23419376.205    23419375.904
  21580990.517   -22194693.77343 -17282072.61042  21580991.609    21580988.145
  22436363.109   -11936293.58443  -9289912.61342  22436363.907    22436362.039
  20388987.101   -27757439.73044 -21625763.83442  20388988.689    20388985.665
  24522881.721    -5387734.72643  -4169970.61542  24522882.590    24522883.455
  23186537.071    -9686084.83543  -7534395.57542  23186538.634    23186537.172
  24616463.204    -4637942.21643  -3598616.67642  24616464.649    24616463.903
  22304554.685   -14733181.32843 -11473633.66742  22304555.210    22304553.493
 04  1 21  0 40  0.0000000  0 10G30G29G26G21G10G 6G 5G18G16G17
  21766311.860   -18413523.55843 -14318180.68842  21766313.757    21766311.320
  23502987.102   -10919773.95443  -8481205.96242  23502989.071    23502987.846
  23403823.611   -11834580.70943  -9100643.23642  23403825.735    23403825.359
  21572047.831   -22241687.67543 -17318691.19742  21572048.930    21572045.482
  22452691.339   -11850488.17443  -9223051.25342  22452692.137    22452690.274
  20385594.879   -27775265.95344 -21639654.37942  20385596.462    20385593.422
  24543534.683    -5279202.97243  -4085400.51442  24543535.593    24543536.507
  23167043.783    -9788522.58543  -7614217.08242  23167045.300    23167043.772
  24600059.074    -4724146.22243  -3665788.51542  24600060.480    24600059.679
  22316386.802   -14671003.16043 -11425183.13442  22316387.336    22316385.595
 04  1 21  0 40 30.0000000  0 10G30G29G26G21G10G 6G 5G18G16G17
  21782925.604   -18326217.91643 -14250150.33542  21782927.476    21782925.014
  23493704.065   -10968556.61343  -8519218.35342  23493706.012    23493704.699
  23388317.691   -11916064.04943  -9164136.56742  23388319.835    23388319.357
  21563146.624   -22288463.69443 -17355139.99942  21563147.722    21563144.283
  22469086.206   -11764332.36343  -9155916.85242  22469087.012    22469085.181
  20382270.584   -27792735.21044 -21653266.77142  20382272.167    20382269.119
  24564183.051    -5170695.85943  -4000849.62242  24564183.910    24564184.793
  23147589.095    -9890756.90443  -7693880.02942  23147590.631    23147589.165
  24583714.816    -4810035.31343  -3732714.98442  24583716.426    24583715.413
  22328238.346   -14608722.75743 -11376652.93342  22328238.909    22328237.140
 04  1 21  0 41  0.0000000  0 10G30G29G26G21G10G 6G 5G18G16G17
  21799599.805   -18238594.33743 -14181872.24842  21799601.699    21799599.294
  23484489.977   -11016976.08943  -8556947.72042  23484491.965    23484490.759
  23372856.718   -11997311.10643  -9227445.78542  23372858.966    23372858.382
  21554286.647   -22335022.98943 -17391419.92842  21554287.755    21554284.338
  22485546.922   -11677830.74543  -9088512.98942  22485547.712    22485545.906
  20379014.210   -27809847.54044 -21666601.03642  20379015.766    20379012.733
  24584825.774    -5062217.52643  -3916321.14842  24584826.738    24584827.636
  23128173.224    -9992787.16543  -7773383.98642  23128174.833    23128173.279
  24567430.702    -4895608.40943  -3799395.21842  24567432.351    24567431.131
  22340108.976   -14546342.15243 -11328044.65642  22340109.545    22340107.746
 04  1 21  0 41 30.0000000  0 10G30G29G26G21G10G 6G 5G18G16G17
  21816333.968   -18150655.84743 -14113348.77042  21816335.856    21816333.416
  23475345.610   -11065030.16943  -8594392.40842  23475347.516    23475346.223
  23357441.363   -12078318.61943  -9290568.34942  23357443.586    23357442.994
  21545467.842   -22381365.83043 -17427531.19042  21545468.962    21545465.549
  22502072.905   -11590986.12943  -9020841.85542  22502073.697    22502071.925
  20375825.980   -27826601.63844 -21679656.15742  20375827.556    20375824.513
  24605462.695    -4953770.61243  -3831817.17642  24605463.648    24605464.522
  23108796.648   -10094611.18243  -7852727.23642  23108798.243    23108796.636
  24551207.145    -4980863.31243  -3865827.51242  24551208.789    24551207.541
  22351998.405   -14483862.58143 -11279359.26042  22351998.992    22351997.179
 04  1 21  0 42  0.0000000  0 10G30G29G26G21G10G 6G 5G18G16G17
  21833127.936   -18062403.03643 -14044580.37642  21833129.831    21833127.415
  23466271.599   -11112713.70943  -8631548.33342  23466273.537    23466272.267
  23342072.732   -12159080.59443  -9353499.60542  23342074.992    23342074.323
  21536690.594   -22427490.28443 -17463472.27742  21536691.734    21536688.329
  22518664.047   -11503798.97643  -8952903.81342  22518664.846    22518663.095
  20372706.670   -27842993.74344 -21692429.20842  20372708.228    20372705.181
  24626093.654    -4845355.14543  -3747337.74842  24626094.590    24626095.420
  23089460.252   -10196224.19443  -7931906.05742  23089461.846    23089460.203
  24535045.020    -5065795.24543  -3932008.13042  24535046.674    24535045.569
  22363907.049   -14421282.30643 -11230595.40542  22363907.587    22363905.800
 04  1 21  0 42 30.0000000  0 10G30G29G26G21G10G 6G 5G18G16G17
  21849980.803   -17973840.68943 -13975570.77442  21849982.710    21849980.273
  23457268.342   -11160026.27243  -8668415.19842  23457270.251    23457268.888
  23326751.216   -12239595.40543  -9416238.26242  23326753.343    23326752.688
  21527954.419   -22473398.83743 -17499245.12342  21527955.596    21527952.184
  22535319.396   -11416274.35043  -8884702.79442  22535320.232    22535318.518
  20369656.112   -27859024.43544 -21704920.63542  20369657.678    20369654.608
  24646717.727    -4736975.60443  -3662886.33842  24646718.586    24646719.413
  23070164.012   -10297626.18943  -8010920.47342  23070165.601    23070163.826
  24518944.531    -5150403.72143  -3997936.72442  24518946.162    24518945.040
  22375834.284   -14358604.18743 -11181755.30142  22375834.829    22375833.032
 04  1 21  0 43  0.0000000  0 10G30G29G26G21G10G 6G 5G18G16G17
  21866892.106   -17884971.41943 -13906322.01842  21866893.999    21866891.598
  23448336.156   -11206965.08843  -8704990.81642  23448338.077    23448336.662
  23311477.394   -12319859.20443  -9478781.31142  23311479.492    23311478.842
  21519259.479   -22519090.83943 -17534849.23542  21519260.665    21519257.251
  22552038.545   -11328414.61843  -8816240.66242  22552039.380    22552037.696
  20366674.645   -27874692.16144 -21717129.23142  20366676.197    20366673.127
  24667334.639    -4628634.22143  -3578464.60242  24667335.435    24667336.204
  23050908.343   -10398814.70543  -8089768.52442  23050909.964    23050908.212
  24502906.077    -5234685.84843  -4063610.99642  24502907.707    24502906.634
  22387780.091   -14295828.55743 -11132839.21342  22387780.648    22387778.811
 04  1 21  0 43 30.0000000  0 10G30G29G26G21G10G 6G 5G18G16G17
  21883861.359   -17795797.43443 -13836835.81742  21883863.252    21883860.855
  23439475.708   -11253527.02643  -8741272.77042  23439477.630    23439476.137
  23296252.072   -12399867.91643  -9541125.60542  23296254.230    23296253.464
  21510605.777   -22564566.24543 -17570284.56642  21510606.950    21510603.536
  22568821.013   -11240222.11143  -8747519.21342  22568821.862    22568820.162
  20363762.600   -27889994.94644 -21729053.46242  20363764.153    20363761.085
  24687943.863    -4520332.45843  -3494073.67942  24687944.678    24687945.476
  23031693.920   -10499786.39243  -8168447.61942  23031695.531    23031693.820
  24486930.367    -5318638.45443  -4129028.50942  24486931.901    24486930.820
  22399744.402   -14232955.65643 -11083847.33942  22399744.962    22399743.129
 04  1 21  0 44  0.0000000  0 10G30G29G26G21G10G 6G 5G18G16G17
  21900887.672   -17706323.58743 -13767115.96142  21900889.572    21900887.201
  23430686.984   -11299711.58443  -8777260.65242  23430688.881    23430687.450
  23281075.601   -12479619.97743  -9603269.89242  23281077.698    23281076.957
  21501992.917   -22609826.92243 -17605552.57942  21501994.104    21501990.648
  22585665.910   -11151701.48143  -8678542.08542  22585666.737    22585665.089
  20360919.956   -27904933.14744 -21740693.59942  20360921.486    20360918.433
  24708544.644    -4412074.89843  -3409717.32742  24708545.400    24708546.417
  23012520.730   -10600541.63843  -8246958.09042  23012522.362    23012520.531
  24471017.416    -5402261.19943  -4194188.97842  24471018.929    24471017.855
  22411726.714   -14169988.03643 -11034781.65642  22411727.278    22411725.448
 04  1 21  0 44 30.0000000  0 10G30G29G26G21G10G 6G 5G18G16G17
  21917971.709   -17616546.46143 -13697159.76942  21917973.635    21917971.218
  23421971.916   -11345509.68943  -8812947.41042  23421973.803    23421972.275
  23265949.921   -12559105.47443  -9665206.49442  23265951.937    23265951.217
  21493422.117   -22654866.61443 -17640648.39642  21493423.298    21493419.832
  22602573.933   -11062849.17043  -8609306.50342  22602574.741    22602573.101
  20358148.163   -27919498.95544 -21752043.55742  20358149.703    20358146.630
  24729137.780    -4303857.84743  -3325392.47242  24729138.574    24729139.595
  22993390.401   -10701071.56643  -8325292.95342  22993392.055    22993390.235
  24455168.899    -5485545.11443  -4259085.44142  24455170.441    24455169.385
  22423728.092   -14106920.24343 -10985637.90942  22423728.641    22423726.856
 04  1 21  0 45  0.0000000  0 10G30G29G26G21G10G 6G 5G18G16G17
  21935111.310   -17526477.12243 -13626975.89142  21935113.239    21935110.876
  23413329.133   -11390927.37243  -8848337.73642  23413331.017    23413329.492
  23250874.071   -12638328.97443  -9726938.94242  23250876.115    23250875.330
  21484891.743   -22699693.94243 -17675578.73342  21484892.926    21484889.432
  22619542.916   -10973676.55143  -8539821.33342  22619543.716    22619542.081
  20355445.938   -27933699.25044 -21763108.70042  20355447.457    20355444.380
  24749721.206    -4195691.76243  -3241107.32042  24749722.028    24749723.036
  22974301.880   -10801382.16943  -8403456.95042  22974303.466    22974301.532
  24439383.761    -5568496.09543  -4323722.45742  24439385.295    24439384.221
  22435746.865   -14043761.22843 -10936423.09142  22435747.366    22435745.608
 04  1 21  0 45 30.0000000  0 10G30G29G26G21G10G 6G 5G18G16G17
  21952306.368   -17436116.79643 -13556565.25842  21952308.266    21952305.886
  23404759.655   -11435960.20243  -8883428.17842  23404761.529    23404759.917
  23235849.077   -12717285.29543  -9788463.20442  23235851.111    23235850.329
  21476402.061   -22744307.31843 -17710342.36142  21476403.233    21476399.744
  22636572.650   -10884184.66643  -8470087.38142  22636573.451    22636571.789
  20352813.826   -27947530.94344 -21773886.62042  20352815.367    20352812.286
  24770294.765    -4087577.26643  -3156862.36742  24770295.527    24770296.571
  22955255.797   -10901469.44543  -8481446.90942  22955257.404    22955255.484
  24423662.800    -5651109.74443  -4388096.63842  24423664.331    24423663.246
  22447783.166   -13980510.05743 -10887136.44742  22447783.645    22447781.887
 04  1 21  0 46  0.0000000  0 10G30G29G26G21G10G 6G 5G18G16G17
  21969557.005   -17345464.01743 -13485926.75342  21969558.909    21969556.554
  23396264.627   -11480601.60443  -8918213.60342  23396266.535    23396264.808
  23220876.380   -12795966.69843  -9849773.24042  23220878.480    23220877.587
  21467953.816   -22788702.97443 -17744936.33842  21467954.990    21467951.486
  22653663.428   -10794371.94243  -8400103.42442  22653664.223    22653662.562
  20350253.000   -27960988.21644 -21784372.78542  20350254.518    20350251.427
  24790858.911    -3979512.38043  -3072656.13342  24790859.619    24790860.873
  22936253.547   -11001326.68543  -8559257.62542  22936255.156    22936253.186
  24408007.385    -5733379.40443  -4452202.77342  24408008.829    24408007.791
  22459837.757   -13917162.94643 -10837775.05342  22459838.191    22459836.462
 04  1 21  0 46 30.0000000  0 10G30G29G26G21G10G 6G 5G18G16G17
  21986861.817   -17254526.73643 -13415066.55542  21986863.733    21986861.374
  23387843.586   -11524854.28743  -8952696.13942  23387845.516    23387843.711
  23205955.727   -12874374.61443  -9910870.16342  23205957.805    23205956.887
  21459546.118   -22832885.62543 -17779364.34242  21459547.270    21459543.763
  22670813.723   -10704246.54643  -8329875.82442  22670814.515    22670812.835
  20347762.687   -27974074.78844 -21794570.09142  20347764.206    20347761.105
  24811412.282    -3871504.45843  -2988494.28542  24811412.924    24811414.254
  22917294.412   -11100957.01443  -8636891.54542  22917296.041    22917293.986
  24392416.846    -5815307.72443  -4516042.92742  24392418.327    24392417.256
  22471909.446   -13853725.81243 -10788343.51342  22471909.854    22471908.155
 04  1 21  0 47  0.0000000  0 10G30G29G26G21G10G 6G 5G18G16G17
  22004221.242   -17163302.29943 -13343982.59342  22004223.194    22004220.794
  23379498.051   -11568710.08643  -8986869.40342  23379499.960    23379498.221
  23191088.878   -12952499.92243  -9971746.89042  23191090.924    23191090.029
  21451179.979   -22876849.75343 -17813622.07042  21451181.137    21451177.618
  22688024.100   -10613805.30743  -8259402.11842  22688024.895    22688023.193
  20345344.233   -27986783.68744 -21804473.10342  20345345.759    20345342.657
  24831955.250    -3763550.59943  -2904374.52242  24831955.895    24831957.181
  22898380.046   -11200352.59443  -8714342.53042  22898381.609    22898379.577
  24376892.850    -5896886.51643  -4579610.72442  24376894.250    24376893.246
  22483999.237   -13790193.57143 -10738837.85342  22483999.623    22483997.900
 04  1 21  0 47 30.0000000  0  9G30G29G26G21G10G 6G18G16G17
  22021636.350   -17071785.09243 -13272670.51642  22021638.304    22021635.997
  23371230.075   -11612158.23343  -9020725.02442  23371232.002    23371230.186
  23176278.056   -13030330.47543 -10032393.94042  23176280.123    23176279.154
  21442856.975   -22920587.19643 -17847703.16042  21442858.156    21442854.618
  22705295.671   -10523042.57943  -8188677.90442  22705296.460    22705294.754
  20342999.536   -27999105.10244 -21814074.18242  20343001.061    20342997.960
  22879512.242   -11299502.89643  -8791602.39742  22879513.812    22879511.683
  24361437.426    -5978104.97943  -4642897.75142  24361438.885    24361437.817
  22496108.507   -13726558.82043 -10689252.31542  22496108.881    22496107.205
 04  1 21  0 48  0.0000000  0  9G30G29G26G21G10G 6G18G16G17
  22039101.470   -16980005.47043 -13201153.92542  22039103.459    22039101.029
  23363034.977   -11655223.57443  -9054282.34842  23363036.865    23363035.068
  23161518.831   -13107890.27743 -10092830.02542  23161520.960    23161519.884
  21434571.821   -22964125.90343 -17881629.39242  21434572.980    21434569.430
  22722622.581   -10431988.97943  -8117727.03742  22722623.377    22722621.654
  20340723.622   -28011064.94044 -21823393.51042  20340725.153    20340722.052
  22860686.448   -11398432.70243  -8868690.45642  22860688.028    22860685.886
  24346045.806    -6058988.09543  -4705923.46842  24346047.243    24346046.182
  22508232.003   -13662849.18343 -10639608.42742  22508232.390    22508230.760
 04  1 21  0 48 30.0000000  0  9G30G29G26G21G10G 6G18G16G17
  22056619.448   -16887947.69643 -13129420.62642  22056621.437    22056619.145
  23354916.564   -11697885.26643  -9087525.13242  23354918.545    23354916.767
  23146815.338   -13185157.16243 -10153037.87442  23146817.534    23146816.282
  21426328.053   -23007447.04243 -17915386.08942  21426329.211    21426325.644
  22740007.823   -10340628.67643  -8046537.17842  22740008.653    22740006.925
  20338520.328   -28022643.38544 -21832415.64942  20338521.825    20338518.719
  22841906.487   -11497121.52543  -8945590.71542  22841908.076    22841905.932
  24330722.009    -6139514.69543  -4768671.38342  24330723.476    24330722.506
  22520373.134   -13599047.08343 -10589892.48242  22520373.506    22520371.921
 04  1 21  0 49  0.0000000  0  9G30G29G26G21G10G 6G18G16G17
  22074189.160   -16795618.47343 -13057475.78442  22074191.149    22074188.769
  23346874.926   -11740144.51543  -9120454.33542  23346876.847    23346875.039
  23132167.564   -13262131.24543 -10213017.57242  23132169.719    23132168.400
  21418124.940   -23050554.67843 -17948976.42442  21418126.078    21418122.490
  22757450.250   -10248967.97343  -7975113.23942  22757451.086    22757449.353
  20336389.099   -28033842.81344 -21841142.45242  20336390.609    20336387.509
  22823172.233   -11595570.47343  -9022304.09242  22823173.824    22823171.564
  24315465.884    -6219686.16143  -4831142.56642  24315467.319    24315466.229
  22532531.064   -13535156.76843 -10540107.79842  22532531.401    22532529.846
 04  1 21  0 49 30.0000000  0  9G30G29G26G21G10G 6G18G16G17
  22091810.028   -16703020.10943 -12985321.24442  22091812.013    22091809.719
  23338910.234   -11781998.60543  -9153067.81242  23338912.188    23338910.387
  23117576.270   -13338808.51843 -10272765.99642  23117578.444    23117577.115
  21409962.525   -23093448.35443 -17982400.03242  21409963.651    21409960.054
  22774949.407   -10157009.21043  -7903457.05342  22774950.244    22774948.523
  20334330.355   -28044661.33044 -21849572.44042  20334331.878    20334328.795
  22804483.944   -11693777.61743  -9098829.01742  22804485.530    22804483.363
  24300277.809    -6299499.42943  -4893334.62642  24300279.252    24300278.172
  22544705.777   -13471178.20443 -10490254.34942  22544706.133    22544704.581
 04  1 21  0 50  0.0000000  0  9G30G29G26G21G10G 6G18G16G17
  22109482.040   -16610153.14343 -12912957.38942  22109483.999    22109481.689
  23331023.606   -11823442.72343  -9185361.83842  23331025.569    23331023.780
  23103042.636   -13415183.02443 -10332278.51042  23103044.747    23103043.462
  21401841.255   -23136125.86343 -18015655.20342  21401842.376    21401838.758
  22792505.205   -10064752.83443  -7831568.95542  22792506.076    22792504.311
  20332344.850   -28055095.15244 -21857702.66842  20332346.381    20332343.266
  22785842.739   -11791737.55343  -9175161.34742  22785844.324    22785842.035
  24285158.812    -6378949.93843  -4955244.02142  24285160.236    24285159.131
  22556897.558   -13407109.75143 -10440330.85342  22556897.948    22556896.398
 04  1 21  0 50 30.0000000  0  9G30G29G26G21G10G 6G18G16G17
  22127203.965   -16517024.07543 -12840389.30442  22127205.916    22127203.603
  23323214.772   -11864477.98043  -9217337.27342  23323216.776    23323214.887
  23088566.558   -13491255.03343 -10391555.32042  23088568.673    23088567.327
  21393760.381   -23178591.03543 -18048744.91642  21393761.486    21393757.860
  22810116.422    -9972205.17543  -7759453.88342  22810117.296    22810115.526
  20330432.131   -28065146.43844 -21865534.81742  20330433.659    20330430.535
  22767248.215   -11889451.93043  -9251302.31242  22767249.789    22767247.530
  24270108.600    -6458038.63943  -5016871.47342  24270110.102    24270108.981
  22569105.631   -13342955.62243 -10390340.59642  22569106.076    22569104.498
 04  1 21  0 51  0.0000000  0  9G30G29G26G21G10G 6G18G16G17
  22144974.937   -16423636.74243 -12767619.98142  22144976.886    22144974.675
  23315484.026   -11905103.17143  -9248993.16942  23315485.995    23315484.111
  23074148.600   -13567021.73343 -10450594.23442  23074150.723    23074149.294
  21385719.697   -23220844.85343 -18081669.93542  21385720.810    21385717.193
  22827782.350    -9879370.20043  -7687114.92642  22827783.185    22827781.416
  20328592.285   -28074814.82344 -21873068.60442  20328593.808    20328590.673
  22748700.665   -11986919.77343  -9327251.19542  22748702.259    22748699.877
  24255127.603    -6536764.13843  -5078215.91242  24255129.136    24255127.840
  22581329.730   -13278717.39643 -10340284.79842  22581330.198    22581328.612
 04  1 21  0 51 30.0000000  0  9G30G29G26G21G10G 6G18G16G17
  22162795.757   -16329988.17043 -12694647.07142  22162797.708    22162795.380
  23307832.818   -11945309.95443  -9280323.01742  23307834.776    23307832.899
  23059790.586   -13642473.64043 -10509387.86642  23059792.604    23059791.119
  21377720.350   -23262881.59643 -18114425.80942  21377721.456    21377717.827
  22845503.494    -9786244.84843  -7614549.70642  22845504.358    22845502.580
  20326826.693   -28084093.06644 -21880298.38442  20326828.209    20326825.073
  22730201.644   -12084132.50843  -9403001.29042  22730203.188    22730200.790
  24240217.246    -6615117.90043  -5139270.68942  24240218.832    24240217.473
  22593570.851   -13214389.90043 -10290159.45542  22593571.281    22593569.712
 04  1 21  0 52  0.0000000  0  9G30G29G26G21G10G 6G18G16G17
  22180664.163   -16236088.86943 -12621478.82642  22180666.118    22180663.918
  23300260.275   -11985103.79243  -9311331.10942  23300262.244    23300260.331
  23045491.658   -13717614.89343 -10567939.42242  23045493.680    23045492.117
  21369760.807   -23304709.09943 -18147018.63642  21369761.915    21369758.298
  22863277.888    -9692839.82043  -7541766.56442  22863278.731    22863276.949
  20325134.118   -28092987.60144 -21887229.17042  20325135.615    20325132.463
  22711749.994   -12181096.14643  -9478557.26642  22711751.543    22711749.229
  24225376.603    -6693105.46043  -5200040.10542  24225378.262    24225376.926
  22605827.381   -13149981.15943 -10239970.80142  22605827.841    22605826.257
 04  1 21  0 52 30.0000000  0  9G30G29G26G21G10G 6G18G16G17
  22198581.141   -16141935.04543 -12548112.21642  22198583.058    22198580.724
  23292767.963   -12024475.46943  -9342010.23942  23292769.953    23292768.041
  23031253.782   -13792435.16443 -10626240.86742  23031255.815    23031254.222
  21361842.356   -23346320.63343 -18179443.17542  21361843.505    21361839.856
  22881106.378    -9599150.50343  -7468761.88142  22881107.187    22881105.405
  20323516.132   -28101490.07944 -21893854.46142  20323517.634    20323514.480
  22693347.428   -12277801.98343  -9553912.38442  22693348.981    22693346.538
  24210607.547    -6770717.45043  -5260516.87742  24210609.143    24210607.721
  22618100.574   -13085485.19643 -10189714.17242  22618100.969    22618099.423
 04  1 21  0 53  0.0000000  0  9G30G29G26G21G10G 6G18G16G17
  22216545.099   -16047533.62743 -12474552.70542  22216547.003    22216544.812
  23285355.698   -12063426.93943  -9372361.93842  23285357.652    23285355.695
  23017076.885   -13866935.09543 -10684292.68542  23017078.894    23017077.264
  21353964.134   -23387720.87243 -18211703.07142  21353965.283    21353961.618
  22898987.535    -9505184.17043  -7395541.35142  22898988.383    22898986.608
  20321972.183   -28109603.48844 -21900176.57842  20321973.701    20321970.523
  22674993.602   -12374251.54043  -9629067.77842  22674995.146    22674992.784
  24195909.504    -6847955.83243  -5320702.51942  24195911.092    24195909.652
  22630389.363   -13020906.78643 -10139393.31142  22630389.830    22630388.254
 04  1 21  0 53 30.0000000  0  9G30G29G26G21G10G 6G18G16G17
  22234555.799   -15952886.94143 -12400802.04642  22234557.703    22234555.458
  23278023.897   -12101955.18943  -9402383.83542  23278025.846    23278023.976
  23002961.729   -13941110.58743 -10742091.71042  23002963.710    23002962.092
  21346126.285   -23428908.88843 -18243797.59642  21346127.439    21346123.770
  22916921.063    -9410942.72543  -7322106.45342  22916921.956    22916920.126
  20320502.701   -28117325.60944 -21906193.79542  20320504.214    20320501.021
  22656689.127   -12470441.86043  -9704021.20642  22656690.669    22656688.187
  24181283.121    -6924817.27643  -5380594.45842  24181284.797    24181283.385
  22642693.964   -12956245.57743 -10089007.93342  22642694.427    22642692.852
 04  1 21  0 54  0.0000000  0  9G30G29G26G21G10G 6G18G16G17
  22252613.296   -15857994.29543 -12326859.74642  22252615.191    22252612.984
  23270773.704   -12140054.57343  -9432071.56042  23270775.714    23270773.767
  22988909.607   -14014954.51143 -10799632.36842  22988911.623    22988909.994
  21338329.460   -23469881.28143 -18275724.10142  21338330.616    21338326.951
  22934907.114    -9316425.45143  -7248456.61942  22934907.977    22934906.127
  20319108.530   -28124651.91344 -21911902.58642  20319110.069    20319106.858
  22638435.025   -12566367.05143  -9778768.00442  22638436.614    22638434.240
  24166729.709    -7001295.95843  -5440188.12542  24166731.304    24166729.801
  22655014.876   -12891498.52743 -10038555.66142  22655015.377    22655013.752
 04  1 21  0 54 30.0000000  0  9G30G29G26G21G10G 6G18G16G17
  22270715.962   -15762864.06143 -12252732.31542  22270717.850    22270715.704
  23263604.557   -12177728.27443  -9461427.59542  23263606.550    23263604.597
  22974920.283   -14088468.81243 -10856916.16942  22974922.318    22974920.569
  21330572.612   -23510643.59943 -18307486.91242  21330573.769    21330570.103
  22952944.058    -9221640.60843  -7174598.29242  22952944.912    22952943.088
  20317788.919   -28131586.45844 -21917306.11442  20317790.439    20317787.232
  22620230.782   -12662030.96543  -9853311.23842  22620232.324    22620229.895
  24152248.495    -7077394.96843  -5499485.95742  24152249.999    24152248.542
  22667350.932   -12826671.89143  -9988041.37042  22667351.467    22667349.815
 04  1 21  0 55  0.0000000  0  9G30G29G26G21G10G 6G18G16G17
  22288863.687   -15667497.39543 -12178420.63842  22288865.579    22288863.354
  23256517.193   -12214972.16543  -9490448.70642  23256519.194    23256517.262
  22960994.676   -14161648.13243 -10913938.95242  22960996.671    22960994.955
  21322856.024   -23551194.28743 -18339084.80942  21322857.215    21322853.533
  22971031.743    -9126589.21043  -7100532.24142  22971032.578    22971030.734
  20316544.446   -28138126.10144 -21922401.92542  20316545.978    20316542.769
  22602076.984   -12757429.16143  -9927647.40342  22602078.505    22602076.127
  24137840.318    -7153110.23443  -5558484.76542  24137841.802    24137840.282
  22679702.426   -12761764.32343  -9937464.02842  22679702.960    22679701.312
 04  1 21  0 55 30.0000000  0  9G30G29G26G21G10G 6G18G16G17
  22307055.719   -15571897.38343 -12103927.15942  22307057.632    22307055.546
  23249511.967   -12251784.34443  -9519133.40942  23249513.991    23249512.019
  22947133.457   -14234489.09343 -10970698.07242  22947135.455    22947133.736
  21315179.679   -23591533.62843 -18370518.01742  21315180.878    21315177.174
  22989169.524    -9031274.43743  -7026260.98342  22989170.364    22989168.537
  20315375.338   -28144269.69644 -21927189.12542  20315376.865    20315373.662
  22583974.211   -12852559.80443 -10001775.09342  22583975.715    22583973.319
  24123505.630    -7228439.32543  -5617182.66042  24123507.052    24123505.565
  22692069.192   -12696776.40043  -9886824.06142  22692069.727    22692068.081
 04  1 21  0 56  0.0000000  0  9G30G29G26G21G10G 6G18G16G17
  22325292.127   -15476064.73243 -12029252.36142  22325294.067    22325291.827
  23242589.768   -12288160.39343  -9547478.27242  23242591.728    23242589.821
  22933337.688   -14306986.14743 -11027189.21142  22933339.655    22933337.992
  21307543.920   -23631659.61543 -18401784.97942  21307545.139    21307541.410
  23007357.330    -8935696.61343  -6951784.74142  23007358.174    23007356.399
  20314282.265   -28150013.81144 -21931665.04442  20314283.786    20314280.570
  22565923.066   -12947418.82943 -10075691.14642  22565924.590    22565922.078
  24109245.216    -7303377.76543  -5675576.16142  24109246.636    24109245.128
  22704451.494   -12631706.89143  -9836120.52742  22704452.021    22704450.342
 04  1 21  0 56 30.0000000  0  9G30G29G26G21G10G 6G18G16G17
  22343571.030   -15380008.16743 -11954403.12942  22343572.931    22343570.888
  23235749.862   -12324103.88543  -9575486.08142  23235751.884    23235749.905
  22919606.886   -14379141.70243 -11083414.24542  22919608.828    22919607.163
  21299947.625   -23671578.29744 -18432890.39842  21299948.826    21299945.103
  23025593.627    -8839864.32343  -6877110.22242  23025594.445    23025592.650
  20313264.356   -28155362.84344 -21935833.10642  20313265.881    20313262.662
  22547922.950   -13042009.58043 -10149398.13042  22547924.487    22547922.034
  24095058.468    -7377929.24243  -5733668.13042  24095059.884    24095058.395
  22716848.156   -12566561.72143  -9785358.03442  22716848.745    22716847.018
 04  1 21  0 57  0.0000000  0 10G15G30G29G26G21G10G 6G18G16G17
  24732115.084    -5000127.86553  -3753575.56752  24732116.078    24732118.424
  22361891.491   -15283733.91943 -11879384.24242  22361893.412    22361891.260
  23228991.955   -12359616.01743  -9603157.76542  23228993.991    23228992.058
  22905941.108   -14450955.46243 -11139372.95442  22905943.074    22905941.376
  21292390.135   -23711292.98744 -18463836.86142  21292391.346    21292387.620
  23043877.193    -8743783.73543  -6802242.21842  23043877.948    23043876.155
  20312321.224   -28160318.94744 -21939694.99242  20312322.767    20312319.522
  22529973.715   -13136333.16443 -10222896.95542  22529975.233    22529972.673
  24080945.216    -7452094.50743  -5791459.15842  24080946.715    24080945.083
  22729258.453   -12501344.92943  -9734539.73242  22729259.071    22729257.349
 04  1 21  0 57 30.0000000  0 10G15G30G29G26G21G10G 6G18G16G17
  24716655.359    -5081368.71243  -3816879.92442  24716656.275    24716658.555
  22380255.859   -15187228.08143 -11804184.91342  22380257.821    22380255.716
  23222319.815   -12394677.99143  -9630478.67442  23222321.886    23222319.847
  22892344.176   -14522407.22743 -11195049.58042  22892346.155    22892344.455
  21284874.604   -23750787.18844 -18494611.51442  21284875.807    21284872.072
  23062210.600    -8647440.74743  -6727169.74142  23062211.401    23062209.610
  20311456.321   -28164864.10344 -21943236.66142  20311457.832    20311454.576
  22512078.819   -13230370.91443 -10296173.02842  22512080.330    22512077.859
  24066909.042    -7525854.63943  -5848934.50342  24066910.584    24066908.921
  22741685.549   -12436040.15343  -9683652.87042  22741686.144    22741684.404
 04  1 21  0 58  0.0000000  0 10G15G30G29G26G21G10G 6G18G16G17
  24701211.690    -5162525.01043  -3880118.45142  24701212.603    24701214.864
  22398662.364   -15090501.83243 -11728813.83042  22398664.316    22398662.219
  23215732.239   -12429295.73243  -9657453.44042  23215734.255    23215732.232
  22878815.332   -14593501.54643 -11250447.67642  22878817.324    22878815.620
  21277399.462   -23790069.19844 -18525220.82542  21277400.651    21277396.921
  23080591.863    -8550846.54543  -6651901.52242  23080592.648    23080590.943
  20310668.286   -28169005.21744 -21946463.49442  20310669.807    20310666.538
  22494237.259   -13324128.85543 -10369231.09142  22494238.781    22494236.181
  24052948.933    -7599215.33443  -5906098.59842  24052950.386    24052948.697
  22754127.713   -12370656.10343  -9632704.23142  22754128.309    22754126.523
 04  1 21  0 58 30.0000000  0 10G15G30G29G26G21G10G 6G18G16G17
  24685783.685    -5243598.99943  -3943292.84842  24685784.738    24685786.735
  22417109.606   -14993560.36843 -11653275.04842  22417111.586    22417109.475
  23209229.179   -12463469.41043  -9684082.18242  23209231.172    23209229.036
  22865354.697   -14664237.40243 -11305566.45642  22865356.645    22865354.970
  21269964.232   -23829141.46644 -18555666.69842  21269965.413    21269961.653
  23099020.016    -8454006.10243  -6576441.41442  23099020.739    23099019.043
  20309956.989   -28172743.19144 -21949376.18742  20309958.481    20309955.198
  22476448.778   -13417607.47643 -10442071.48542  22476450.285    22476447.701
  24039064.720    -7672176.76243  -5962951.58042  24039066.142    24039064.526
  22766584.353   -12305195.76743  -9581696.15842  22766584.980    22766583.172
 04  1 21  0 59  0.0000000  0 10G15G30G29G26G21G10G 6G18G16G17
  24670371.673    -5324588.90643  -4006401.74542  24670373.014    24670374.502
  22435597.762   -14896405.00943 -11577569.59542  22435599.703    22435597.646
  23202811.231   -12497195.62843  -9710362.26142  23202813.226    23202811.050
  22851963.254   -14734609.86543 -11360402.07142  22851965.167    22851963.492
  21262569.163   -23868002.62344 -18585948.07642  21262570.338    21262566.569
  23117494.789    -8356920.46743  -6500790.26242  23117495.494    23117493.797
  20309322.896   -28176075.24244 -21951972.57942  20309324.385    20309321.126
  22458714.234   -13510802.97943 -10514691.27542  22458715.734    22458713.111
  24025257.281    -7744734.96943  -6019490.35842  24025258.713    24025257.054
  22779055.774   -12239657.75643  -9530627.55642  22779056.448    22779054.612
 04  1 21  0 59 30.0000000  0 10G15G30G29G26G21G10G 6G18G16G17
  24654975.495    -5405495.82743  -4069445.97642  24654976.862    24654978.181
  22454125.641   -14799040.04343 -11501700.81042  22454127.558    22454125.495
  23196478.623   -12530473.45443  -9736292.93542  23196480.607    23196478.376
  22838641.362   -14804616.52943 -11414952.65042  22838643.285    22838641.558
  21255214.063   -23906653.86244 -18616065.87842  21255215.235    21255211.449
  23136015.487    -8259593.60243  -6424951.14342  23136016.172    23136014.475
  20308766.016   -28179001.59844 -21954252.84142  20308767.501    20308764.257
  22441033.665   -13603714.51843 -10587089.80042  22441035.160    22441032.525
  24011526.736    -7816889.12043  -6075714.29642  24011528.209    24011526.547
  22791541.703   -12174043.95643  -9479499.89542  22791542.304    22791540.463
 04  1 21  1  0  0.0000000  0 10G15G30G29G26G21G10G 6G18G16G17
  24639595.029    -5486319.84643  -4132425.58342  24639596.410    24639597.726
  22472693.003   -14701468.55843 -11425671.09742  22472694.863    22472692.772
  23190231.692   -12563300.98943  -9761872.73542  23190233.620    23190231.466
  22825389.628   -14874254.50743 -11469215.94842  22825391.550    22825389.812
  21247898.766   -23945095.83443 -18646020.61442  21247899.935    21247896.117
  23154581.484    -8162028.54943  -6348926.39842  23154582.195    23154580.485
  20308286.502   -28181521.30244 -21956216.23142  20308288.008    20308284.759
  22423407.586   -13696340.00243 -10659265.42442  22423409.082    22423406.456
  23997873.492    -7888636.97243  -6131621.63242  23997875.018    23997873.252
  22804041.848   -12108355.16543  -9428313.79842  22804042.482    22804040.546
 04  1 21  1  0 30.0000000  0 10G15G30G29G26G21G10G 6G18G16G17
  24624230.071    -5567062.57943  -4195341.83142  24624231.441    24624232.710
  22491298.598   -14603695.19943 -11349484.10742  22491300.503    22491298.462
  23184070.496   -12595677.93243  -9787101.43142  23184072.433    23184070.225
  22812208.415   -14943521.84643 -11523190.42442  22812210.372    22812208.656
  21240622.981   -23983330.21143 -18675813.58942  21240624.126    21240620.308
  23173191.926    -8064229.83243  -6272719.60342  23173192.693    23173190.928
  20307884.330   -28183634.78444 -21957863.08342  20307885.817    20307882.559
  22405836.031   -13788679.05743 -10731217.86842  22405837.518    22405834.728
  23984297.735    -7959977.90843  -6187211.89442  23984299.215    23984297.467
  22816555.907   -12042593.56243  -9377070.97142  22816556.459    22816554.582
 04  1 21  1  1  0.0000000  0 10G15G30G29G26G21G10G 6G18G16G17
  24608882.027    -5647716.57043  -4258188.93042  24608883.297    24608884.716
  22509943.500   -14505715.73043 -11273136.46542  22509945.437    22509943.258
  23177996.737   -12627595.25743  -9811971.99942  23177998.656    23177996.460
  22799099.687   -15012408.07343 -11576867.91842  22799101.648    22799099.981
  21233388.049   -24021349.88543 -18705439.26142  21233389.178    21233385.355
  23191847.733    -7966192.93243  -6196327.19242  23191848.510    23191846.711
  20307561.017   -28185333.63544 -21959186.84942  20307562.529    20307559.264
  22388320.586   -13880722.87243 -10802940.23042  22388322.089    22388319.375
  23970801.148    -8030902.51943  -6242477.74542  23970802.633    23970800.890
  22829085.017   -11976752.47643  -9325766.20042  22829085.574    22829083.719
 04  1 21  1  1 30.0000000  0 10G15G30G29G26G21G10G 6G18G16G17
  24593549.287    -5728289.68943  -4320973.03042  24593550.655    24593552.094
  22528625.517   -14407541.00443 -11196636.73142  22528627.443    22528625.427
  23172009.345   -12659058.85943  -9836489.00242  23172011.284    23172009.075
  22786062.647   -15080917.59343 -11630251.86942  22786064.640    22786063.025
  21226192.411   -24059163.04243 -18734904.01242  21226193.533    21226189.703
  23210546.782    -7867928.70743  -6119757.65342  23210547.574    23210545.732
  20307315.318   -28186624.66544 -21960192.82942  20307316.840    20307313.570
  22370860.373   -13972477.06743 -10874436.95342  22370861.837    22370858.957
  23957382.628    -8101416.73643  -6297423.81442  23957384.192    23957382.361
  22841627.675   -11910840.34443  -9274406.07942  22841628.226    22841626.345
 04  1 21  1  2  0.0000000  0 10G15G30G29G26G21G10G 6G18G16G17
  24578232.659    -5808778.36043  -4383691.31342  24578234.149    24578235.489
  22547344.861   -14309170.44243 -11119984.33142  22547346.755    22547344.622
  23166109.379   -12690062.90443  -9860647.91042  23166111.321    23166109.054
  22773098.580   -15149043.54343 -11683336.91442  22773100.597    22773099.035
  21219036.713   -24096766.34144 -18764205.23542  21219037.819    21219033.989
  23229289.285    -7769436.19943  -6043010.22242  23229290.079    23229288.220
  20307148.176   -28187502.98544 -21960877.21842  20307149.702    20307146.421
  22353456.287   -14063935.48843 -10945703.16442  22353457.801    22353454.996
  23944043.440    -8171514.56343  -6352045.42742  23944044.947    23944043.159
  22854184.443   -11844853.86743  -9222988.02642  22854184.996    22854183.104
 04  1 21  1  2 30.0000000  0 10G15G30G29G26G21G10G 6G18G16G17
  24562932.207    -5889181.83443  -4446343.21642  24562933.790    24562935.057
  22566100.940   -14210606.40343 -11043181.22742  22566102.827    22566100.831
  23160297.318   -12720605.15743  -9884446.98742  23160299.265    23160296.941
  22760208.307   -15216781.95443 -11736119.99442  22760210.418    22760208.754
  21211921.026   -24134159.27443 -18793342.54242  21211922.162    21211918.302
  23248074.872    -7670717.44243  -5966086.50642  23248075.640    23248073.744
  20307059.829   -28187967.06844 -21961238.82642  20307061.377    20307058.099
  22336108.960   -14155096.22643 -11016737.45442  22336110.455    22336107.513
  23930784.052    -8241193.30143  -6406340.47642  23930785.489    23930783.736
  22866755.386   -11778793.04043  -9171512.03442  22866755.949    22866754.066
 04  1 21  1  3  0.0000000  0 10G15G30G29G26G21G10G 6G18G16G17
  24547647.007    -5969505.59443  -4508933.00242  24547648.573    24547649.772
  22584892.308   -14111857.49943 -10966234.05442  22584894.167    22584892.204
  23154572.478   -12750689.48543  -9907889.24542  23154574.359    23154572.011
  22747391.236   -15284135.19843 -11788602.91942  22747393.403    22747391.800
  21204844.286   -24171347.57844 -18822320.39542  21204845.426    21204841.557
  23266901.792    -7571780.95343  -5888993.12142  23266902.593    23266900.755
  20307049.442   -28188021.52444 -21961281.24442  20307050.999    20307047.730
  22318817.471   -14245963.21143 -11087542.81242  22318818.959    22318816.105
  23917603.665    -8310456.56243  -6460311.77642  23917605.044    23917603.311
  22879339.343   -11712663.97443  -9119982.86842  22879339.903    22879338.021
 04  1 21  1  3 30.0000000  0 10G15G30G29G26G21G10G 6G18G16G17
  24532378.645    -6049740.65243  -4571453.66342  24532380.229    24532381.332
  22603719.958   -14012917.68643 -10889138.10642  22603721.836    22603719.747
  23148936.813   -12780304.80643  -9930966.04042  23148938.707    23148936.334
  22734649.836   -15351090.88943 -11840776.05142  22734652.056    22734650.452
  21197808.180   -24208322.33844 -18851131.85142  21197809.344    21197805.446
  23285771.401    -7472620.55443  -5811725.26442  23285772.169    23285770.313
  20307118.963   -28187656.15344 -21960996.53042  20307120.501    20307117.238
  22301583.988   -14336525.14143 -11158110.48842  22301585.495    22301582.579
  23904504.454    -8379293.07743  -6513950.54442  23904505.874    23904504.060
  22891937.872   -11646458.28543  -9068393.99642  22891938.391    22891936.530
 04  1 21  1  4  0.0000000  0 10G15G30G29G26G21G10G 6G18G16G17
  24517126.279    -6129892.01143  -4633909.10842  24517127.818    24517128.818
  22622582.374   -13913795.07943 -10811899.74542  22622584.258    22622582.304
  23143389.666   -12809454.68843  -9953680.15942  23143391.557    23143389.220
  22721983.847   -15417650.92743 -11892640.88442  22721986.060    22721984.400
  21190811.565   -24245089.61044 -18879781.63242  21190812.742    21190808.814
  23304682.060    -7373244.26943  -5734289.18842  23304682.839    23304680.984
  20307267.548   -28186875.25644 -21960388.02042  20307269.087    20307265.819
  22284408.073   -14426785.23143 -11228442.95842  22284409.548    22284406.643
  23891485.804    -8447706.02043  -6567259.26242  23891487.307    23891485.422
  22904549.921   -11580181.62143  -9016749.82342  22904550.436    22904548.501
 04  1 21  1  4 30.0000000  0 10G15G30G29G26G21G10G 6G18G16G17
  24501889.314    -6209962.39543  -4696301.45042  24501890.830    24501891.862
  22641478.441   -13814495.47243 -10734523.45242  22641480.351    22641478.334
  23137931.016   -12838139.68043  -9976032.02242  23137932.897    23137930.572
  22709393.191   -15483814.63043 -11944196.88042  22709395.354    22709393.685
  21183853.916   -24281652.08444 -18908271.82842  21183855.088    21183851.150
  23323632.732    -7273657.64343  -5656689.21342  23323633.499    23323631.674
  20307494.923   -28185680.38344 -21959456.93942  20307496.458    20307493.194
  22267289.350   -14516744.10343 -11298540.70442  22267290.852    22267287.933
  23878547.711    -8515695.85243  -6620238.26842  23878549.294    23878547.311
  22917174.836   -11513837.11843  -8965052.79342  22917175.338    22917173.422
 04  1 21  1  5  0.0000000  0 10G15G30G29G26G21G10G 6G18G16G17
  24486668.792    -6289946.10343  -4758626.25042  24486670.199    24486671.408
  22660408.758   -13715016.11643 -10657007.09742  22660410.681    22660408.662
  23132562.227   -12866352.60543  -9998016.05142  23132564.099    23132561.764
  22696879.657   -15549573.25343 -11995437.22942  22696881.789    22696880.098
  21176936.419   -24318003.62244 -18936597.65742  21176937.596    21176933.640
  23342624.020    -7173857.65743  -5578922.97642  23342624.807    23342622.990
  20307802.369   -28184064.77944 -21958198.01642  20307803.879    20307800.610
  22250229.454   -14606394.39543 -11368398.00742  22250230.913    22250228.025
  23865691.616    -8583254.83343  -6672881.55642  23865693.194    23865691.154
  22929813.674   -11447419.43743  -8913298.74142  22929814.160    22929812.273
 04  1 21  1  5 30.0000000  0 10G15G30G29G26G21G10G 6G18G16G17
  24471464.295    -6369845.50843  -4820885.37742  24471465.633    24471466.791
  22679372.197   -13615362.59043 -10579355.03742  22679374.119    22679372.163
  23127283.149   -12894094.17943 -10019632.78542  23127284.985    23127282.653
  22684443.341   -15614926.05843 -12046361.36542  22684445.434    22684443.702
  21170058.467   -24354147.34944 -18964761.55042  21170059.646    21170055.645
  23361654.975    -7073849.57643  -5500994.59842  23361655.734    23361653.928
  20308189.590   -28182029.89344 -21956612.37642  20308191.111    20308187.821
  22233228.153   -14695736.68943 -11438015.31142  22233229.572    22233226.672
  23852917.403    -8650383.46543  -6725189.49842  23852918.898    23852916.920
  22942465.826   -11380931.93043  -8861490.27242  22942466.245    22942464.444
 04  1 21  1  6  0.0000000  0 10G15G30G29G26G21G10G 6G18G16G17
  24456276.136    -6449659.48843  -4883077.93942  24456277.398    24456278.583
  22698368.381   -13515536.82243 -10501568.72042  22698370.322    22698368.274
  23122094.242   -12921361.57143 -10040880.02842  23122096.140    23122093.749
  22672085.113   -15679868.66143 -12096965.86342  22672087.174    22672085.408
  21163220.208   -24390082.45144 -18992762.88442  21163221.385    21163217.370
  23380725.091    -6973635.09543  -5422905.38542  23380725.879    23380724.097
  20308656.992   -28179573.68644 -21954698.43342  20308658.503    20308655.199
  22216285.927   -14784768.11343 -11507390.37042  22216287.377    22216284.535
  23840225.692    -8717078.56443  -6777159.62342  23840227.178    23840225.182
  22955131.463   -11314373.67243  -8809626.68042  22955131.813    22955130.007
 04  1 21  1  6 30.0000000  0 10G15G30G29G26G21G10G 6G18G16G17
  24441103.634    -6529390.91043  -4945206.18042  24441104.877    24441106.022
  22717396.325   -13415544.58643 -10423652.73242  22717398.226    22717396.264
  23116995.363   -12948155.73043 -10061758.51742  23116997.299    23116994.855
  22659804.994   -15744400.77043 -12147250.49342  22659807.090    22659805.226
  21156421.048   -24425812.04744 -19020604.08242  21156422.243    21156418.211
  23399833.437    -6873220.00343  -5344659.85342  23399834.229    23399832.426
  20309204.181   -28176698.15644 -21952457.74642  20309205.685    20309202.381
  22199402.757   -14873489.67943 -11576523.99442  22199404.181    22199401.308
  23827616.272    -8783340.94343  -6828792.56342  23827617.816    23827615.768
  22967809.801   -11247748.14543  -8757710.65942  22967810.211    22967808.412
 04  1 21  1  7  0.0000000  0 10G15G30G29G26G21G10G 6G18G16G17
  24425947.416    -6609036.73843  -5007267.72042  24425948.731    24425949.781
  22736455.849   -13315386.25543 -10345607.29442  22736457.781    22736455.747
  23111987.382   -12974472.36543 -10082264.91242  23111989.376    23111986.874
  22647604.125   -15808516.36843 -12197210.57642  22647606.218    22647604.321
  21149661.503   -24461333.51044 -19048283.10542  21149662.702    21149658.657
  23418979.982    -6772604.06143  -5266257.81442  23418980.749    23418978.994
  20309831.890   -28173399.50244 -21949887.35442  20309833.388    20309830.079
  22182579.409   -14961896.47143 -11645412.33142  22182580.822    22182578.018
  23815090.213    -8849166.02443  -6880084.75442  23815091.658    23815089.583
  22980501.443   -11181053.02143  -8705740.41942  22980501.853    22980500.021
 04  1 21  1  7 30.0000000  0 10G15G30G29G26G21G10G 6G18G16G17
  24410807.581    -6688596.76243  -5069262.35042  24410808.849    24410809.896
  22755546.437   -13215064.51343 -10267434.52842  22755548.381    22755546.340
  23107070.681   -13000309.51143 -10102397.66842  23107072.656    23107070.120
  22635483.187   -15872211.88143 -12246843.32642  22635485.269    22635483.358
  21142941.588   -24496646.71244 -19075799.84242  21142942.784    21142938.736
  23438164.231    -6671789.80643  -5187701.23842  23438165.007    23438163.262
  20310540.357   -28169676.45244 -21946986.26042  20310541.867    20310538.545
  22165816.388   -15049986.30043 -11714053.67942  22165817.821    22165815.026
  23802647.669    -8914551.44443  -6931034.35142  23802649.138    23802647.072
  22993206.316   -11114288.55643  -8653716.14042  22993206.666    22993204.867
 04  1 21  1  8  0.0000000  0 10G15G30G29G26G21G10G 6G18G16G17
  24395683.576    -6768073.65643  -5131192.23742  24395684.767    24395685.701
  22774667.140   -13114584.92843 -10189138.78442  22774669.083    22774667.049
  23102245.137   -13025667.96643 -10122157.42942  23102247.082    23102244.462
  22623442.277   -15935486.97343 -12296148.46942  22623444.421    22623442.423
  21136260.759   -24531754.49744 -19103156.51042  21136261.953    21136257.911
  23457385.200    -6570782.69443  -5108994.39442  23457386.038    23457384.246
  20311329.259   -28165530.75644 -21943755.82742  20311330.742    20311327.428
  22149113.602   -15137759.78443 -11782448.53842  22149115.023    22149112.247
  23790288.704    -8979497.70243  -6981641.75242  23790290.192    23790288.132
  23005923.738   -11047457.92943  -8601640.31742  23005924.087    23005922.304
 04  1 21  1  8 30.0000000  0 10G15G30G29G26G21G10G 6G18G16G17
  24380575.803    -6847465.02143  -5193055.48242  24380576.941    24380577.675
  22793817.651   -13013948.11243 -10110720.50942  22793819.614    22793817.507
  23097511.324   -13050543.99643 -10141541.25642  23097513.287    23097510.631
  22611482.399   -15998335.92843 -12345121.56542  22611484.602    22611482.525
  21129619.357   -24566655.11444 -19130351.74842  21129620.552    21129616.472
  23476642.842    -6469583.14743  -5030137.59442  23476643.701    23476641.848
  20312199.237   -28160958.97044 -21940193.37642  20312200.719    20312197.397
  22132471.707   -15225213.04943 -11850593.86642  22132473.152    22132470.412
  23778014.213    -9044000.51543  -7031903.61342  23778015.684    23778013.564
  23018654.140   -10980558.98943  -8549511.24642  23018654.546    23018652.734
 04  1 21  1  9  0.0000000  0 10G15G30G29G26G21G10G 6G18G16G17
  24365484.158    -6926771.46443  -5254852.56442  24365485.273    24365485.933
  22812997.500   -12913157.85643 -10032182.66642  22812999.464    22812997.291
  23092869.566   -13074936.38643 -10160548.23942  23092871.562    23092868.801
  22599604.081   -16060756.27143 -12393760.66742  22599606.287    22599604.227
  21123017.294   -24601348.95644 -19157385.86242  21123018.489    21123014.410
  23495936.454    -6368194.51643  -4951133.45242  23495937.344    23495935.466
  20313150.312   -28155960.82844 -21936298.70442  20313151.823    20313148.491
  22115891.017   -15312344.96543 -11918488.80342  22115892.466    22115889.699
  23765824.341    -9108058.47243  -7081818.83542  23765825.759    23765823.724
  23031397.309   -10913593.02043  -8497329.95942  23031397.755    23031395.903
 04  1 21  1  9 30.0000000  0 10G15G30G29G26G21G10G 6G18G16G17
  24350408.579    -7005993.54043  -5316583.91442  24350409.742    24350410.188
  22832205.847   -12812217.49343  -9953527.88142  22832207.760    22832205.687
  23088320.027   -13098844.28543 -10179177.68742  23088321.976    23088319.250
  22587807.934   -16122745.37943 -12442063.76842  22587810.093    22587807.971
  21116454.477   -24635836.74644 -19184259.41942  21116455.640    21116451.553
  23515265.442    -6266620.14543  -4871984.59042  23515266.285    23515264.466
  20314182.616   -28150536.05744 -21932071.59042  20314184.117    20314180.773
  22099371.681   -15399154.48143 -11986132.51142  22099373.115    22099370.321
  23753719.352    -9171670.28043  -7131386.40842  23753720.774    23753718.754
  23044153.032   -10846560.88743  -8445097.11542  23044153.525    23044151.634
 04  1 21  1 10  0.0000000  0 10G15G30G29G26G21G10G 6G18G16G17
  24335349.369    -7085129.36343  -5378248.03542  24335350.496    24335351.078
  22851442.507   -12711128.40843  -9874757.16842  22851444.417    22851442.257
  23083863.338   -13122264.13043 -10197426.83442  23083865.270    23083862.529
  22576094.692   -16184298.32143 -12490026.99442  22576096.893    22576094.688
  21109931.079   -24670117.22044 -19210971.43042  21109932.232    21109928.160
  23534629.558    -6164860.92943  -4792691.67542  23534630.401    23534628.507
  20315296.642   -28144681.75044 -21927509.77742  20315298.143    20315294.795
  22082914.473   -15485637.59043 -12053521.88842  22082915.875    22082913.055
  23741699.995    -9234832.16143  -7180603.39542  23741701.400    23741699.334
  23056921.612   -10779461.19243  -8392811.61442  23056922.162    23056920.247
 04  1 21  1 10 30.0000000  0 10G15G30G29G26G21G10G 6G18G16G17
  24320306.876    -7164177.75243  -5439844.01042  24320307.862    24320308.619
  22870707.139   -12609892.25943  -9795871.89042  22870709.034    22870706.902
  23079500.006   -13145193.36143 -10215293.70242  23079501.911    23079499.162
  22564465.279   -16245410.64843 -12537646.87542  22564467.495    22564465.299
  21103447.372   -24704189.11544 -19237520.91342  21103448.525    21103444.454
  23554028.575    -6062918.22043  -4713255.79242  23554029.413    23554027.618
  20316492.790   -28138395.96044 -21922611.74442  20316494.265    20316490.930
  22066519.998   -15571791.08343 -12120654.42242  22066521.402    22066518.539
  23729766.923    -9297540.88243  -7229467.27142  23729768.283    23729766.234
  23069703.160   -10712293.60643  -8340473.21942  23069703.779    23069701.763
 04  1 21  1 11  0.0000000  0 10G15G30G29G26G21G10G 6G18G16G17
  24305279.012    -7243149.05243  -5501379.90742  24305279.983    24305280.853
  22889997.212   -12508522.53643  -9716882.52942  22889999.075    22889996.957
  23075228.377   -13167640.63043 -10232785.01342  23075230.294    23075227.521
  22552918.323   -16306090.02343 -12584929.40342  22552920.477    22552918.264
  21097001.389   -24738062.86544 -19263915.99942  21097002.523    21096998.459
  23573460.052    -5960805.28543  -4633687.26542  23573460.799    23573458.993
  20317769.230   -28131688.13644 -21917384.85042  20317770.720    20317767.370
  22050186.485   -15657623.92943 -12187537.09942  22050187.891    22050185.004
  23717918.436    -9359805.10343  -7277984.78042  23717919.711    23717917.683
  23082495.641   -10645068.38943  -8288089.91642  23082496.305    23082494.277
 04  1 21  1 11 30.0000000  0 10G15G30G29G26G21G10G 6G18G16G17
  24290268.455    -7322029.64143  -5562845.13842  24290269.325    24290270.232
  22909314.641   -12407008.53243  -9637780.73242  22909316.557    22909314.426
  23071051.338   -13189590.77243 -10249888.95142  23071053.257    23071050.460
  22541456.987   -16366319.34543 -12631861.24442  22541459.128    22541456.871
  21090595.596   -24771725.37544 -19290146.48742  21090596.711    21090592.678
  23592925.934    -5858511.18843  -4553977.55942  23592926.703    23592924.888
  20319128.734   -28124543.81244 -21911817.83142  20319130.218    20319126.856
  22033916.950   -15743120.67643 -12254157.88142  22033918.354    22033915.469
  23706157.380    -9421609.28143  -7326143.82142  23706158.721    23706156.659
  23095301.627   -10577772.50043  -8235651.53842  23095302.288    23095300.269
 04  1 21  1 12  0.0000000  0 10G15G30G29G26G21G10G 6G18G16G17
  24275274.099    -7400824.87643  -5624243.87842  24275274.968    24275275.678
  22928657.988   -12305358.64843  -9558573.05842  22928659.894    22928657.848
  23066968.109   -13211047.88943 -10266608.70742  23066970.042    23066967.220
  22530080.801   -16426101.15543 -12678444.36842  22530082.895    22530080.700
  21084228.956   -24805182.12444 -19316216.63942  21084230.072    21084226.022
  23612424.792    -5756043.91843  -4474132.91542  23612425.540    23612423.807
  20320570.438   -28116967.52644 -21905914.21642  20320571.918    20320568.579
  22017710.756   -15828284.64543 -12320519.36342  22017712.163    22017709.239
  23694483.319    -9482956.73543  -7373946.97642  23694484.634    23694482.579
  23108119.931   -10510411.71743  -8183162.59542  23108120.631    23108118.551
 04  1 21  1 12 30.0000000  0 10G15G30G29G26G21G10G 6G18G16G17
  24260296.486    -7479531.98443  -5685573.93442  24260297.420    24260298.067
  22948027.137   -12203573.10443  -9479259.67242  22948029.028    22948026.988
  23062979.581   -13232007.53643 -10282940.84042  23062981.498    23062978.640
  22518790.922   -16485429.46743 -12724674.12642  22518793.014    22518790.788
  21077901.956   -24838430.55644 -19342124.46742  21077903.074    21077899.002
  23631956.555    -5653403.60443  -4394153.44042  23631957.302    23631955.594
  20322095.029   -28108955.65444 -21899671.18542  20322096.526    20322093.167
  22001568.704   -15913111.44743 -12386618.10742  22001570.091    22001567.203
  23682897.018    -9543842.72443  -7421390.54642  23682898.372    23682896.250
  23120951.042   -10442983.68743  -8130621.25942  23120951.732    23120949.630
 04  1 21  1 13  0.0000000  0 10G15G30G29G26G21G10G 6G18G16G17
  24245332.968    -7558165.41443  -5746846.58542  24245333.896    24245334.483
  22967418.815   -12101669.28743  -9399854.11242  22967420.701    22967418.622
  23059083.277   -13252482.53143 -10298895.32842  23059085.186    23059082.309
  22507585.222   -16544315.62943 -12770559.35142  22507587.323    22507585.020
  21071611.790   -24871485.34144 -19367881.39942  21071612.913    21071608.836
  23651518.060    -5550607.21143  -4314052.33742  23651518.858    23651517.060
  20323699.927   -28100521.78244 -21893099.31942  20323701.438    20323698.076
  21985488.504   -15997613.38643 -12452463.72242  21985489.888    21985486.955
  23671396.100    -9604280.15743  -7468484.58842  23671397.476    23671395.326
  23133792.074   -10375503.21943  -8078039.05242  23133792.781    23133790.754
 04  1 21  1 13 30.0000000  0 10G15G30G29G26G21G10G 6G18G16G17
  24230386.807    -7636707.33243  -5808047.92042  24230387.845    24230388.417
  22986835.785   -11999632.42943  -9320344.91642  22986837.711    22986835.688
  23055282.774   -13272454.04943 -10314457.48542  23055284.687    23055281.799
  22496467.555   -16602738.89543 -12816083.88742  22496469.684    22496467.329
  21065361.824   -24904328.93344 -19393473.77042  21065362.964    21065358.866
  23671112.091    -5447639.67543  -4233817.87642  23671112.909    23671111.188
  20325388.659   -28091647.31144 -21886184.13042  20325390.174    20325386.806
  21969473.706   -16081771.63343 -12518041.52142  21969475.090    21969472.139
  23659984.285    -9664249.27243  -7515213.69942  23659985.681    23659983.558
  23146646.394   -10307953.16043  -8025402.62342  23146647.134    23146645.116
 04  1 21  1 14  0.0000000  0 10G15G30G29G26G21G10G 6G18G16G17
  24215457.111    -7715163.10343  -5869182.13942  24215458.089    24215458.652
  23006276.445   -11897470.97443  -9240738.60142  23006278.353    23006276.361
  23051577.339   -13291926.07843 -10329630.44042  23051579.255    23051576.340
  22485437.530   -16660701.70543 -12861249.60742  22485439.651    22485437.296
  21059151.019   -24936966.79244 -19418905.82642  21059152.141    21059148.045
  23690737.104    -5344509.29443  -4153456.53042  23690737.961    23690736.266
  20327160.332   -28082337.06244 -21878929.37442  20327161.836    20327158.476
  21953523.606   -16165589.73943 -12583354.27442  21953524.991    21953522.018
  23648660.916    -9723753.86043  -7561580.86442  23648662.260    23648660.141
  23159512.877   -10240339.16543  -7972716.36242  23159513.641    23159511.651
 04  1 21  1 14 30.0000000  0 10G15G30G29G26G21G10G 6G18G16G17
  24200543.875    -7793532.09643  -5930248.75142  24200544.832    24200545.456
  23025740.455   -11795187.31643  -9161037.07642  23025742.314    23025740.367
  23047967.321   -13310896.46043 -10344412.49342  23047969.241    23047966.347
  22474495.836   -16718200.56143 -12906053.83042  22474497.919    22474495.473
  21052979.458   -24969398.34844 -19444177.12642  21052980.576    21052976.480
  23710392.823    -5241217.87043  -4072969.69942  23710393.677    23710391.966
  20329015.218   -28072589.42444 -21871333.79442  20329016.729    20329013.381
  21937638.722   -16249064.96843 -12648399.84642  21937640.138    21937637.157
  23637426.414    -9782791.38843  -7607584.07442  23637427.744    23637425.612
  23172391.540   -10172661.06443  -7919980.15942  23172392.355    23172390.357
 04  1 21  1 15  0.0000000  0 10G15G30G29G26G21G10G 6G18G16G17
  24185647.082    -7871814.58843  -5991247.97242  24185648.059    24185648.555
  23045227.056   -11692784.71643  -9081242.88342  23045228.913    23045226.972
  23044452.935   -13329364.31743 -10358802.96842  23044454.843    23044451.976
  22463642.894   -16775232.60843 -12950494.28442  22463644.996    22463642.586
  21046847.065   -25001624.09544 -19469288.05542  21046848.205    21046844.073
  23730078.562    -5137768.52043  -3992359.79442  23730079.437    23730077.709
  20330953.459   -28062403.92844 -21863397.03142  20330954.943    20330951.608
  21921819.302   -16332196.44643 -12713177.56442  21921820.704    21921817.701
  23626281.067    -9841360.25743  -7653222.09242  23626282.440    23626280.306
  23185282.290   -10104919.58243  -7867194.56942  23185283.139    23185281.128
 04  1 21  1 15 30.0000000  0 10G15G30G29G26G21G10G 6G18G16G17
  24170766.246    -7950013.07243  -6052181.72042  24170767.258    24170767.669
  23064735.135   -11590268.94943  -9001360.47042  23064737.055    23064734.988
  23041034.043   -13347330.79343 -10372802.76642  23041035.911    23041033.001
  22452878.929   -16831797.67343 -12994570.87542  22452881.011    22452878.497
  21040753.147   -25033647.63244 -19494241.41842  21040754.290    21040750.153
  23749793.328    -5034166.50943  -3911630.95242  23749794.241    23749792.436
  20332974.616   -28051782.60244 -21855120.65742  20332976.113    20332972.766
  21906065.221   -16414984.47143 -12777687.65542  21906066.635    21906063.601
  23615224.728    -9899461.66643  -7698495.86142  23615226.082    23615223.910
  23198184.517   -10037117.75743  -7814361.95542  23198185.347    23198183.411
 04  1 21  1 16  0.0000000  0 10G15G30G29G26G21G10G 6G18G16G17
  24155901.791    -8028125.57043  -6113048.45142  24155902.742    24155903.292
  23084264.758   -11487640.52043  -8921390.28742  23084266.619    23084264.631
  23037711.149   -13364792.48343 -10386409.21542  23037713.007    23037710.089
  22442204.710   -16887890.53343 -13038279.50742  22442206.829    22442204.302
  21034698.220   -25065466.36444 -19519035.19642  21034699.350    21034695.189
  23769537.124    -4930412.40543  -3830783.59242  23769538.004    23769536.181
  20335079.315   -28040722.45644 -21846502.34742  20335080.786    20335077.421
  21890377.118   -16497425.68243 -12841927.50142  21890378.538    21890375.524
  23604258.133    -9957091.30143  -7743402.00642  23604259.527    23604257.270
  23211098.623    -9969253.57943  -7761480.77042  23211099.485    23211097.486
 04  1 21  1 16 30.0000000  0 10G15G30G29G26G21G10G 6G18G16G17
  24141053.709    -8106152.13843  -6173848.23342  24141054.675    24141055.342
  23103815.086   -11384902.67643  -8841334.86642  23103817.003    23103815.064
  23034484.617   -13381748.11543 -10399621.34842  23034486.421    23034483.464
  22431620.929   -16943508.40643 -13081618.02042  22431623.029    22431620.494
  21028682.198   -25097080.64944 -19543669.66242  21028683.340    21028679.146
  23789309.317    -4826508.81643  -3749819.74442  23789310.173    23789308.443
  20337267.621   -28029222.75444 -21837541.52442  20337269.095    20337265.722
  21874755.271   -16579518.60943 -12905895.95642  21874756.715    21874753.682
  23593381.557   -10014247.75543  -7787939.43042  23593382.971    23593380.699
  23224024.517    -9901327.72243  -7708551.51242  23224025.316    23224023.309
 04  1 21  1 17  0.0000000  0 10G15G30G29G26G21G10G 6G18G16G17
  24126222.084    -8184092.02243  -6234580.49442  24126223.089    24126223.740
  23123385.833   -11282057.46843  -8761195.76142  23123387.720    23123385.824
  23031354.784   -13398195.46643 -10412437.42542  23031356.620    23031353.575
  22421128.268   -16998647.40243 -13124583.38842  22421130.382    22421127.805
  21022705.190   -25128489.84244 -19568144.31442  21022706.349    21022702.143
  23809109.625    -4722457.75843  -3668740.99142  23809110.437    23809108.676
  20339539.857   -28017282.04244 -21828237.06042  20339541.328    20339537.956
  21859200.211   -16661260.63843 -12969590.97942  21859201.652    21859198.639
  23582595.566   -10070928.25843  -7832105.99942  23582596.972    23582594.661
  23236962.195    -9833339.74243  -7655573.85442  23236963.021    23236960.984
 04  1 21  1 17 30.0000000  0 10G15G30G29G26G21G10G 6G18G16G17
  24111406.710    -8261947.20243  -6295246.77542  24111407.747    24111408.196
  23142976.117   -11179109.97143  -8680976.96342  23142978.023    23142976.135
  23028321.478   -13414135.50743 -10424858.17042  23028323.269    23028320.236
  22410726.901   -17053306.71443 -13167174.98342  22410728.950    22410726.369
  21016766.737   -25159696.38844 -19592461.06142  21016767.889    21016763.678
  23828937.108    -4618263.72443  -3587550.84042  23828937.865    23828936.133
  20341895.761   -28004901.63044 -21818589.97042  20341897.235    20341893.862
  21843711.897   -16742652.08943 -13033012.83242  21843713.320    21843710.294
  23571900.029   -10127133.31843  -7875902.08642  23571901.422    23571899.155
  23249911.271    -9765292.02343  -7602549.64542  23249912.035    23249910.019
 04  1 21  1 18  0.0000000  0 10G15G30G29G26G21G10G 6G18G16G17
  24096607.508    -8339717.26143  -6355846.68642  24096608.442    24096608.940
  23162585.380   -11076062.83443  -8600680.51442  23162587.239    23162585.391
  23025385.068   -13429566.45043 -10436882.24942  23025386.822    23025383.772
  22400417.428   -17107483.07843 -13209390.25242  22400419.462    22400416.856
  21010867.007   -25190699.62844 -19616619.38742  21010868.145    21010863.926
  23848791.367    -4513929.07943  -3506251.11142  23848792.083    23848790.363
  20344335.563   -27992080.29144 -21808599.30042  20344337.041    20344333.651
  21828290.733   -16823690.69643 -13096159.73242  21828292.132    21828289.140
  23561295.390   -10182860.88743  -7919326.09442  23561296.765    23561294.457
  23262871.775    -9697184.26243  -7549478.64642  23262872.540    23262870.466
 04  1 21  1 18 30.0000000  0 10G15G30G29G26G21G10G 6G18G16G17
  24081824.763    -8417400.39043  -6416378.86042  24081825.661    24081826.224
  23182213.318   -10972917.15343  -8520307.27542  23182215.224    23182213.342
  23022545.926   -13444485.40443 -10448507.35742  23022547.773    23022544.707
  22390200.686   -17161171.91943 -13251225.62642  22390202.733    22390200.120
  21005006.207   -25221498.32344 -19640618.33342  21005007.329    21005003.082
  23868672.208    -4409454.53043  -3424842.37742  23868672.921    23868671.233
  20346859.724   -27978815.71344 -21798263.25442  20346861.189    20346857.805
  21812937.244   -16904373.44843 -13159029.35242  21812938.663    21812935.642
  23550782.230   -10238107.32143  -7962375.20242  23550783.632    23550781.400
  23275843.920    -9629015.01643  -7496359.74742  23275844.716    23275842.586
 04  1 21  1 19  0.0000000  0 10G15G30G29G26G21G10G 6G18G16G17
  24067058.656    -8494996.39743  -6476843.15142  24067059.597    24067060.112
  23201859.512   -10869675.53443  -8439859.30142  23201861.448    23201859.646
  23019804.617   -13458890.80543 -10459732.29242  23019806.448    23019803.391
  22380077.376   -17214369.96343 -13292678.56542  22380079.426    22380076.820
  20999184.398   -25252092.00444 -19664457.52442  20999185.511    20999181.258
  23888579.180    -4304842.60743  -3343326.59242  23888579.896    23888578.210
  20349468.414   -27965106.94044 -21787581.07842  20349469.872    20349466.480
  21797651.844   -16984698.22143 -13221620.02042  21797653.294    21797650.340
  23540361.092   -10292870.56343  -8005047.77942  23540362.544    23540360.217
  23288827.715    -9560784.70243  -7443193.25342  23288828.461    23288826.370
 04  1 21  1 19 30.0000000  0 10G15G30G29G26G21G10G 6G18G16G17
  24052308.302    -8572509.75243  -6537243.08542  24052309.225    24052309.677
  23221522.609   -10766345.49243  -8359342.40942  23221524.497    23221522.744
  23017160.348   -13472786.27043 -10470559.87442  23017162.185    23017159.127
  22370047.134   -17267078.93143 -13333750.41442  22370049.195    22370046.531
  20993400.614   -25282485.81644 -19688140.97542  20993401.733    20993397.475
  23908510.975    -4200100.27243  -3261709.19842  23908511.665    23908509.988
  20352160.839   -27950957.89244 -21776555.83242  20352162.340    20352158.951
  21782434.092   -17064667.76743 -13283933.89542  21782435.558    21782432.548
  23530031.228   -10347153.91643  -8047346.43642  23530032.705    23530030.336
  23301822.244    -9492497.88543  -7389982.72442  23301823.017    23301820.844
 04  1 21  1 20  0.0000000  0 10G15G30G29G26G21G10G 6G18G16G17
  24037574.825    -8649933.80543  -6597573.38442  24037575.755    24037576.347
  23241203.143   -10662923.49343  -8278753.85242  23241205.087    23241203.278
  23014614.665   -13486163.77243 -10480983.85942  23014616.463    23014613.451
  22360111.713   -17319289.51143 -13374433.90142  22360113.763    22360111.099
  20987656.191   -25312672.81944 -19711663.27642  20987657.297    20987653.030
  23928468.226    -4095223.68443  -3179987.18242  23928468.998    23928467.412
  20354938.477   -27936361.32444 -21765181.87242  20354939.962    20354936.566
  21767285.480   -17144274.06043 -13345964.70742  21767286.917    21767283.939
  23519794.376   -10400948.85143  -8089264.49342  23519795.732    23519793.450
  23314828.685    -9424148.55143  -7336723.48842  23314829.425    23314827.304
 04  1 21  1 20 30.0000000  0 10G15G30G29G26G21G10G 6G18G16G17
  24022857.288    -8727274.56843  -6657838.79042  24022858.236    24022858.723
  23260899.494   -10559418.37343  -8198100.55142  23260901.460    23260899.723
  23012166.570   -13499028.40143 -10491008.17542  23012168.374    23012165.350
  22350270.566   -17371004.79943 -13414731.45542  22350272.607    22350269.904
  20981949.904   -25342659.46644 -19735029.45942  20981951.005    20981946.714
  23948449.484    -3990221.25743  -3098167.10942  23948450.338    23948448.729
  20357800.218   -27921322.67544 -21753463.43342  20357801.712    20357798.313
  21752205.112   -17223521.68043 -13407716.03842  21752206.542    21752203.547
  23509649.528   -10454259.88843  -8130805.49342  23509650.909    23509648.652
  23327845.865    -9355742.91543  -7283420.37942  23327846.568    23327844.407
 04  1 21  1 21  0.0000000  0 10G15G30G29G26G21G10G 6G18G16G17
  24008156.159    -8804529.07743  -6718036.98142  24008157.171    24008157.588
  23280611.743   -10455830.15243  -8117382.48542  23280613.672    23280611.984
  23009816.912   -13511375.78543 -10500629.46742  23009818.720    23009815.599
  22340524.815   -17422219.04943 -13454638.58942  22340526.822    22340524.083
  20976282.247   -25372442.96444 -19758237.34142  20976283.375    20976279.051
  23968454.821    -3885092.91743  -3016248.92942  23968455.521    23968453.946
  20360746.790   -27905838.28244 -21741397.66042  20360748.291    20360744.885
  21737193.859   -17302406.18743 -13469184.42242  21737195.276    21737192.283
  23499597.604   -10507082.51843  -8171965.91642  23499599.058    23499596.717
  23340874.245    -9287278.31643  -7230071.32742  23340874.930    23340872.767
 04  1 21  1 21 30.0000000  0 10G15G30G29G26G21G10G 6G18G16G17
  23993471.997    -8881694.28243  -6778165.58542  23993472.980    23993473.367
  23300339.839   -10352158.64943  -8036599.50642  23300341.767    23300339.988
  23007566.462   -13523201.92543 -10509844.58642  23007568.265    23007565.105
  22330875.406   -17472926.35143 -13494150.68842  22330877.477    22330874.771
  20970653.753   -25402020.78644 -19781284.95642  20970654.893    20970650.545
  23988484.162    -3779837.81043  -2934231.97242  23988484.962    23988483.346
  20363778.912   -27889904.30344 -21728981.56342  20363780.411    20363777.022
  21722252.580   -17380922.91743 -13530366.23542  21722253.991    21722250.993
  23489639.587   -10559411.98743  -8212742.05442  23489640.948    23489638.718
  23353914.376    -9218751.78643  -7176674.02042  23353915.134    23353912.888
 04  1 21  1 22  0.0000000  0 10G15G30G29G26G21G10G 6G18G16G17
  23978803.326    -8958778.11043  -6838230.79742  23978804.304    23978804.613
  23320081.717   -10248414.56743  -7955759.99942  23320083.643    23320081.918
  23005413.887   -13534513.70043 -10518658.91142  23005415.647    23005412.470
  22321321.584   -17523131.82443 -13533271.76342  22321323.596    22321320.880
  20965062.916   -25431400.69944 -19804178.36142  20965064.055    20965059.695
  24008535.756    -3674466.29543  -2852124.30942  24008536.551    24008534.893
  20366895.198   -27873528.06244 -21716220.84042  20366896.698    20366893.300
  21707380.132   -17459077.96843 -13591266.20942  21707381.534    21707378.539
  23479774.200   -10611254.45243  -8253138.71442  23479775.579    23479773.374
  23366964.710    -9150171.64143  -7123234.92442  23366965.472    23366963.212
 04  1 21  1 22 30.0000000  0 11G15G30G29G26G21G22G10G 6G18G16G17
  23964150.987    -9035776.40043  -6898229.37142  23964151.940    23964152.219
  23339837.564   -10144596.71943  -7874863.01942  23339839.489    23339837.852
  23003360.103   -13545305.75843 -10527068.25442  23003361.917    23003358.741
  22311864.572   -17572828.61243 -13571996.46542  22311866.569    22311863.793
  20959510.546   -25460578.51144 -19826914.28642  20959511.693    20959507.297
  24627392.822    -1068927.63153   -706419.80552  24627393.995    24627393.272
  24028609.689    -3568976.95443  -2769924.82142  24028610.407    24028608.900
  20370096.560   -27856704.78044 -21703111.77242  20370098.050    20370094.659
  21692577.634   -17536865.56443 -13651879.85942  21692579.029    21692576.002
  23470002.600   -10662604.18543  -8293151.41042  23470004.012    23470001.797
  23380026.032    -9081533.89443  -7069750.95342  23380026.799    23380024.562
 04  1 21  1 23  0.0000000  0 11G15G30G29G26G21G22G10G 6G18G16G17
  23949515.597    -9112685.40143  -6958158.34442  23949516.622    23949516.840
  23359607.704   -10040704.32743  -7793907.93842  23359609.614    23359607.951
  23001406.192   -13555573.44243 -10535069.00442  23001407.997    23001404.834
  22302505.519   -17622010.33943 -13610319.82342  22302507.477    22302504.759
  20953997.391   -25489550.28344 -19849489.66442  20953998.531    20953994.127
  24606986.775    -1176160.62543   -789977.65342  24606987.685    24606986.904
  24048706.234    -3463368.43743  -2687632.46742  24048707.077    24048705.511
  20373383.799   -27839430.24044 -21689651.08142  20373385.278    20373381.875
  21677846.074   -17614280.29543 -13712202.96242  21677847.484    21677844.398
  23460325.746   -10713456.22743  -8332776.31242  23460327.106    23460324.909
  23393098.950    -9012835.18843  -7016219.47642  23393099.718    23393097.434
 04  1 21  1 23 30.0000000  0 11G15G30G29G26G21G22G10G 6G18G16G17
  23934896.436    -9189508.58143  -7018020.41942  23934897.493    23934897.745
  23379390.748    -9936743.84943  -7712899.79142  23379392.681    23379390.958
  22999551.626   -13565319.21443 -10542663.06442  22999553.400    22999550.211
  22293244.452   -17670677.58843 -13648242.29142  22293246.364    22293243.603
  20948522.680   -25518320.00644 -19871907.60042  20948523.783    20948519.382
  24586603.615    -1283273.77543   -873442.19442  24586604.476    24586603.563
  24068824.370    -3357646.62743  -2605251.84242  24068825.251    24068823.687
  20376756.323   -27821707.40444 -21675841.06742  20376757.807    20376754.413
  21663185.101   -17691323.91043 -13772236.88542  21663186.539    21663183.446
  23450743.248   -10763812.36143  -8372014.77842  23450744.601    23450742.399
  23406182.781    -8944079.40543  -6962643.52142  23406183.446    23406181.226
 04  1 21  1 24  0.0000000  0 11G15G30G29G26G21G22G10G 6G18G16G17
  23920293.006    -9266249.80943  -7077818.68842  23920294.069    23920294.148
  23399185.524    -9832722.00143  -7631843.84442  23399187.393    23399185.706
  22997795.826   -13574546.09943 -10549852.80642  22997797.590    22997794.314
  22284080.981   -17718831.72443 -13685764.93742  22284082.819    22284080.102
  20943085.620   -25546891.88144 -19894171.37042  20943086.706    20943082.315
  24566242.891    -1390268.92243   -956814.72442  24566243.890    24566242.816
  24088962.928    -3251818.11643  -2522788.07242  24088963.774    24088962.218
  20380213.521   -27803539.61944 -21661684.34142  20380215.025    20380211.598
  21648594.285   -17767999.22543 -13831983.82342  21648595.682    21648592.535
  23441254.583   -10813675.10043  -8410868.79242  23441255.980    23441253.714
  23419276.649    -8875270.58043  -6909026.22742  23419277.329    23419275.095
 04  1 21  1 24 30.0000000  0 11G15G30G29G26G21G22G10G 6G18G16G17
  23905707.421    -9342897.13243  -7137543.77742  23905708.488    23905708.460
  23418993.683    -9728629.86043  -7550733.11942  23418995.536    23418993.740
  22996141.167   -13583241.17043 -10556628.14542  22996143.003    22996139.700
  22275017.857   -17766458.24243 -13722876.44442  22275019.738    22275017.019
  20937688.414   -25575254.11344 -19916271.78142  20937689.523    20937685.121
  24545907.345    -1497132.12943  -1040084.51942  24545908.368    24545906.907
  24109123.457    -3145873.74043  -2440234.00742  24109124.308    24109122.741
  20383757.766   -27784914.47744 -21647171.22542  20383759.243    20383755.846
  21634076.017   -17844293.03143 -13891433.47742  21634077.432    21634074.239
  23431862.412   -10863031.07443  -8449327.91442  23431863.812    23431861.511
  23432382.839    -8806396.98943  -6855358.48342  23432383.548    23432381.259
 04  1 21  1 25  0.0000000  0 11G15G30G29G26G21G22G10G 6G18G16G17
  23891137.384    -9419462.11843  -7197204.67942  23891138.492    23891138.591
  23438812.364    -9624481.79343  -7469578.80242  23438814.253    23438812.479
  22994585.734   -13591414.96243 -10562997.28242  22994587.562    22994584.230
  22266053.521   -17813565.93043 -13759583.67542  22266055.395    22266052.642
  20932328.883   -25603418.59844 -19938218.10442  20932329.965    20932325.569
  24525595.014    -1603873.03143  -1123258.97742  24525596.208    24525594.426
  24129303.466    -3039827.53343  -2357600.61142  24129304.271    24129302.632
  20387386.938   -27765842.93544 -21632310.27142  20387388.438    20387385.010
  21619628.485   -17920215.21443 -13950593.56342  21619629.875    21619626.655
  23422564.811   -10911890.08043  -8487399.79842  23422566.174    23422563.875
  23445499.104    -8737470.57443  -6801649.57542  23445499.803    23445497.532
 04  1 21  1 25 30.0000000  0 11G15G30G29G26G21G22G10G 6G18G16G17
  23876583.847    -9495941.21643  -7256798.66642  23876584.951    23876584.952
  23458641.843    -9520277.15143  -7388380.41542  23458643.770    23458641.978
  22993130.283   -13599063.12143 -10568956.83842  22993132.106    22993128.826
  22257189.150   -17860148.52843 -13795881.74442  22257190.994    22257188.198
  20927007.767   -25631381.14644 -19960007.07242  20927008.863    20927004.449
  24505307.023    -1710486.16343  -1206333.84642  24505308.255    24505306.338
  24149503.026    -2933678.26843  -2274886.88942  24149503.788    24149502.135
  20391101.838   -27746321.01444 -21617098.37242  20391103.335    20391099.905
  21605252.635   -17995760.64243 -14009460.06542  21605254.019    21605250.758
  23413362.747   -10960247.25343  -8525080.64842  23413364.081    23413361.719
  23458626.064    -8668487.83743  -6747896.75842  23458626.823    23458624.520
 04  1 21  1 26  0.0000000  0 11G15G30G29G26G21G22G10G 6G18G16G17
  23862047.018    -9572332.68543  -7316324.39442  23862048.125    23862047.986
  23478481.908    -9416017.13543  -7307138.87042  23478483.858    23478482.109
  22991775.402   -13606182.99743 -10574504.74842  22991777.219    22991773.894
  22248425.355   -17906201.97543 -13831767.48042  22248427.219    22248424.513
  20921725.303   -25659140.58644 -19981637.77042  20921726.378    20921721.970
  24485043.862    -1816968.03043  -1289306.41742  24485045.111    24485043.145
  24169722.006    -2827426.72143  -2192093.47642  24169722.778    24169721.080
  20394902.873   -27726346.50044 -21601533.80042  20394904.343    20394900.913
  21590949.011   -18070926.31143 -14068030.65842  21590950.415    21590947.124
  23404256.680   -11008099.67243  -8562368.17842  23404258.028    23404255.642
  23471763.993    -8599447.60543  -6694099.16742  23471764.754    23471762.415
 04  1 21  1 26 30.0000000  0 11G15G30G29G26G21G22G10G 6G18G16G17
  23847526.776    -9648636.75243  -7375782.00542  23847527.842    23847527.678
  23498331.910    -9311704.74043  -7225856.51042  23498333.859    23498332.008
  22990521.222   -13612773.72143 -10579640.33942  22990523.035    22990519.652
  22239762.919   -17951723.51343 -13867238.74942  22239764.749    22239761.983
  20916481.413   -25686697.16644 -20003110.40342  20916482.496    20916478.106
  24464806.159    -1923316.74643  -1372175.28242  24464807.398    24464805.358
  24189960.090    -2721075.36343  -2109222.29342  24189960.848    24189959.073
  20398790.088   -27705918.93544 -21585616.20042  20398791.558    20398788.121
  21576717.934   -18145710.88843 -14126304.29542  21576719.343    21576716.015
  23395246.946   -11055445.91943  -8599261.28742  23395248.345    23395245.898
  23484912.858    -8530350.05843  -6640256.89942  23484913.587    23484911.267
 04  1 21  1 27  0.0000000  0 11G15G30G29G26G21G22G10G 6G18G16G17
  23833022.659    -9724855.80243  -7435173.33642  23833023.703    23833023.570
  23518190.836    -9207345.41143  -7144537.60842  23518192.765    23518191.045
  22989367.329   -13618837.24043 -10584365.12242  22989369.152    22989365.723
  22231201.564   -17996713.24843 -13902295.62242  22231203.460    22231200.701
  20911275.627   -25714053.67144 -20024427.13042  20911276.714    20911272.324
  24444593.824    -2029532.92243  -1454940.94842  24444594.957    24444592.780
  24210216.108    -2614629.40843  -2026277.39442  24210216.882    24210215.101
  20402763.110   -27685040.56044 -21569347.32442  20402764.564    20402761.133
  21562559.174   -18220115.39043 -14184281.77042  21562560.599    21562557.246
  23386333.330   -11102287.09643  -8635760.84542  23386334.731    23386332.290
  23498072.012    -8461198.27643  -6586372.38142  23498072.715    23498070.435
 04  1 21  1 27 30.0000000  0 11G15G30G29G26G21G22G10G 6G18G16G17
  23818534.963    -9800988.78743  -7494497.62742  23818536.074    23818535.809
  23538058.317    -9102941.02543  -7063183.55442  23538060.262    23538058.558
  22988314.110   -13624371.55043 -10588677.53242  22988316.013    22988312.585
  22222742.130   -18041167.78543 -13936935.46242  22222743.985    22222741.251
  20906108.082   -25741209.24444 -20045587.28842  20906109.149    20906104.770
  24424407.089    -2135613.77543  -1537601.12842  24424408.277    24424406.138
  24230489.869    -2508090.39843  -1943259.98742  24230490.550    24230488.818
  20406822.209   -27663709.94444 -21552726.05842  20406823.651    20406820.191
  21548473.241   -18294137.23343 -14241961.07142  21548474.676    21548471.274
  23377516.283   -11148620.89743  -8671865.04342  23377517.683    23377515.187
  23511241.622    -8391991.11843  -6532444.69242  23511242.337    23511240.156
 04  1 21  1 28  0.0000000  0 11G15G30G29G26G21G22G10G 6G18G16G17
  23804064.043    -9877033.49243  -7553753.13142  23804065.190    23804064.848
  23557934.343    -8998492.01743  -6981794.73842  23557936.301    23557934.585
  22987362.230   -13629373.52343 -10592575.12842  22987364.089    22987360.722
  22214385.460   -18085082.12543 -13971154.37242  22214387.336    22214384.558
  20900979.201   -25768161.59744 -20066589.09042  20900980.270    20900975.886
  24404247.000    -2241554.80643  -1620152.37342  24404248.007    24404246.012
  24250781.325    -2401457.98943  -1860169.79542  24250781.992    24250780.283
  20410967.860   -27641924.25644 -21535750.18942  20410969.313    20410965.848
  21534460.802   -18367772.86143 -14299339.42342  21534462.230    21534458.829
  23368796.476   -11194443.53643  -8707570.93442  23368797.910    23368795.369
  23524422.237    -8322726.56443  -6478472.29342  23524422.898    23524420.721
 04  1 21  1 28 30.0000000  0 11G15G30G29G26G21G22G10G 6G18G16G17
  23789609.271    -9952993.21443  -7612942.40842  23789610.390    23789610.084
  23577817.687    -8894004.46543  -6900375.88342  23577819.612    23577817.854
  22986511.171   -13633845.75543 -10596059.93842  22986512.982    22986509.625
  22206131.505   -18128456.74043 -14004952.71442  22206133.410    22206130.572
  20895888.353   -25794913.98744 -20087435.07542  20895889.437    20895885.068
  24384113.417    -2347357.26143  -1702595.67642  24384114.334    24384112.129
  24271089.357    -2294738.28743  -1777011.58342  24271090.101    24271088.389
  20415199.578   -27619686.31944 -21518421.92142  20415201.049    20415197.578
  21520521.522   -18441024.01043 -14356418.18242  21520522.956    21520519.509
  23360173.574   -11239756.99243  -8742880.06942  23360175.010    23360172.438
  23537613.146    -8253408.02543  -6424457.83142  23537613.721    23537611.581
 04  1 21  1 29  0.0000000  0 11G15G30G29G26G21G22G10G 6G18G16G17
  23775170.717   -10028868.01243  -7672065.50942  23775171.918    23775171.558
  23597707.767    -8789481.41943  -6818929.38442  23597709.698    23597708.077
  22985761.025   -13637787.59543 -10599131.46642  22985762.851    22985759.478
  22197980.659   -18171289.64143 -14038328.94042  22197982.571    22197979.691
  20890835.557   -25821466.52044 -20108125.32842  20890836.622    20890832.247
  24364006.285    -2453019.67443  -1784929.83842  24364007.241    24364005.007
  24291413.602    -2187933.82943  -1693787.32942  24291414.334    24291412.591
  20419517.388   -27596995.97844 -21500741.12842  20419518.869    20419515.415
  21506655.675   -18513889.28943 -14413196.26042  21506657.086    21506653.659
  23351647.790   -11284560.02043  -8777791.45842  23351649.237    23351646.635
  23550814.172    -8184035.99743  -6370401.68642  23550814.759    23550812.616
 04  1 21  1 29 30.0000000  0 11G15G30G29G26G21G22G10G 6G18G16G17
  23760749.054   -10104653.70943  -7731119.16842  23760750.177    23760749.936
  23617604.822    -8684921.51243  -6737454.16342  23617606.769    23617605.094
  22985112.750   -13641193.94443 -10601785.73142  22985114.609    22985111.208
  22189934.111   -18213573.95843 -14071277.69442  22189936.060    22189933.166
  20885821.568   -25847815.04044 -20128656.61242  20885822.642    20885818.252
  24343927.204    -2558535.63943  -1867149.92042  24343928.027    24343925.695
  24311754.272    -2081042.65343  -1610495.50342  24311755.084    24311753.360
  20423922.193   -27573848.51544 -21482704.12942  20423923.669    20423920.213
  21492864.321   -18586363.06043 -14469669.27242  21492865.715    21492862.289
  23343220.121   -11328847.24243  -8812300.92342  23343221.593    23343219.029
  23564026.236    -8114606.29643  -6316300.61042  23564026.834    23564024.697
 04  1 21  1 30  0.0000000  0 11G15G30G29G26G21G22G10G 6G18G16G17
  23746343.297   -10180356.10743  -7790107.93642  23746344.308    23746343.998
  23637507.341    -8580333.44843  -6655956.98942  23637509.251    23637507.579
  22984565.420   -13644070.07143 -10604026.82942  22984567.230    22984563.846
  22181991.397   -18255313.18043 -14103801.71142  22181993.335    22181990.397
  20880845.224   -25873965.78544 -20149033.78442  20880846.288    20880841.906
  24323875.170    -2663909.17143  -1949259.03442  24323875.981    24323873.654
  24332110.031    -1974072.78143  -1527142.35342  24332110.790    24332109.051
  20428412.947   -27550249.40444 -21464315.19542  20428414.437    20428410.965
  21479146.562   -18658450.18543 -14525840.99842  21479147.949    21479144.504
  23334889.796   -11372623.21543  -8846412.01342  23334891.198    23334888.634
  23577248.088    -8045125.04643  -6262159.35042  23577248.633    23577246.550
 04  1 21  1 30 30.0000000  0 11G15G30G29G26G21G22G10G 6G18G16G17
  23731954.631   -10255969.02543  -7849026.99742  23731955.645    23731955.232
  23657415.825    -8475714.03943  -6574435.41042  23657417.701    23657416.011
  22984120.255   -13646409.15943 -10605849.46342  22984122.094    22984118.727
  22174153.986   -18296498.80543 -14135894.35042  22174155.928    22174152.956
  20875907.648   -25899912.79444 -20169252.20142  20875908.727    20875904.325
  24303851.718    -2769132.36843  -2031250.98642  24303852.515    24303850.245
  24352481.400    -1867020.81443  -1443725.23542  24352482.168    24352480.359
  20432990.848   -27526192.33444 -21445569.41742  20432992.323    20432988.845
  21465503.810   -18730143.15143 -14581705.59442  21465505.191    21465501.736
  23326658.206   -11415880.50843  -8880118.94342  23326659.550    23326657.018
  23590480.902    -7975586.32243  -6207973.32242  23590481.384    23590479.289
 04  1 21  1 31  0.0000000  0 11G15G30G29G26G21G22G10G 6G18G16G17
  23717582.216   -10331495.56543  -7907878.69842  23717583.259    23717583.040
  23677329.159    -8371069.01443  -6492893.85842  23677331.026    23677329.339
  22983776.912   -13648213.67943 -10607255.54242  22983778.680    22983775.338
  22166421.754   -18337131.60843 -14167556.21542  22166423.679    22166420.724
  20871008.321   -25925658.89344 -20189314.06542  20871009.382    20871004.980
  24283856.818    -2874206.30543  -2113126.67742  24283857.620    24283855.303
  24372867.209    -1759892.41143  -1360248.52342  24372868.043    24372866.209
  20437655.395   -27501680.05144 -21426468.92942  20437656.857    20437653.360
  21451935.734   -18801443.61043 -14637264.34042  21451937.114    21451933.642
  23318524.930   -11458620.79143  -8913423.01542  23318526.311    23318523.748
  23603723.977    -7905993.58143  -6153745.19042  23603724.406    23603722.279
 04  1 21  1 31 30.0000000  0 11G15G30G29G26G21G22G10G 6G18G16G17
  23703226.216   -10406936.64143  -7966663.83442  23703227.145    23703226.907
  23697246.560    -8266402.51643  -6411335.56342  23697248.393    23697246.586
  22983535.185   -13649484.08943 -10608245.43442  22983536.903    22983533.574
  22158795.059   -18377210.21143 -14198786.25142  22158796.947    22158793.926
  20866146.919   -25951205.67444 -20209220.61742  20866147.970    20866143.553
  24263890.449    -2979130.12443  -2194885.38442  24263891.217    24263888.816
  24393267.022    -1652690.85243  -1276714.82242  24393267.832    24393265.872
  20442406.408   -27476713.22944 -21407014.25842  20442407.895    20442404.370
  21438442.501   -18872350.78543 -14692516.62842  21438443.879    21438440.409
  23310490.099   -11500844.22343  -8946324.33342  23310491.432    23310488.845
  23616977.130    -7836347.99443  -6099475.88642  23616977.470    23616975.368
 04  1 21  1 32  0.0000000  0 11G15G30G29G26G21G22G10G 6G18G16G17
  23688886.844   -10482290.51643  -8025381.05442  23688887.727    23688887.453
  23717167.796    -8161715.60543  -6329761.38542  23717169.641    23717167.919
  22983395.427   -13650218.11643 -10608817.37442  22983397.194    22983393.845
  22151274.520   -18416730.45043 -14229581.18742  22151276.465    22151273.440
  20861323.812   -25976551.11444 -20228970.28142  20861324.885    20861320.455
  24243953.141    -3083900.32943  -2276524.39142  24243953.837    24243951.497
  24413680.556    -1545416.87243  -1193124.69742  24413681.412    24413679.551
  20447244.301   -27451289.79544 -21387203.78042  20447245.793    20447242.287
  21425024.564   -18942862.27643 -14747460.59042  21425025.943    21425022.467
  23302554.147   -11542547.86543  -8978820.63542  23302555.435    23302552.823
  23630240.618    -7766647.82143  -6045164.03442  23630240.975    23630238.878
 04  1 21  1 32 30.0000000  0 11G15G30G29G26G21G22G10G 6G18G16G17
  23674563.586   -10557558.84043  -8084031.55642  23674564.498    23674564.336
  23737092.235    -8057012.32243  -6248174.44142  23737094.068    23737092.316
  22983357.637   -13650416.38343 -10608971.84142  22983359.430    22983356.112
  22143860.422   -18455691.58843 -14259940.47142  22143862.338    22143859.339
  20856538.660   -26001697.09044 -20248564.51742  20856539.734    20856535.277
  24224045.287    -3188516.38643  -2358043.30842  24224045.996    24224043.528
  24434107.161    -1438074.14343  -1109480.98942  24434108.079    24434106.155
  20452168.889   -27425410.94444 -21367038.43242  20452170.371    20452166.839
  21411681.954   -19012977.82443 -14802096.02842  21411683.353    21411679.866
  23294717.066   -11583731.85243  -9010912.00742  23294718.312    23294715.721
  23643514.143    -7696894.76343  -5990810.98742  23643514.575    23643512.427
 04  1 21  1 33  0.0000000  0 11G15G30G29G26G21G22G10G 6G18G16G17
  23660257.780   -10632736.37943  -8142611.35142  23660258.617    23660258.451
  23757020.196    -7952290.63243  -6166573.14942  23757022.079    23757020.218
  22983422.925   -13650073.51243 -10608704.63142  22983424.639    22983421.369
  22136554.135   -18494086.11643 -14289858.23642  22136556.070    22136553.040
  20851792.488   -26026638.24444 -20267999.15142  20851793.565    20851789.094
  24204168.092    -3292971.37343  -2439436.67842  24204168.777    24204166.320
  24454547.350    -1330659.98043  -1025781.63842  24454548.289    24454546.414
  20457181.138   -27399071.39244 -21346514.09442  20457182.600    20457179.079
  21398415.800   -19082691.56443 -14856418.36642  21398417.206    21398413.720
  23286980.002   -11624390.01343  -9042593.64142  23286981.331    23286978.682
  23656798.649    -7627084.11543  -5936413.06742  23656799.128    23656796.942
 04  1 21  1 33 30.0000000  0 11G15G30G29G26G21G22G10G 6G18G16G17
  23645967.577   -10707831.92843  -8201127.27442  23645968.327    23645968.029
  23776949.364    -7847561.81343  -6084966.30542  23776951.278    23776949.431
  22983589.549   -13649197.42043 -10608021.92842  22983591.329    22983588.067
  22129354.496   -18531920.41943 -14319339.45542  22129356.402    22129353.360
  20847083.592   -26051383.49244 -20287281.13042  20847084.670    20847080.203
  24184320.208    -3397272.35243  -2520710.05042  24184320.871    24184318.456
  24474999.084    -1223185.61943   -942035.35742  24474999.864    24474998.176
  20462279.479   -27372279.45344 -21325637.24442  20462280.937    20462277.388
  21385224.667   -19152011.06443 -14910433.50242  21385226.082    21385222.596
  23279341.559   -11664529.94843  -9073871.46142  23279342.917    23279340.242
  23670092.530    -7557224.41543  -5881976.92242  23670092.949    23670090.779
 04  1 21  1 34  0.0000000  0 11G15G30G29G26G21G22G10G 6G18G16G17
  23631694.636   -10782836.12843  -8259571.99842  23631695.342    23631695.060
  23796881.180    -7742819.58243  -6003349.01742  23796883.100    23796881.277
  22983859.525   -13647778.47443 -10606916.21042  22983861.327    22983858.047
  22122263.582   -18569183.08143 -14348375.24042  22122265.500    22122262.481
  20842413.681   -26075923.81444 -20306403.42942  20842414.773    20842410.295
  24164503.699    -3501407.87143  -2601854.46542  24164504.458    24164502.010
  24495463.591    -1115643.72843   -858236.47842  24495464.362    24495462.701
  20467465.692   -27345025.65944 -21304400.51442  20467467.151    20467463.594
  21372110.656   -19220925.44143 -14964132.96142  21372112.054    21372108.577
  23271803.779   -11704141.21843  -9104737.33842  23271805.128    23271802.421
  23683397.432    -7487306.55643  -5827495.44842  23683397.822    23683395.621
 04  1 21  1 34 30.0000000  0 11G15G30G29G26G21G22G10G 6G18G16G17
  23617437.632   -10857756.98543  -8317951.76742  23617438.356    23617438.075
  23816813.509    -7638074.65143  -5921729.61742  23816815.427    23816813.705
  22984231.405   -13645824.05043 -10605393.24842  22984233.228    22984229.930
  22115280.378   -18605879.78843 -14376970.03042  22115282.301    22115279.259
  20837781.298   -26100267.00444 -20325372.12242  20837782.395    20837777.904
  24144717.642    -3605383.93243  -2682874.62742  24144718.369    24144716.006
  24515938.944    -1008044.57443   -774392.96942  24515939.871    24515938.185
  20472738.308   -27317317.89144 -21282810.03642  20472739.768    20472736.204
  21359072.509   -19289441.19943 -15017521.80942  21359073.909    21359070.411
  23264365.303   -11743230.60143  -9135196.55142  23264366.666    23264363.928
  23696711.807    -7417339.14943  -5772975.38542  23696712.160    23696709.949
 04  1 21  1 35  0.0000000  0 11G15G30G29G26G21G22G10G 6G18G16G17
  23603197.106   -10932591.15043  -8376264.00142  23603197.819    23603197.454
  23836746.481    -7533326.48943  -5840107.70142  23836748.369    23836746.599
  22984705.839   -13643330.61643 -10603450.27642  22984707.679    22984704.336
  22108405.915   -18642005.11043 -14405119.57742  22108407.840    22108404.790
  20833187.093   -26124409.56044 -20344184.47742  20833188.186    20833183.694
  24124962.805    -3709195.26843  -2763766.44842  24124963.579    24124961.084
  24536425.418     -900387.42143   -690504.25442  24536426.283    24536424.591
  20478097.986   -27289152.49544 -21260862.96942  20478099.449    20478095.885
  21346111.124   -19357553.61743 -15070596.37042  21346112.521    21346108.981
  23257026.931   -11781793.79043  -9165245.73742  23257028.305    23257025.493
  23710036.233    -7347318.70143  -5718413.99742  23710036.562    23710034.418
 04  1 21  1 35 30.0000000  0 11G15G30G29G26G21G22G10G 6G18G16G17
  23588973.529   -11007336.31643  -8434506.88242  23588974.184    23588973.745
  23856679.916    -7428575.77443  -5758483.78642  23856681.762    23856680.021
  22985283.446   -13640295.53843 -10601085.23742  22985285.197    22985281.783
  22101641.049   -18677554.66043 -14432820.46942  22101642.968    22101639.868
  20828631.361   -26148349.93744 -20362839.28942  20828632.464    20828627.964
  24105240.092    -3812838.10843  -2844526.96542  24105240.841    24105238.329
  24556922.766     -792672.46643   -606570.48742  24556923.574    24556922.077
  20483545.153   -27260527.27544 -21238557.59242  20483546.623    20483543.069
  21333226.991   -19425259.98543 -15123354.52342  21333228.393    21333224.850
  23249789.316   -11819827.55143  -9194882.39142  23249790.728    23249787.881
  23723371.094    -7277243.41043  -5663809.86342  23723371.464    23723369.260
 04  1 21  1 36  0.0000000  0 11G15G30G29G26G21G22G10G 6G18G16G17
  23574766.572   -11081994.30743  -8492681.83042  23574767.213    23574766.736
  23876612.910    -7323827.13543  -5676861.47842  23876614.744    23876613.063
  22985963.809   -13636720.01443 -10598299.09442  22985965.551    22985962.171
  22094985.776   -18712528.18343 -14460072.51642  22094987.695    22094984.593
  20824113.781   -26172089.88144 -20381337.92342  20824114.879    20824110.401
  24085549.479    -3916312.61143  -2925156.28242  24085550.203    24085547.767
  24577430.452     -684903.86543   -522594.93642  24577431.207    24577429.751
  20489079.538   -27231443.86744 -21215895.19242  20489081.004    20489077.436
  21320420.013   -19492560.86143 -15175796.70842  21320421.413    21320417.840
  23242652.266   -11857332.90743  -9224107.29042  23242653.667    23242650.785
  23736716.083    -7207115.16743  -5609164.46842  23736716.408    23736714.250
 04  1 21  1 36 30.0000000  0 11G15G30G29G26G21G22G10G 6G18G16G17
  23560575.724   -11156566.78343  -8550790.12942  23560576.492    23560576.015
  23896544.773    -7219084.81843  -5595244.13542  23896546.631    23896544.880
  22986746.762   -13632605.30543 -10595092.77542  22986748.538    22986745.158
  22088440.275   -18746924.91043 -14486875.11142  22088442.175    22088439.046
  20819634.046   -26195630.97444 -20399681.61142  20819635.138    20819630.663
  24065891.074    -4019618.20343  -3005654.01742  24065891.704    24065889.171
  24597947.739     -577085.21743   -438580.38142  24597948.330    24597946.789
  20494700.872   -27201903.39944 -21192876.63242  20494702.359    20494698.787
  21307690.216   -19559456.18943 -15227922.88342  21307691.621    21307688.037
  23235615.620   -11894310.33243  -9252920.82242  23235617.036    23235614.176
  23750070.783    -7136935.42343  -5554478.94542  23750071.162    23750069.067
 04  1 21  1 37  0.0000000  0 11G15G30G29G26G21G22G10G 6G18G16G17
  23546401.784   -11231050.69343  -8608829.44542  23546402.578    23546402.058
  23916475.380    -7114348.47043  -5513631.43542  23916477.270    23916475.573
  22987632.979   -13627947.93043 -10591463.61942  22987634.781    22987631.395
  22082005.504   -18780739.72443 -14513224.27842  22082007.398    22082004.233
  20815192.769   -26218969.89444 -20417867.76542  20815193.878    20815189.405
  24046265.570    -4122750.11943  -3086016.39042  24046266.277    24046263.702
  24618474.555     -469216.01443   -354526.43142  24618475.168    24618473.631
  20500409.788   -27171902.66844 -21169499.42842  20500411.287    20500407.727
  21295038.352   -19625941.89343 -15279729.87142  21295039.758    21295036.164
  23228680.241   -11930755.46043  -9281319.57742  23228681.706    23228678.825
  23763435.918    -7066701.33743  -5499751.06842  23763436.241    23763434.126
 04  1 21  1 37 30.0000000  0 11G15G30G29G26G21G22G10G 6G18G16G17
  23532243.924   -11305450.49243  -8666803.21442  23532244.798    23532244.176
  23936403.474    -7009625.37743  -5432029.07642  23936405.378    23936403.805
  22988621.724   -13622752.00443 -10587414.79842  22988623.518    22988620.074
  22075681.003   -18813975.00343 -14539121.86242  22075682.923    22075679.743
  20810789.077   -26242111.45944 -20435900.13542  20810790.172    20810785.695
  24026672.669    -4225710.96743  -3166245.50642  24026673.290    24026670.762
  24639009.734     -361302.81243   -270438.18742  24639010.381    24639008.885
  20506205.480   -27141446.14644 -21145767.06642  20506206.976    20506203.390
  21282463.770   -19692021.46543 -15331220.39242  21282465.172    21282461.565
  23221845.460   -11966672.13143  -9309306.53842  23221846.961    23221844.069
  23776810.355    -6996417.75243  -5444984.63942  23776810.688    23776808.654
 04  1 21  1 38  0.0000000  0 11G15G30G29G26G21G22G10G 6G18G16G17
  23518102.826   -11379761.67443  -8724707.89442  23518103.721    23518103.179
  23956329.542    -6904914.05943  -5350435.99042  23956331.342    23956329.711
  22989713.893   -13617012.78343 -10582942.64542  22989715.675    22989712.165
  22069468.030   -18846624.26943 -14564562.80942  22069469.939    22069466.723
  20806423.753   -26265051.26844 -20453775.28942  20806424.851    20806420.363
  24007113.433    -4328494.63643  -3246336.53142  24007114.105    24007111.583
  24659553.616     -253343.41243   -186313.98242  24659554.474    24659552.850
  20512088.766   -27110529.32344 -21121676.03242  20512090.244    20512086.664
  21269967.595   -19757689.07343 -15382389.90042  21269968.994    21269965.392
  23215112.348   -12002054.76343  -9336877.37642  23215113.823    23215110.922
  23790195.176    -6926080.06543  -5390176.04442  23790195.458    23790193.422
 04  1 21  1 38 30.0000000  0 11G15G30G29G26G21G22G10G 6G18G16G17
  23503979.158   -11453981.70643  -8782541.58842  23503980.031    23503979.420
  23976253.032     4227725.01453                                  23976255.730
  22990909.905   -13610727.48643 -10578044.97042  22990911.653    22990908.200
  22063367.421   -18878682.98143 -14589543.58142  22063369.348    22063366.099
  20802097.294   -26287786.74744 -20471491.22142  20802098.391    20802093.912
  23987588.860    -4431096.51243  -3326285.91142  23987589.538    23987586.971
  24680106.431     -145337.52743   -102153.54242  24680107.463    24680105.771
  20518060.120   -27079149.55944 -21097224.25742  20518061.625    20518058.022
  21257550.493   -19822941.27243 -15433235.72042  21257551.871    21257548.232
  23208481.474   -12036899.93343  -9364029.40142  23208482.948    23208480.083
  23803590.684    -6855685.95443  -5335323.47142  23803591.055    23803588.986
 04  1 21  1 39  0.0000000  0 11G15G30G29G26G21G22G10G 6G18G16G17
  23489871.277   -11528118.55443  -8840310.44042  23489872.153    23489871.542
  23996172.725     4332402.13043   3405913.12052  23996174.694    23996172.776
  22992208.303   -13603903.87043 -10572727.83042  22992210.124    22992206.643
  22057378.074   -18910157.24143 -14614068.93342  22057379.941    22057376.710
  20797808.213   -26310325.93044 -20489054.18142  20797809.313    20797804.827
  23968097.771    -4533522.89643  -3406098.57942  23968098.420    23968095.680
  24700666.139      -37295.57443    -17965.02142  24700667.093    24700665.740
  20524118.066   -27047314.89044 -21072418.01242  20524119.569    20524115.957
  21245211.078   -19887785.08643 -15483763.30842  21245212.471    21245208.820
  23201951.528   -12071214.90943  -9390768.29342  23201952.986    23201950.076
  23816995.317    -6785243.74943  -5280433.43742  23816995.706    23816993.621
 04  1 21  1 39 30.0000000  0 10G15G30G29G26G21G22G 6G18G16G17
  23475780.256   -11602166.68943  -8898010.15642  23475781.165    23475780.619
  24016088.186     4437059.33843   3487464.12242  24016089.951    24016088.309
  22993610.293   -13596536.33143 -10566986.86842  22993612.117    22993608.618
  22051501.338   -18941039.55943 -14638133.04042  22051503.206    22051499.931
  20793557.468   -26332663.60444 -20506460.13642  20793558.581    20793554.070
  23948641.284    -4635766.56443  -3485768.81142  23948642.002    23948639.241
  20530263.609   -27015019.80944 -21047253.00442  20530265.123    20530261.512
  21232950.706   -19952213.58043 -15533967.27642  21232952.102    21232948.427
  23195523.699   -12104993.29843  -9417089.06642  23195525.129    23195522.225
  23830410.238    -6714748.18643  -5225501.82042  23830410.550    23830408.494
 04  1 21  1 40  0.0000000  0 10G15G30G29G26G21G22G 6G18G16G17
  23461705.920   -11676127.31743  -8955641.70242  23461706.914    23461706.251
  24035999.344     4541692.84643   3568996.67942  24036001.192    24035999.475
  22995115.603   -13588625.51143 -10560822.54642  22995117.486    22995113.964
  22045737.425   -18971329.02343 -14661735.17442  22045739.303    22045735.997
  20789344.893   -26354800.82244 -20523709.88642  20789345.988    20789341.466
  23929219.898    -4737826.81443  -3565296.20142  23929220.518    23929217.552
  20536496.624   -26982265.19344 -21021729.92042  20536498.116    20536494.508
  21220769.276   -20016227.20043 -15583847.96642  21220770.665    21220766.977
  23189197.932   -12138235.46443  -9442992.00142  23189199.313    23189196.402
  23843835.071    -6644200.05243  -5170529.23642  23843835.464    23843833.402
 04  1 21  1 40 30.0000000  0 10G15G30G29G26G21G22G 6G18G16G17
  23447647.820   -11750002.36843  -9013206.55742  23447648.840    23447648.144
  24055905.184     4646298.17343   3650507.24742  24055906.941    24055905.283
  22996723.997   -13580173.15643 -10554236.24842  22996725.920    22996722.383
  22040086.368   -19001025.53943 -14684875.27742  22040088.208    22040084.903
  20785170.127   -26376739.21944 -20540804.70942  20785171.223    20785166.695
  23909833.206    -4839703.49843  -3644680.48042  23909833.859    23909830.968
  20542816.709   -26949052.82044 -20995850.14142  20542818.216    20542814.599
  21208666.769   -20079826.07943 -15633405.48142  21208668.151    21208664.444
  23182974.090   -12170942.05643  -9468477.62142  23182975.465    23182972.444
  23857269.541    -6573601.40043  -5115517.30242  23857269.926    23857267.808
 04  1 21  1 41  0.0000000  0 10G15G30G29G26G21G22G 6G18G16G17
  23433606.400   -11823790.18143  -9070703.43842  23433607.446    23433606.676
  24075805.557
  22998435.748   -13571177.78543 -10547226.83642  22998437.677    22998434.141
  22034548.701   -19030125.84843 -14707550.79542  22034550.567    22034547.241
  20781033.448   -26398477.67244 -20557743.73542  20781034.527    20781029.983
  23890482.106    -4941393.78643  -3723919.51942  23890482.715    23890479.829
  20549224.151   -26915381.50144 -20969612.73942  20549225.631    20549222.039
  21196643.574   -20143008.27643 -15682638.31442  21196644.930    21196641.209
  23176852.456   -12203111.30843  -9493544.53242  23176853.838    23176850.769
  23870713.888    -6502951.08943  -5060465.09442  23870714.207    23870712.147
 04  1 21  1 41 30.0000000  0 10G15G30G29G26G21G22G 6G18G16G17
  23419581.460   -11897491.09543  -9128132.60342  23419582.558    23419581.762
  24095699.842     4855416.52153   3813455.49352  24095700.665    24095700.101
  23000250.866   -13561639.20743 -10539794.14842  23000252.713    23000249.243
  22029124.851   -19058628.25943 -14729760.42542  22029126.710    22029123.367
  20776934.759   -26420016.36644 -20574527.10442  20776935.832    20776931.283
  23871166.876    -5042895.69943  -3803011.75442  23871167.527    23871164.579
  20555718.908   -26881251.23444 -20943017.71942  20555720.401    20555716.808
  21184699.878   -20205772.62943 -15731545.55642  21184701.238    21184697.506
  23170833.318   -12234742.29343  -9518192.00142  23170834.683    23170831.563
  23884167.898    -6432249.44643  -5005372.89842  23884168.300    23884166.168
 04  1 21  1 42  0.0000000  0 10G15G30G29G26G21G22G 6G18G16G17
  23405573.624   -11971102.27543  -9185491.84942  23405574.738    23405573.839
  24115587.514     4959927.22743   3894892.28842  24115588.778    24115587.243
  23002169.861   -13551554.85943 -10531936.17942  23002171.687    23002168.177
  22023815.584   -19086528.29143 -14751500.66442  22023817.480    22023814.092
  20772874.641   -26441352.45444 -20591152.59742  20772875.693    20772871.117
  23851888.370    -5144204.83143  -3881953.80442  23851889.031    23851885.970
  20562301.522   -26846659.38644 -20916063.02442  20562303.006    20562299.397
  21172836.388   -20268115.47443 -15780124.34642  21172837.729    21172833.988
  23164917.184   -12265831.74543  -9542417.50042  23164918.529    23164915.372
  23897632.205    -6361493.73643  -4950238.57142  23897632.640    23897630.549
 04  1 21  1 42 30.0000000  0 10G15G30G29G26G21G22G 6G18G16G17
  23391582.585   -12044625.47243  -9242782.54742  23391583.727    23391582.764
  24135468.119     5064401.06643   3976300.41642  24135469.568    24135468.192
  23004192.360   -13540926.45443 -10523654.27142  23004194.204    23004190.653
  22018620.970   -19113825.94343 -14772771.52342  22018622.838    22018619.494
  20768852.669   -26462487.98344 -20607621.81542  20768853.740    20768849.129
  23832646.455    -5245321.46543  -3960745.85142  23832647.119    23832643.937
  20568971.598   -26811607.91344 -20888750.18542  20568973.071    20568969.473
  21161052.889   -20330037.92543 -15828375.55942  21161054.256    21161050.475
  23159103.908   -12296380.61343  -9566221.77942  23159105.246    23159102.072
  23911106.414    -6290686.14443  -4895063.81642  23911106.896    23911104.726
 04  1 21  1 43  0.0000000  0 10G15G30G29G26G21G22G 6G18G16G17
  23377607.590   -12118063.91143  -9300007.18242  23377608.741    23377607.801
  24155340.761     5168831.93243   4057675.06042  24155342.253    24155340.713
  23006317.823   -13529756.89643 -10514950.69142  23006319.643    23006316.088
  22013540.771   -19140522.48343 -14793573.97442  22013542.646    22013539.292
  20764868.251   -26483425.97144 -20623937.09942  20764869.350    20764864.727
  23813440.850    -5346246.64843  -4039388.67142  23813441.613    23813438.387
  20575728.548   -26776099.82944 -20861081.54042  20575730.046    20575726.436
  21149349.004   -20391542.10743 -15876300.84142  21149350.359    21149346.572
  23153392.975   -12326391.39643  -9589606.75142  23153394.316    23153391.202
  23924589.917    -6219829.50243  -4839850.83542  23924590.484    23924588.249
 04  1 21  1 43 30.0000000  0 10G15G30G29G26G21G22G 6G18G16G17
  23363649.912   -12191411.82243  -9357161.30142  23363651.053    23363650.012
  24175205.581     5273223.25943   4139019.03542  24175207.221    24175205.760
  23008547.408   -13518040.34943 -10505820.88242  23008549.206    23008545.656
  22008576.401   -19166610.34243 -14813902.14542  22008578.258    22008574.906
  20760922.566   -26504160.55544 -20640093.88742  20760923.662    20760919.060
  23794273.087    -5446972.94243  -4117876.49042  23794273.882    23794270.734
  20582573.458   -26740129.64244 -20833052.82442  20582574.929    20582571.326
  21137726.042   -20452620.96343 -15923894.70942  21137727.403    21137723.598
  23147785.731   -12355857.40843  -9612567.24142  23147787.067    23147783.925
  23938083.797    -6148918.36743  -4784595.39742  23938084.520    23938082.132
 04  1 21  1 44  0.0000000  0 10G15G30G29G26G21G22G 6G18G16G17
  23349708.030   -12264676.21943  -9414250.33442  23349709.184    23349708.135
  24195060.983     5377564.96243   4220324.24742  24195062.721    24195061.325
  23010879.641   -13505784.11743 -10496270.54742  23010881.443    23010877.910
  22003726.749   -19192095.06343 -14833760.33442  22003728.647    22003725.277
  20757014.207   -26524699.07944 -20656097.90642  20757015.307    20757010.654
  23775142.266    -5547505.88043  -4196213.71442  23775142.961    23775139.617
  20589504.901   -26703704.55944 -20804669.63442  20589506.401    20589502.790
  21126182.780   -20513281.02144 -15971162.24042  21126184.149    21126180.329
  23142280.868   -12384785.54643  -9635108.60842  23142282.190    23142279.048
  23951586.694    -6077959.93043  -4729303.10342  23951587.413    23951584.965
 04  1 21  1 44 30.0000000  0 10G15G30G29G26G21G22G 6G18G16G17
  23335783.401   -12337850.54643  -9471269.19342  23335784.472    23335783.380
  24214907.777     5481860.76443   4301593.70742  24214909.556    24214908.254
  23013315.823   -13492981.70943 -10486294.59842  23013317.662    23013314.027
  21998993.431   -19216968.58043 -14853142.26642  21998995.307    21998991.943
  20753144.400   -26545034.93144 -20671943.99442  20753145.484    20753140.853
  23756049.734    -5647837.28643  -4274393.84242  23756050.462    23756047.152
  20596524.126   -26666818.21544 -20775927.02742  20596525.608    20596522.003
  21114720.609   -20573514.89443 -16018097.67542  21114721.994    21114718.139
  23136879.680   -12413168.62743  -9657225.24142  23136881.003    23136877.872
  23965099.847    -6006947.79243  -4673968.97442  23965100.553    23965098.145
 04  1 21  1 45  0.0000000  0 10G15G30G29G26G21G22G 6G18G16G17
  23321875.876   -12410934.46743  -9528217.59442  23321876.961    23321875.900
  24234745.424     5586108.47243   4382825.68142  24234747.285    24234745.876
  23015856.043   -13479632.76943 -10475892.79242  23015857.837    23015854.227
  21994376.834   -19241228.74943 -14872046.26842  21994378.729    21994375.345
  20749313.226   -26565167.83344 -20687631.94642  20749314.313    20749309.659
  23736995.943    -5747965.01243  -4352415.27742  23736996.656    23736993.300
  20603631.204   -26629470.36944 -20746824.81242  20603632.666    20603629.066
  21103339.830   -20633321.20343 -16064699.95142  21103341.201    21103337.324
  23131582.443   -12441005.59843  -9678916.35242  23131583.753    23131580.667
  23978623.275    -5935881.68343  -4618592.78242  23978623.913    23978621.631
 04  1 21  1 45 30.0000000  0 10G15G30G29G26G21G22G 6G18G16G17
  23307984.500   -12483933.88943  -9585100.16442  23307985.567    23307984.463
  24254572.301     5690299.49443   4464013.46142  24254574.207    24254572.790
  23018499.124   -13465743.22843 -10465069.74742  23018500.913    23018497.302
  21989876.146   -19264879.68243 -14890475.52642  21989878.077    21989874.681
  20745519.534   -26585103.67144 -20703166.33442  20745520.621    20745515.975
  23717980.157    -5847893.07943  -4430281.11042  23717980.875    23717977.472
  20610824.911   -26591667.14044 -20717367.75142  20610826.381    20610822.775
  21092039.505   -20692704.72843 -16110972.77942  21092040.859    21092036.969
  23126388.164   -12468301.56743  -9700185.90742  23126389.438    23126386.410
  23992155.759    -5864767.68843  -4563179.27842  23992156.535    23992154.216
 04  1 21  1 46  0.0000000  0 10G15G30G29G26G21G22G 6G18G16G17
  23294109.748   -12556845.65843  -9641914.44642  23294110.808    23294109.654
  24274388.624     5794434.25843   4545157.41242  24274390.569    24274388.916
  23021245.674   -13451309.87643 -10453822.94842  23021247.471    23021243.864
  21985492.331   -19287916.66943 -14908426.39242  21985494.246    21985490.852
  20741763.952   -26604839.29344 -20718544.71342  20741765.051    20741760.387
  23699003.250    -5947616.78943  -4507987.73842  23699003.923    23699000.502
  20618105.886   -26553405.43144 -20687553.43042  20618107.332    20618103.739
  21080820.424   -20751661.23844 -16156912.87142  21080821.770    21080817.865
  23121297.530   -12495052.88443  -9721031.05142  23121298.820    23121295.792
  24005697.984    -5793602.62843  -4507725.97142  24005698.722    24005696.354
 04  1 21  1 46 30.0000000  0 10G15G30G29G26G21G22G 6G18G16G17
  23280252.016   -12629668.26543  -9698659.24342  23280253.060    23280251.853
  24294193.949     5898511.83443   4626256.77042  24294195.858    24294194.160
  23024095.982   -13436331.39943 -10442151.37242  23024097.769    23024094.142
  21981225.914   -19310336.61443 -14925896.45042  21981227.858    21981224.443
  20738046.722   -26624373.34944 -20733766.02542  20738047.805    20738043.144
  23680065.815    -6047132.96543  -4585532.64842  23680066.480    23680062.964
  20625474.334   -26514683.79744 -20657380.72942  20625475.806    20625472.225
  21069682.986   -20810188.73544 -16202518.66842  21069684.332    21069680.416
  23116310.933   -12521257.37543  -9741450.10242  23116312.251    23116309.248
  24019250.256    -5722384.93243  -4452231.66142  24019250.979    24019248.642
 04  1 21  1 47  0.0000000  0 10G15G30G29G26G21G22G 6G18G16G17
  23266411.371   -12702400.77743  -9755333.83342  23266412.395    23266411.254
  24313988.002     6002530.26243   4707310.07342  24313989.963    24313988.269
  23027050.163   -13420807.03143 -10430054.44142  23027051.921    23027048.267
  21977077.418   -19332136.91243 -14942883.65042  21977079.362    21977075.924
  20734368.136   -26643704.24844 -20748829.02942  20734369.233    20734364.566
  23661168.423    -6146438.95043  -4662913.79842  23661169.087    23661165.484
  20632930.468   -26475501.53844 -20626849.09242  20632931.940    20632928.365
  21058627.571   -20868285.25744 -16247788.63842  21058628.919    21058624.985
  23111428.654   -12546913.86043  -9761442.13842  23111429.963    23111426.949
  24032812.674    -5651113.89743  -4396695.78442  24032813.428    24032811.043
 04  1 21  1 47 30.0000000  0 10G15G30G29G26G21G22G 6G18G16G17
  23252587.096   -12775047.60643  -9811941.68142  23252588.038    23252586.901
  24333769.394     6106482.50343   4788311.67342  24333771.305    24333769.861
  23030107.361   -13404741.31943 -10417535.67642  23030109.102    23030105.438
  21973046.297   -19353320.62143 -14959390.39642  21973048.220    21973044.762
  20730727.254   -26662837.09544 -20763737.71142  20730728.338    20730723.667
  23642310.558    -6245537.31643  -4740133.16642  23642311.222    23642307.486
  20640473.343   -26435863.42944 -20595962.25042  20640474.813    20640471.235
  21047653.359   -20925954.82344 -16292725.91342  21047654.731    21047650.781
  23106649.932   -12572026.30743  -9781010.24842  23106651.209    23106648.161
  24046384.378    -5579794.06543  -4341121.90642  24046385.097    24046382.781
 04  1 21  1 48  0.0000000  0 10G15G30G29G26G21G22G 6G18G16G17
  23238779.311   -12847607.89143  -9868482.06442  23238780.175    23238779.090
  24353537.841     6210367.03143   4869260.89442  24353539.833    24353538.257
  23033267.618   -13388133.91643 -10404594.82042  23033269.368    23033265.698
  21969132.886   -19373885.76143 -14975415.13642  21969134.779    21969131.317
  20727124.218   -26681771.02944 -20778491.39442  20727125.293    20727120.630
  23623492.646    -6344425.67743  -4817188.87442  23623493.303    23623489.649
  20648103.021   -26395769.12344 -20564719.92842  20648104.505    20648100.930
  21036760.810   -20983195.43344 -16337328.94242  21036762.174    21036758.227
  23101974.920   -12596593.58843  -9800153.55442  23101976.202    23101973.116
  24059965.496    -5508424.94343  -4285509.60842  24059966.155    24059963.891
 04  1 21  1 48 30.0000000  0 10G15G30G29G26G21G22G 6G18G16G17
  23224988.443   -12920078.81343  -9924952.81642  23224989.307    23224988.218
  24373293.663     6314182.87343   4950156.10742  24373295.424    24373293.575
  23036531.488   -13370982.17443 -10391229.79742  23036533.229    23036529.537
  21965337.982   -19393827.90243 -14990954.42542  21965339.886    21965336.402
  20723559.563   -26700503.29144 -20793087.92942  20723560.648    20723555.961
  23604715.510    -6443099.67243  -4894077.57042  23604716.163    23604712.496
  20655819.994   -26355216.18344 -20533120.23442  20655821.451    20655817.897
  21025950.539   -21040003.65544 -16381595.04242  21025951.886    21025947.948
  23097404.282   -12620612.48443  -9818869.53742  23097405.549    23097402.414
  24073556.481    -5437003.69243  -4229856.67742  24073557.128    24073554.862
 04  1 21  1 49  0.0000000  0 10G15G30G29G26G21G22G 6G18G16G17
  23211214.594   -12992460.51043  -9981354.06242  23211215.484    23211214.314
  24393035.704     6417928.70643   5030997.22642  24393037.705    24393035.850
  23039898.825   -13353286.41043 -10377440.86942  23039900.600    23039896.893
  21961661.868   -19413145.79643 -15006007.29442  21961663.774    21961660.284
  20720033.294   -26719033.94244 -20807527.36742  20720034.362    20720029.669
  23585979.394    -6541557.82143  -4970798.06642  23585980.059    23585976.453
  20663624.172   -26314204.93444 -20501163.41442  20663625.620    20663622.085
  21015222.681   -21096378.84044 -16425523.71542  21015224.018    21015220.073
  23092938.098   -12644082.56743  -9837157.89642  23092939.351    23092936.154
  24087157.384    -5365530.54043  -4174163.33442  24087158.094    24087155.645
 04  1 21  1 49 30.0000000  0 10G15G30G29G26G21G22G 6G18G16G17
  23197457.681   -13064752.87943 -10037685.70242  23197458.597    23197457.411
  24412763.840     6521600.85243   5111780.69442  24412765.827    24412764.184
  23043369.647   -13335046.70843 -10363228.08442  23043371.441    23043367.763
  21958104.889   -19431837.84043 -15020572.48742  21958106.762    21958103.261
  20716545.376   -26737362.90344 -20821809.64842  20716546.439    20716541.753
  23567284.807    -6639798.03743  -5047348.74242  23567285.420    23567281.855
  20671515.545   -26272735.30844 -20468849.41542  20671517.020    20671513.489
  21004577.412   -21152319.94444 -16469114.14242  21004578.748    21004574.793
  23088576.453   -12667003.10143  -9855018.03042  23088577.713    23088574.506
  24100768.198    -5294005.12043  -4118429.22942  24100768.994    24100766.535
 04  1 21  1 50  0.0000000  0 10G15G30G29G26G21G22G 6G18G16G17
  23183717.449   -13136957.99843 -10093949.35542  23183718.287    23183717.078
  24432477.371     6625195.33043   5192503.66642  24432479.332    24432477.538
  23046943.623   -13316265.34443 -10348593.22942  23046945.403    23046941.682
  21954666.901   -19449904.63343 -15034650.48842  21954668.749    21954665.214
  20713095.545   -26755491.84444 -20835936.06542  20713096.581    20713091.912
  23548631.648    -6737820.97843  -5123730.15142  23548632.245    23548628.442
  20679493.702   -26230809.83644 -20436180.22242  20679495.190    20679491.654
  20994014.438   -21207828.53744 -16512367.55042  20994015.772    20994011.821
  23084319.002   -12689375.89643  -9872451.33942  23084320.280    23084317.073
  24114388.515    -5222429.72643  -4062656.20142  24114389.439    24114386.866
 04  1 21  1 50 30.0000000  0 10G15G30G29G26G21G22G 6G18G16G17
  23169993.487   -13209077.43343 -10150146.22142  23169994.273    23169993.109
  24452175.093     6728707.72743   5273162.66442  24452177.097    24452175.267
  23050620.261   -13296944.25743 -10333537.81042  23050622.054    23050618.324
  21951347.810   -19467346.68243 -15048241.65742  21951349.595    21951346.087
  20709683.449   -26773422.43544 -20849907.92742  20709684.474    20709679.812
  23530019.784    -6835626.56843  -5199942.17242  23530020.360    23530016.529
  20687558.224   -26188430.49744 -20403157.36442  20687559.700    20687556.169
  20983533.721   -21262904.83244 -16555284.09442  20983535.065    20983531.112
  23080165.517   -12711202.40543  -9889458.98742  23080166.801    23080163.598
  24128018.028    -5150806.29443  -4006845.74442  24128019.009    24128016.479
 04  1 21  1 51  0.0000000  0 10G15G30G29G26G21G22G 6G18G16G17
  23156287.686   -13281101.64243 -10206268.89542  23156288.433    23156287.269
  24471858.586     6832144.82043   5353762.98642  24471860.545    24471858.528
  23054401.312   -13277074.52843 -10318054.88042  23054403.135    23054399.389
  21948149.691   -19484152.91443 -15061337.39342  21948151.456    21948147.931
  20706310.872   -26791145.29744 -20863717.92042  20706311.901    20706307.237
  23511451.413    -6933203.68443  -5275976.16942  23511451.959    23511448.045
  20695710.873   -26145588.12244 -20369773.70342  20695712.337    20695708.799
  20973137.153   -21317539.01044 -16597856.14142  20973138.495    20973134.533
  23076117.867   -12732472.57743  -9906033.11742  23076119.158    23076115.959
  24141658.520    -5079125.16443  -3950990.29542  24141659.545    24141656.897
 04  1 21  1 51 30.0000000  0 10G15G30G29G26G21G22G 6G18G16G17
  23142597.749   -13353042.35543 -10262326.51442  23142598.478    23142597.313
  24491524.879     6935492.30943   5434293.52042  24491526.965    24491524.882
  23058284.515   -13256668.21843 -10302153.84742  23058286.334    23058282.560
  21945070.458   -19500334.00843 -15073945.99842  21945072.291    21945068.775
  20702975.511   -26808672.54144 -20877375.48442  20702976.552    20702971.883
  23492924.506    -7030562.52943  -5351840.09242  23492925.107    23492921.132
  20703949.306   -26102294.82044 -20336038.66242  20703950.774    20703947.236
  20962822.535   -21371742.61844 -16640092.68142  20962823.877    20962819.888
  23072173.902   -12753198.22843  -9922182.95642  23072175.201    23072171.982
  24155307.785    -5007398.18843  -3895099.16542  24155308.729    24155306.024
 04  1 21  1 52  0.0000000  0 10G15G30G29G26G21G22G 6G18G16G17
  23128925.425   -13424890.48943 -10318311.99242  23128926.165    23128924.941
  24511175.396     7038756.53943   5514759.15542  24511177.553    24511175.511
  23062271.457   -13235716.52643 -10285827.82442  23062273.280    23062269.512
  21942112.207   -19515879.70943 -15086059.51042  21942114.006    21942110.488
  20699679.165   -26825994.84744 -20890873.35942  20699680.210    20699675.530
  23474441.230    -7127692.50243  -5427525.67842  23474441.822    23474437.774
  20712275.186   -26058542.00144 -20301945.55942  20712276.661    20712273.134
  20952591.770   -21425505.65144 -16681985.91342  20952593.079    20952589.088
  23068335.315   -12773369.89143  -9937901.10342  23068336.630    23068333.415
  24168967.411    -4935616.49043  -3839165.38042  24168968.389    24168965.644
 04  1 21  1 52 30.0000000  0 10G15G30G29G26G21G22G 6G18G16G17
  23115269.006   -13496654.90943 -10374232.24442  23115269.779    23115268.575
  24530807.960     7141926.18543   5595151.07142  24530810.113    24530808.161
  23066360.435   -13214228.79843 -10269084.11942  23066362.254    23066358.448
  21939273.407   -19530797.52943 -15097683.74442  21939275.227    21939271.687
  20696420.218   -26843120.55144 -20904218.04142  20696421.286    20696416.599
  23456000.108    -7224600.63043  -5503038.38942  23456000.751    23455996.691
  20720686.744   -26014338.90944 -20267501.59942  20720688.234    20720684.703
  20942443.285   -21478836.10544 -16723542.07042  20942444.607    20942440.603
  23064600.510   -12792996.21443  -9953194.31142  23064601.844    23064598.637
  24182635.826    -4863788.82643  -3783195.76542  24182636.665    24182634.011
 04  1 21  1 53  0.0000000  0 10G15G30G29G26G21G22G 6G18G16G17
  23101630.013   -13568328.11843 -10430081.40942  23101630.771    23101629.518
  24550423.328     7245006.01943   5675473.01442  24550425.546    24550423.692
  23070552.752   -13192198.04643 -10251917.28042  23070554.533    23070550.735
  21936555.726   -19545078.97643 -15108812.10842  21936557.531    21936553.998
  20693200.072   -26860042.41244 -20917403.88142  20693201.136    20693196.449
  23437602.884    -7321278.25843  -5578371.47842  23437603.536    23437599.470
  20729185.361   -25969678.50044 -20232701.27942  20729186.836    20729183.289
  20932378.555   -21531726.44944 -16764755.28442  20932379.864    20932375.875
  23060970.939   -12812069.66343  -9968056.71242  23060972.240    23060969.070
  24196314.368    -4791907.85943  -3727184.63342  24196315.246    24196312.542
 04  1 21  1 53 30.0000000  0 10G15G30G29G26G21G22G 6G18G16G17
  23088008.509   -13639909.28443 -10485858.86642  23088009.253    23088007.985
  24570021.238     7347994.26043   5755723.50642  24570023.344    24570021.852
  23074848.418   -13169623.99043 -10234327.08442  23074850.176    23074846.414
  21933959.542   -19558721.88443 -15119442.91042  21933961.374    21933957.810
  20690018.759   -26876760.19444 -20930430.69742  20690019.835    20690015.121
  23419249.977    -7417722.65743  -5653522.83142  23419250.674    23419246.598
  20737771.050   -25924560.39444 -20197544.31942  20737772.527    20737768.982
  20922398.000   -21584174.41344 -16805623.78842  20922399.315    20922395.306
  23057446.876   -12830588.95443  -9982487.30342  23057448.148    23057444.913
  24210003.181    -4719973.10143  -3671131.59342  24210003.965    24210001.202
 04  1 21  1 54  0.0000000  0 10G15G30G29G26G21G22G 6G18G16G17
  23074403.212   -13711405.11043 -10541569.82242  23074404.008    23074402.696
  24589600.099     7450881.68943   5835895.50942  24589602.047    24589600.629
  23079246.197   -13146513.66843 -10216319.02342  23079247.937    23079244.122
  21931483.774   -19571732.08743 -15129580.69642  21931485.598    21931481.993
  20686875.121   -26893279.97544 -20943303.22642  20686876.192    20686871.476
  23400940.571    -7513939.00743  -5728496.48342  23400941.211    23400937.162
  20746442.517   -25878991.62944 -20162036.19042  20746443.983    20746440.421
  20912500.357   -21636186.65144 -16846152.76642  20912501.693    20912497.673
  23054026.939   -12848560.76843  -9996491.27842  23054028.190    23054024.940
  24223700.922    -4647990.99643  -3615041.65042  24223701.594    24223699.074
 04  1 21  1 54 30.0000000  0 11G15G30G29G26G21G22G 6G 2G18G16G17
  23060814.310   -13782814.78743 -10597213.64242  23060815.133    23060813.808
  24609159.477     7553666.48043   5915987.62842  24609161.543    24609159.726
  23083745.993   -13122866.83943 -10197892.90742  23083747.751    23083743.950
  21929128.755   -19584107.55043 -15139223.88842  21929130.595    21929126.960
  20683769.337   -26909600.88944 -20956020.80042  20683770.398    20683765.686
  23382675.035    -7609924.81243  -5803290.48742  23382675.696    23382671.567
  20755199.808   -25832971.88044 -20126176.64342  20755201.260    20755197.707
  25332410.723    -5174588.74653  -4005257.27652  25332411.878    25332411.122
  20902685.941   -21687761.54844 -16886340.95842  20902687.276    20902683.265
  23050711.425   -12865984.17443 -10010067.93742  23050712.649    23050709.350
  24237407.881    -4575960.77443  -3558914.24742  24237408.477    24237406.079
 04  1 21  1 55  0.0000000  0 11G15G30G29G26G21G22G 6G 2G18G16G17
  23047243.795   -13854128.15243 -10652782.41742  23047244.623    23047243.242
  24628700.652     7656356.21243   5996005.63442  24628702.639    24628700.724
  23088349.756   -13098673.97143 -10179041.29942  23088351.477    23088347.730
  21926896.671   -19595837.14743 -15148363.79642  21926898.496    21926894.878
  20680703.255   -26925713.09344 -20968575.74342  20680704.326    20680699.622
  23364455.421    -7705668.71743  -5877896.00242  23364456.099    23364451.945
  20764044.641   -25786491.83544 -20089958.42842  20764046.110    20764042.563
  25322967.452    -5224213.41843  -4043925.79242  25322968.585    25322967.683
  20892956.753   -21738888.61344 -16926180.19342  20892958.082    20892954.052
  23047502.148   -12882849.11143 -10023209.41942  23047503.361    23047500.017
  24251125.829    -4503872.71343  -3502741.72642  24251126.334    24251124.202
 04  1 21  1 55 30.0000000  0 10G15G29G26G21G22G 6G 2G18G16G17
  23033690.948   -13925348.69643 -10708278.85542  23033691.779    23033690.336
  23093056.586   -13073939.31943 -10159767.54042  23093058.310    23093054.551
  21924786.935   -19606923.61943 -15157002.57642  21924788.766    21924785.185
  20677676.252   -26941620.01844 -20980970.72742  20677677.323    20677672.599
  23346281.500    -7801172.82943  -5952314.66442  23346282.162    23346278.013
  20772976.319   -25739555.62944 -20053384.76642  20772977.775    20772974.217
  25313596.668    -5273457.04143  -4082297.37242  25313597.775    25313596.991
  20883312.225   -21789570.83844 -16965672.79542  20883313.563    20883309.517
  23044398.510   -12899159.00643 -10035918.39542  23044399.707    23044396.315
  24264854.126    -4431730.40143  -3446526.95942  24264854.481    24264852.347
 04  1 21  1 56  0.0000000  0 10G15G29G26G21G22G 6G 2G18G16G17
  23020153.769   -13996486.52843 -10763710.84642  23020154.640    23020153.174
  23097864.491   -13048673.38243 -10140079.78442  23097866.225    23097862.454
  21922797.926   -19617375.81343 -15165147.11142  21922799.740    21922796.181
  20674686.489   -26957331.21744 -20993213.19742  20674687.562    20674682.835
  23328151.673    -7896445.26543  -6026552.79642  23328152.343    23328148.185
  20781992.849   -25692173.51344 -20016463.63642  20781994.292    20781990.738
  25304296.787    -5322328.26143  -4120378.78942  25304297.966    25304297.095
  20873750.594   -21839817.46544 -17004825.97242  20873751.908    20873747.852
  23041398.533   -12914923.61643 -10048202.48342  23041399.826    23041396.371
  24278590.853    -4359543.76743  -3390277.67742  24278591.153    24278588.734
 04  1 21  1 56 30.0000000  0 10G15G29G26G21G22G 6G 2G18G16G17
  23006634.450   -14067530.43343 -10819069.65142  23006635.374    23006633.844
  23102775.510   -13022865.63643 -10119969.84542  23102777.224    23102773.486
  21920931.925   -19627181.60943 -15172787.96542  21920933.772    21920930.161
  20671736.023   -26972835.91644 -21005294.76042  20671737.094    20671732.375
  23310068.306    -7991473.42043  -6100600.57942  23310068.959    23310064.862
  20791096.207   -25644335.01144 -19979186.88642  20791097.666    20791094.109
  25295070.088    -5370814.85043  -4158160.48742  25295071.053    25295070.225
  20864274.004   -21889617.12444 -17043630.86142  20864275.322    20864271.259
  23038504.482   -12930131.84143 -10060053.01642  23038505.796    23038502.306
  24292338.149    -4287301.75743  -3333985.21842  24292338.517    24292336.125
 04  1 21  1 57  0.0000000  0 10G15G29G26G21G22G 6G 2G18G16G17
  22993131.617   -14138487.91043 -10874361.09842  22993132.565    22993131.027
  23107788.108   -12996524.08643 -10099443.94242  23107789.857    23107786.106
  21919187.690   -19636347.58743 -15179930.25942  21919189.542    21919185.872
  20668823.421   -26988141.63844 -21017221.27542  20668824.486    20668819.764
  23292030.355    -8086263.18843  -6174462.61842  23292030.987    23292026.796
  20800284.870   -25596048.22544 -19941560.82742  20800286.334    20800282.772
  25285915.294    -5418923.37143  -4195647.58842  25285916.307    25285915.560
  20854881.116   -21938976.97044 -17082093.03842  20854882.430    20854878.342
  23035714.886   -12944791.31143 -10071475.95542  23035716.208    23035712.691
  24306094.555    -4215011.76043  -3277655.38242  24306094.906    24306092.360
 04  1 21  1 57 30.0000000  0 10G15G29G26G21G22G 6G 2G18G16G17
  22979645.713   -14209356.31743 -10929583.14542  22979646.734    22979645.145
  23112902.633   -12969647.06643 -10078500.79342  23112904.389    23112900.624
  21917565.809   -19644870.39943 -15186571.38142  21917567.684    21917564.017
  20665949.196   -27003245.74544 -21028990.68542  20665950.257    20665945.534
  23274038.414    -8180810.93543  -6248136.06242  23274039.025    23274034.843
  20809559.189   -25547311.26544 -19903583.98642  20809560.665    20809557.106
  25276833.015    -5466650.22643  -4232837.27342  25276834.172    25276833.413
  20845572.561   -21987893.59644 -17120209.84942  20845573.872    20845569.772
  23033030.149   -12958899.57943 -10082469.37542  23033031.465    23033027.960
  24319860.440    -4142671.61543  -3221286.47242  24319860.711    24319858.457
 04  1 21  1 58  0.0000000  0 10G15G29G26G21G22G 6G 2G18G16G17
  22966177.202   -14280133.52743 -10984734.13942  22966178.229    22966176.660
  23118119.318   -12942233.21843 -10057139.34742  23118121.090    23118117.328
  21916066.888   -19652747.11643 -15192709.05642  21916068.777    21916065.100
  20663113.807   -27018145.82044 -21040601.11642  20663114.854    20663110.129
  23256093.274    -8275112.73543  -6321617.87142  23256093.884    23256089.688
  20818919.489   -25498122.61744 -19865255.18142  20818920.946    20818917.397
  25267824.101    -5513992.25343  -4269727.11142  25267825.325    25267824.403
  20836348.845   -22036364.30944 -17157979.19842  20836350.153    20836346.050
  23030450.716   -12972454.43843 -10093031.57542  23030452.031    23030448.548
  24333636.468    -4070279.06943  -3164876.71342  24333636.220    24333634.208
 04  1 21  1 58 30.0000000  0 10G15G29G26G21G22G 6G 2G18G16G17
  22952725.611   -14350821.88043 -11039815.88042  22952726.648    22952725.032
  23123437.621   -12914285.40843 -10035361.81342  23123439.351    23123435.565
  21914690.659   -19659979.21843 -15198344.43342  21914692.544    21914688.832
  20660316.738   -27032844.34544 -21052054.48742  20660317.787    20660313.075
  23238194.750    -8369169.67543  -6394908.88842  23238195.380    23238191.115
  20828365.157   -25448485.23043 -19826576.69842  20828366.627    20828363.090
  25258888.184    -5560950.71643  -4306318.06442  25258889.315    25258888.410
  20827209.552   -22084391.38944 -17195402.85742  20827210.870    20827206.761
  23027976.162   -12985458.29643 -10103164.42042  23027977.497    23027973.956
  24347421.942    -3997836.47543  -3108427.95742  24347421.846    24347419.638
 04  1 21  1 59  0.0000000  0 10G15G29G26G21G22G 6G 2G18G16G17
  22939291.909   -14421416.05143 -11094824.23642  22939292.966    22939291.332
  23128858.332   -12885799.06143 -10013164.64442  23128860.090    23128856.311
  21913438.240   -19666560.67143 -15203472.81242  21913440.104    21913436.374
  20657559.048   -27047335.94344 -21063346.62342  20657560.106    20657555.400
  23220344.056    -8462975.09743  -6468003.90142  23220344.644    23220340.484
  20837897.119   -25398394.53044 -19787544.99442  20837898.583    20837895.042
  25250026.361    -5607519.48543  -4342605.35842  25250027.489    25250026.575
  20818155.814   -22131969.08244 -17232476.35242  20818157.109    20818152.969
  23025607.393   -12997906.11343 -10112863.99342  23025608.768    23025605.192
  24361217.835    -3925338.90743  -3051936.38742  24361217.786    24361215.864
 04  1 21  1 59 30.0000000  0  9G15G29G26G21G22G 6G 2G18G16
  22925877.161   -14491910.85843 -11149755.16042  22925878.245    22925876.547
  23134382.373   -12856770.06143  -9990544.63842  23134384.111    23134380.319
  21912310.737   -19672485.59843 -15208089.61642  21912312.574    21912308.893
  20654841.714   -27061615.57144 -21074473.58742  20654842.763    20654838.057
  23202542.594    -8556522.05343  -6540897.51942  23202543.179    23202539.018
  20847516.156   -25347846.03643 -19748156.56042  20847517.631    20847514.095
  25241239.885    -5653692.17243  -4378584.03242  25241241.052    25241240.156
  20809188.581   -22179091.94544 -17269195.42942  20809189.896    20809185.742
  23023345.359   -13009792.99943 -10122126.47742  23023346.724    23023343.132
 04  1 21  2  0  0.0000000  0  9G15G29G26G21G22G 6G 2G18G16
  22912477.724   -14562325.04243 -11204623.27842  22912478.794    22912477.085
  23140005.950   -12827217.82043  -9967516.90242  23140007.708    23140003.932
  21911304.699   -19677772.12243 -15212208.94242  21911306.536    21911302.885
  20652161.165   -27075701.82244 -21085449.86642  20652162.224    20652157.511
  23184786.932    -8649828.13043  -6613603.43442  23184787.540    23184783.355
  20857218.618   -25296859.26743 -19708426.61342  20857220.089    20857216.565
  25232525.478    -5699486.54543  -4414267.90542  25232526.556    25232525.604
  20800304.495   -22225777.99344 -17305574.13842  20800305.796    20800301.631
  23021186.467   -13021137.75143 -10130966.51742  23021187.850    23021184.291
 04  1 21  2  0 30.0000000  0  9G15G29G26G21G22G 6G 2G18G16
  22899095.534   -14632648.73543 -11259420.87842  22899096.578    22899094.833
  23145730.847   -12797133.32443  -9944074.42942  23145732.596    23145728.777
  21910422.219   -19682409.53643 -15215822.48942  21910424.040    21910420.374
  20649519.330   -27089584.66444 -21096267.64642  20649520.384    20649515.672
  23167079.320    -8742881.70443  -6686112.59442  23167079.937    23167075.744
  20867006.261   -25245425.04243 -19668348.00942  20867007.711    20867004.193
  25223885.163    -5744891.83243  -4449648.60742  25223886.250    25223885.263
  20791505.458   -22272017.03444 -17341604.52842  20791506.761    20791502.590
  23019132.700   -13031930.59243 -10139376.49642  23019134.005    23019130.473
 04  1 21  2  1  0.0000000  0  9G15G29G26G21G22G 6G 2G18G16
  22885729.617   -14702886.75943 -11314151.71942  22885730.669    22885728.880
  23151555.897   -12766522.31943  -9920221.67442  23151557.691    23151553.854
  21909662.404   -19686402.19143 -15218933.62342  21909664.231    21909660.565
  20646915.239   -27103269.12644 -21106930.85042  20646916.308    20646911.582
  23149419.084    -8835686.60543  -6758427.99142  23149419.681    23149415.435
  20876877.942   -25193548.97543 -19627925.10542  20876879.398    20876875.889
  25215318.041    -5789912.11343  -4484729.29642  25215319.120    25215318.074
  20782790.595   -22317813.80943 -17377290.29542  20782791.902    20782787.706
  23017182.908   -13042176.75143 -10147360.49342  23017184.217    23017180.684
 04  1 21  2  1 30.0000000  0  9G15G29G26G21G22G 6G 2G18G16
  22872381.981   -14773028.83943 -11368807.80542  22872383.021    22872381.201
  23157482.949   -12735375.35343  -9895951.30442  23157484.733    23157480.899
  21909027.387   -19689739.13243 -15221533.82142  21909029.222    21909025.546
  20644350.941   -27116744.49344 -21117431.12042  20644352.033    20644347.297
  23131808.370    -8928230.86543  -6830540.28042  23131808.967    23131804.699
  20886835.520   -25141221.54243 -19587150.49642  20886836.962    20886833.485
  25206826.318    -5834536.01343  -4519501.12042  25206827.469    25206826.350
  20774161.965   -22363157.43943 -17412622.96342  20774163.257    20774159.058
  23015339.058   -13051865.98543 -10154910.52542  23015340.356    23015336.830
 04  1 21  2  2  0.0000000  0  9G15G29G26G21G22G 6G 2G18G16
  22859051.680   -14843079.88543 -11423392.95442  22859052.689    22859050.865
  23163510.877   -12703698.17043  -9871267.77242  23163512.681    23163508.877
  21908516.371   -19692424.66243 -15223626.41542  21908518.167    21908514.480
  20641825.461   -27130015.94144 -21127772.48742  20641826.548    20641821.802
  23114246.634    -9020517.89643  -6902452.12442  23114247.247    23114242.976
  20896877.944   -25088448.32143 -19546028.50942  20896879.360    20896875.894
  25198409.315    -5878767.46143  -4553967.14042  25198410.401    25198409.239
  20765618.648   -22408052.72944 -17447606.27642  20765619.932    20765615.757
  23013600.205   -13061003.51443 -10162030.64642  23013601.490    23013597.985
 04  1 21  2  2 30.0000000  0  9G15G29G26G21G22G 6G 2G18G16
  22845738.651   -14913039.95643 -11477907.21842  22845739.579    22845737.835
  23169639.511   -12671491.99143  -9846172.04742  23169641.307    23169637.493
  21908129.313   -19694458.44443 -15225211.15642  21908131.162    21908127.434
  20639338.782   -27143083.54044 -21137955.02042  20639339.844    20639335.101
  23096734.099    -9112546.68143  -6974162.74542  23096734.680    23096730.361
  20907004.968   -25035230.32543 -19504559.94142  20907006.398    20907002.957
  25190067.124    -5922605.88343  -4588126.90942  25190068.200    25190067.027
  20757160.666   -22452499.58943 -17482240.16242  20757161.939    20757157.770
  23011966.194   -13069590.01543 -10168721.41042  23011967.485    23011963.999
 04  1 21  2  3  0.0000000  0  9G15G29G26G21G22G 6G 2G18G16
  22832442.779   -14982910.05643 -11532351.37442  22832443.691    22832441.902
  23175868.467   -12638758.74043  -9820665.62442  23175870.214    23175866.426
  21907866.204   -19695841.08143 -15226288.51442  21907868.027    21907864.262
  20636890.685   -27155948.18044 -21147979.40042  20636891.775    20636887.028
  23079270.626    -9204317.07643  -7045672.01842  23079271.218    23079266.874
  20917216.276   -24981569.61243 -19462746.40942  20917217.712    20917214.270
  25181799.723    -5966051.33543  -4621980.47742  25181800.777    25181799.701
  20748787.844   -22496498.92944 -17516525.32842  20748789.112    20748784.955
  23010436.846   -13077626.87843 -10174983.87842  23010438.127    23010434.638
 04  1 21  2  3 30.0000000  0  9G15G29G26G21G22G 6G 2G18G16
  22819164.617   -15052686.77443 -11586722.76342  22819165.565    22819163.736
  23182198.141   -12605496.10543  -9794746.66742  23182199.876    23182196.090
  21907727.752   -19696568.64743 -15226855.42742  21907729.574    21907725.801
  20634481.876   -27168606.42844 -21157842.95542  20634482.979    20634478.228
  23061857.336    -9295824.20443  -7116976.17142  23061857.940    23061853.517
  20927512.299   -24927463.69043 -19420585.96642  20927513.725    20927510.289
  25173607.841    -6009099.68843  -4655524.59342  25173608.938    25173607.714
  20740500.944   -22540046.71843 -17550458.63742  20740502.227    20740498.048
  23009012.524   -13085111.14343 -10180815.75242  23009013.884    23009010.400
 04  1 21  2  4  0.0000000  0  9G15G29G26G21G22G 6G 2G18G16
  22805903.974   -15122371.45243 -11641022.43742  22805904.936    22805903.112
  23188628.137   -12571706.09343  -9768416.79142  23188629.875    23188626.130
  21907713.749   -19696642.01543 -15226912.58442  21907715.593    21907711.833
  20632112.150   -27181059.36144 -21167546.52542  20632113.227    20632108.489
  23044494.143    -9387067.77843  -7188074.93742  23044494.752    23044490.349
  20937892.704   -24872914.39943 -19378080.04242  20937894.133    20937890.677
  25165491.509    -6051751.30643  -4688759.57842  25165492.511    25165491.437
  20732299.726   -22583144.33743 -17584041.16542  20732300.998    20732296.807
  23007693.132   -13092044.19643 -10186218.11842  23007694.507    23007691.023
 04  1 21  2  4 30.0000000  0  9G15G29G26G21G22G 6G 2G18G16
  22792660.645   -15191965.31343 -11695251.34542  22792661.566    22792659.759
  23195158.002   -12537391.26143  -9741677.94042  23195159.760    23195156.054
  21907824.167   -19696061.80943 -15226460.45942  21907825.994    21907822.235
  20629781.278   -27193308.04344 -21177090.93742  20629782.365    20629777.619
  23027181.134    -9478047.74443  -7258968.30542  23027181.764    23027177.311
  20948357.077   -24817923.89744 -19335230.30442  20948358.501    20948355.040
  25157450.608    -6094006.49343  -4721685.66342  25157451.544    25157450.531
  20724184.006   -22625792.68943 -17617273.61642  20724185.254    20724181.055
  23006478.331   -13098427.81543 -10191192.34042  23006479.711    23006476.188
 04  1 21  2  5  0.0000000  0  9G15G29G26G21G22G 6G 2G18G16
  22779434.375   -15261469.55143 -11749410.40342  22779435.290    22779433.485
  23201787.307   -12502553.82543  -9714531.88342  23201789.089    23201785.395
  21908058.672   -19694829.38843 -15225500.10842  21908060.497    21908056.721
  20627488.972   -27205354.17044 -21186477.51242  20627490.042    20627485.288
  23009918.276    -9568764.24343  -7329656.38542  23009918.882    23009914.381
  20958904.952   -24762494.58943 -19292038.64642  20958906.369    20958902.883
  25149484.919    -6135865.98143  -4754303.41142  25149485.990    25149484.935
  20716153.514   -22667993.08743 -17650157.01642  20716154.759    20716150.560
  23005367.808   -13104263.78443 -10195739.82742  23005369.137    23005365.592
 04  1 21  2  5 30.0000000  0  9G15G29G26G21G22G 6G 2G18G16
  22766226.491   -15330877.18743 -11803494.20342  22766227.385    22766225.563
  23208517.205   -12467187.95943  -9686974.05142  23208518.953    23208515.286
  21908418.736   -19692937.27443 -15224025.71442  21908420.559    21908416.757
  20625236.573   -27217190.55344 -21195700.65442  20625237.647    20625232.867
  22992707.111    -9659208.86743  -7400132.60242  22992707.712    22992703.259
  20969537.453   -24706620.30543 -19248500.24942  20969538.891    20969535.396
  25141596.075    -6177321.88743  -4786606.67042  25141597.091    25141596.077
  20708209.661   -22709738.15643 -17682685.61442  20708210.911    20708206.699
  23004362.690   -13109545.61143 -10199855.52742  23004364.018    23004360.442
 04  1 21  2  6  0.0000000  0  9G15G29G26G21G22G 6G 2G18G16
  22753035.727   -15400194.99343 -11857507.99642  22753036.597    22753034.743
  23215346.196   -12431301.39443  -9659010.48642  23215347.904    23215344.308
  21908903.077   -19690391.86443 -15222042.25042  21908904.921    21908901.104
  20623022.820   -27228823.86444 -21204765.55442  20623023.886    20623019.111
  22975546.698    -9749387.24943  -7470401.37242  22975547.276    22975542.787
  20980253.202   -24650308.75343 -19204621.13242  20980254.635    20980251.133
  25133782.943    -6218380.10143  -4818600.05442  25133783.891    25133782.935
  20700351.237   -22751034.32143 -17714864.41442  20700352.487    20700348.276
  23003461.628   -13114280.48343 -10203545.02542  23003462.936    23003459.431
 04  1 21  2  6 30.0000000  0  9G15G29G26G21G22G 6G 2G18G16
  22739862.233   -15469422.05743 -11911451.09742  22739863.080    22739861.197
  23222274.249   -12394894.38843  -9630641.38142  23222275.921    23222272.305
  21909511.980   -19687191.92243 -15219548.77442  21909513.822    21909510.016
  20620847.916   -27240253.01944 -21213671.36942  20620848.971    20620844.189
  22958437.309    -9839297.12243  -7540460.91442  22958437.829    22958433.391
  20991052.152   -24593559.93343 -19160401.29042  20991053.605    20991050.103
  25126045.825    -6259038.97743  -4850282.26042  25126046.833    25126045.757
  20692578.370   -22791880.85743 -17746692.85542  20692579.626    20692575.415
  23002664.804   -13118467.98143 -10206807.99742  23002666.084    23002662.568
 04  1 21  2  7  0.0000000  0  9G15G29G26G21G22G 6G 2G18G16
  22726706.790   -15538554.14143 -11965320.17442  22726707.626    22726705.714
  23229301.837   -12357964.02443  -9601864.46542  23229303.546    23229299.905
  21910246.294   -19683333.10343 -15216541.87842  21910248.118    21910244.303
  20618712.627   -27251473.98744 -21222414.96442  20618713.684    20618708.880
  22941380.108    -9928932.93343  -7610306.91242  22941380.643    22941376.113
  21001934.957   -24536370.53843 -19115838.13242  21001936.399    21001932.880
  25118385.557    -6299293.66443  -4881649.52142  25118386.613    25118385.513
  20684891.856   -22832273.85043 -17778167.88942  20684893.088    20684888.872
  23001972.788   -13122104.67143 -10209641.76542  23001974.066    23001970.489
 04  1 21  2  7 30.0000000  0  9G15G29G26G21G22G 6G 2G18G16
  22713569.250   -15607592.02343 -12019115.85942  22713570.110    22713568.175
  23236428.645   -12320512.22543  -9572681.23742  23236430.390    23236426.728
  21911105.855   -19678816.16643 -15213022.17642  21911107.646    21911103.840
  20616616.850   -27262487.27944 -21230996.73442  20616617.908    20616613.107
  22924375.062   -10018294.47143  -7679939.18442  22924375.596    22924371.058
  21012901.226   -24478742.60043 -19070933.26042  21012902.640    21012899.122
  25110802.212    -6339144.42943  -4912702.01642  25110803.304    25110802.111
  20677291.522   -22872213.79943 -17809289.89942  20677292.744    20677288.526
  23001385.310   -13125191.96443 -10212047.42442  23001386.595    23001382.949
 04  1 21  2  8  0.0000000  0  9G15G29G26G21G22G 6G 2G18G16
  22700448.709   -15676540.54943 -12072841.92242  22700449.586    22700447.632
  23243653.527   -12282545.11243  -9543096.47142  23243655.257    23243651.574
  21912089.746   -19673645.78643 -15208993.28642  21912091.512    21912087.725
  20614559.671   -27273297.74444 -21239420.45542  20614560.735    20614555.920
  22907421.572   -10107385.17543  -7749360.42142  22907422.088    22907417.530
  21023949.849   -24420681.82043 -19025691.11042  21023951.247    21023947.719
  25103294.914    -6378595.41243  -4943442.99242  25103295.982    25103294.844
  20669776.546   -22911705.10543 -17840062.31842  20669777.770    20669773.556
  23000901.316   -13127735.23743 -10214029.18442  23000902.637    23000898.965
 04  1 21  2  8 30.0000000  0  9G15G29G26G21G22G 6G 2G18G16
  22687346.562   -15745392.44643 -12126492.68942  22687347.438    22687345.473
  23250977.671   -12244056.67843  -9513105.47342  23250979.344    23250975.715
  21913199.361   -19667814.55043 -15204449.44342  21913201.149    21913197.340
  20612542.513   -27283897.96744 -21247680.35542  20612543.567    20612538.737
  22890521.251   -10196196.64843  -7818564.08542  22890521.779    22890517.210
  21035081.980   -24362182.10343 -18980106.91842  21035083.394    21035079.869
  25095865.220    -6417638.74743  -4973866.36142  25095866.348    25095865.188
  20662348.279   -22950740.77143 -17870479.69342  20662349.522    20662345.311
  23000522.150   -13129727.91543 -10215581.89842  23000523.396    23000519.768
 04  1 21  2  9  0.0000000  0  9G15G29G26G21G22G 6G 2G18G16
  22674262.034   -15814151.63643 -12180071.21142  22674262.931    22674260.929
  23258399.983   -12205052.14143  -9482712.32342  23258401.697    23258398.040
  21914433.965   -19661326.47843 -15199393.78242  21914435.782    21914431.970
  20610564.593   -27294292.07644 -21255779.64342  20610565.615    20610560.788
  22873673.477   -10284731.65243  -7887552.31542  22873673.996    22873669.510
  21046296.675   -24303248.55343 -18934184.68042  21046298.084    21046294.554
  25088512.423    -6456277.67543  -5003974.58442  25088513.570    25088512.364
  20655005.949   -22989324.81643 -17900545.15642  20655007.198    20655002.985
  23000246.860   -13131174.62243 -10216709.18842  23000248.117    23000244.442
 04  1 21  2  9 30.0000000  0  9G15G29G26G21G22G 6G 2G18G16
  22661194.975   -15882819.30043 -12233578.42242  22661195.871    22661193.824
  23265920.066   -12165533.81943  -9451918.82342  23265921.769    23265918.103
  21915793.381   -19654182.66543 -15193827.16342  21915795.195    21915791.377
  20608625.704   -27304480.98444 -21263719.03742  20608626.703    20608621.876
  22856878.447   -10372989.99043  -7956324.97442  22856878.964    22856874.413
  21057593.497   -24243883.42943 -18887926.15942  21057594.900    21057591.371
  25081236.527    -6494512.60143  -5033767.99042  25081237.632    25081236.411
  20647749.407   -23027458.07143 -17930259.35542  20647750.659    20647746.446
  23000075.013   -13132077.28643 -10217412.54042  23000076.320    23000072.627
 04  1 21  2 10  0.0000000  0  9G15G29G26G21G22G 6G 2G18G16
  22648146.112   -15951391.47843 -12287011.23242  22648146.985    22648144.896
  23273538.438   -12125499.06043  -9420722.89642  23273540.126    23273536.418
  21917278.372   -19646378.90143 -15187746.29242  21917280.191    21917276.397
  20606726.663   -27314460.52144 -21271495.28642  20606727.681    20606722.824
  22840136.969   -10460966.54443  -8024878.05142  22840137.468    22840132.976
  21068973.016   -24184083.75543 -18841329.03042  21068974.406    21068970.897
  25074038.355    -6532338.83243  -5063242.94242  25074039.422    25074038.297
  20640579.397   -23065136.58743 -17959619.21242  20640580.635    20640576.442
  23000007.361   -13132432.47343 -10217689.30542  23000008.662    23000005.018
 04  1 21  2 10 30.0000000  0  9G15G29G26G21G22G 6G 2G18G16
  22635115.224   -16019868.85943 -12340370.16742  22635116.122    22635114.029
  23281254.649   -12084950.03643  -9389126.24642  23281256.335    23281252.696
  21918888.772   -19637916.24543 -15181152.00942  21918890.570    21918886.746
  20604867.281   -27324231.62644 -21279109.11742  20604868.309    20604863.423
  22823449.174   -10548660.95943  -8093211.28242  22823449.734    22823445.185
  21080434.831   -24123851.44343 -18794394.77242  21080436.255    21080432.746
  25066917.968    -6569756.64343  -5092399.64142  25066919.077    25066917.902
  20633495.703   -23102361.52343 -17988625.62642  20633496.943    20633492.744
  23000043.616   -13132242.01643 -10217540.88742  23000044.860    23000041.258
 04  1 21  2 11  0.0000000  0  9G15G29G26G21G22G 6G 2G18G16
  22622102.160   -16088252.82643 -12393656.32342  22622103.043    22622100.917
  23289068.230   -12043889.41643  -9357130.95542  23289069.932    23289066.288
  21920624.295   -19628795.96343 -15174045.28542  21920626.091    21920622.226
  20603047.399   -27333795.07644 -21286561.14142  20603048.431    20603043.542
  22806815.090   -10636073.43643  -8161324.83342  22806815.644    22806811.074
  21091978.533   -24063188.96943 -18747125.32942  21091979.943    21091976.431
  25059875.075    -6606766.82143  -5121238.70742  25059876.201    25059875.041
  20626498.111   -23139133.93643 -18017279.42642  20626499.372    20626495.158
  23000183.274   -13131507.98543 -10216968.90142  23000184.561    23000180.897
 04  1 21  2 11 30.0000000  0  9G15G29G26G21G22G 6G 2G18G16
  22609107.104   -16156541.96943 -12446868.59342  22609108.021    22609105.828
  23296979.147   -12002317.27543  -9324737.07142  23296980.841    23296977.161
  21922485.255   -19619016.61643 -15166424.99342  21922487.036    21922483.167
  20601267.177   -27343150.05144 -21293850.71642  20601268.228    20601263.317
  22790235.114   -10723201.45443  -8229216.72242  22790235.681    22790231.097
  21103604.138   -24002096.14443 -18699520.54742  21103605.554    21103602.022
  25052910.160    -6643367.57143  -5149758.73042  25052911.351    25052910.147
  20619586.798   -23175453.02443 -18045579.99142  20619588.050    20619583.828
  23000426.486   -13130229.54343 -10215972.70242  23000427.806    23000424.181
 04  1 21  2 12  0.0000000  0  9G15G29G26G21G22G 6G 2G18G16
  22596129.507   -16224739.37643 -12500009.37542  22596130.447    22596128.251
  23304986.613   -11960237.81343  -9291947.87042  23304988.284    23304984.669
  21924470.905   -19608581.82243 -15158293.96342  21924472.696    21924468.835
  20599526.059   -27352299.53044 -21300980.16042  20599527.126    20599522.216
  22773708.928   -10810046.97643  -8296888.49442  22773709.493    22773704.863
  21115310.793   -23940577.33543 -18651583.83942  21115312.208    21115308.666
  25046022.683    -6679561.39143  -5177961.67642  25046023.811    25046022.615
  20612761.289   -23211321.34043 -18073529.30542  20612762.523    20612758.278
  23000772.582   -13128410.72843 -10214555.44042  23000773.884    23000770.262
 04  1 21  2 12 30.0000000  0  9G15G29G26G21G22G 6G 2G18G16
  22583170.657   -16292838.37343 -12553073.47342  22583171.607    22583169.393
  23313091.512   -11917646.35643  -9258759.71342  23313093.181    23313089.533
  21926582.541   -19597484.91243 -15149647.01142  21926584.344    21926580.485
  20597825.324   -27361236.91244 -21307944.33542  20597826.366    20597821.479
  22757237.916   -10896602.23143  -8364334.08042  22757238.464    22757233.865
  21127099.551   -23878627.07543 -18603310.92642  21127100.954    21127097.419
  25039213.969    -6715341.34143  -5205842.11442  25039215.017    25039213.898
  20606022.722   -23246732.70643 -18101122.54742  20606023.945    20606019.686
  23001222.577   -13126045.98043 -10212712.77542  23001223.873    23001220.256
 04  1 21  2 13  0.0000000  0  9G15G29G26G21G22G 6G 2G18G16
  22570229.498   -16360844.35543 -12606065.09142  22570230.472    22570228.294
  23321292.576   -11874549.45543  -9225177.70342  23321294.176    23321290.574
  21928819.084   -19585731.64843 -15140488.59342  21928820.916    21928817.075
  20596164.060   -27369966.91444 -21314746.91842  20596165.089    20596160.196
  22740821.382   -10982871.77243  -8431557.04842  22740821.923    22740817.269
  21138969.143   -23816251.89543 -18554706.90742  21138970.555    21138967.059
  25032483.064    -6750712.25043  -5233403.83442  25032484.160    25032483.012
  20599370.060   -23281692.63343 -18128364.02142  20599371.282    20599366.990
  23001775.298   -13123141.52543 -10210449.55442  23001776.582    23001772.966
 04  1 21  2 13 30.0000000  0  9G15G29G26G21G22G 6G 2G18G16
  22557307.079   -16428752.02043 -12658980.10742  22557308.058    22557305.807
  23329590.499   -11830943.30643  -9191198.87042  23329592.162    23329588.583
  21931181.523   -19573316.93243 -15130814.77342  21931183.348    21931179.498
  20594543.177   -27378484.55244 -21321384.02342  20594544.227    20594539.306
  22724460.408   -11068848.70443  -8498551.99242  22724460.945    22724456.316
  21150920.354   -23753447.86143 -18505768.70842  21150921.775    21150918.289
  25025831.146    -6785668.38843  -5260642.34342  25025832.249    25025831.091
  20592804.220   -23316196.22943 -18155249.91542  20592805.448    20592801.144
  23002431.509   -13119693.11743 -10207762.47742  23002432.813    23002429.149
 04  1 21  2 14  0.0000000  0  9G15G29G26G21G22G 6G 2G18G16
  22544402.064   -16496568.13143 -12711823.77742  22544403.064    22544400.781
  23337983.750   -11786836.22643  -9156829.69842  23337985.467    23337981.855
  21933668.450   -19560247.80243 -15120631.01742  21933670.297    21933666.467
  20592961.441   -27386796.55644 -21327860.89242  20592962.497    20592957.561
  22708154.125   -11154538.91643  -8565323.53742  22708154.630    22708149.936
  21162951.660   -23690223.04843 -18456502.65642  21162953.067    21162949.598
  25019256.948    -6820215.86943  -5287562.43242  25019257.967    25019256.852
  20586323.930   -23350250.23043 -18181785.47442  20586325.176    20586320.865
  23003189.778   -13115708.34743 -10204657.45842  23003191.083    23003187.450
 04  1 21  2 14 30.0000000  0  9G15G29G26G21G22G 6G 2G18G16
  22531515.762   -16564285.89443 -12764590.81742  22531516.786    22531514.474
  23346473.400   -11742222.79643  -9122065.97742  23346475.107    23346471.495
  21936281.112   -19546518.01543 -15109932.46442  21936282.982    21936279.146
  20591420.098   -27394896.28544 -21334172.35442  20591421.164    20591416.202
  22691903.706   -11239934.86943  -8631865.77242  22691904.257    22691899.580
  21175064.087   -23626571.90543 -18406904.39342  21175065.495    21175062.025
  25012761.801    -6854347.78043  -5314158.69442  25012762.843    25012761.747
  20579930.445   -23383848.20643 -18207965.69042  20579931.677    20579927.353
  23004051.174   -13111181.58343 -10201130.10142  23004052.490    23004048.862
 04  1 21  2 15  0.0000000  0  9G15G29G26G21G22G 6G 2G18G16
  22518647.832   -16631907.32843 -12817282.80042  22518648.842    22518646.492
  23355058.640   -11697106.96043  -9086910.76542  23355060.366    23355056.753
  21939019.144   -19532129.71743 -15098720.78942  21939020.975    21939017.109
  20589918.868   -27402785.26344 -21340319.59442  20589919.914    20589914.959
  22675709.234   -11325037.32643  -8698179.33142  22675709.781    22675705.018
  21187256.995   -23562497.75343 -18356976.50042  21187258.420    21187254.939
  25006345.469    -6888065.48843  -5340432.20342  25006346.533    25006345.402
  20573623.324   -23416992.31243 -18233792.23942  20573624.550    20573620.216
  23005015.162   -13106115.64743 -10197182.60942  23005016.504    23005012.880
 04  1 21  2 15 30.0000000  0  9G15G29G26G21G22G 6G 2G18G16
  22505797.636   -16699435.53943 -12869902.12942  22505798.625    22505796.262
  23363738.616   -11651493.25143  -9051367.60642  23363740.387    23363736.720
  21941881.739   -19517086.52043 -15086998.79642  21941883.585    21941879.717
  20588457.021   -27410467.20544 -21346305.50742  20588458.074    20588453.124
  22659570.142   -11409848.75143  -8764266.09842  22659570.658    22659565.909
  21199529.544   -23498005.19043 -18306722.57742  21199530.951    21199527.501
  25000007.406    -6921372.01043  -5366385.30042  25000008.467    25000007.372
  20567401.909   -23449686.01943 -18259267.82842  20567403.133    20567398.798
  23006080.889   -13100515.07543 -10192818.53342  23006082.230    23006078.665
 04  1 21  2 16  0.0000000  0  9G15G29G26G21G22G 6G 2G18G16
  22492966.569   -16766863.13143 -12922443.05342  22492967.536    22492965.164
  23372514.425   -11605376.06743  -9015432.13142  23372516.211    23372512.528
  21944870.272   -19501381.76943 -15074761.31042  21944872.069    21944868.222
  20587036.073   -27417934.31744 -21352124.02642  20587037.124    20587032.166
  22643488.001   -11494360.72343  -8830119.53042  22643488.515    22643483.785
  21211882.822   -23433088.29143 -18256137.99842  21211884.237    21211880.798
  24993749.053    -6954259.70443  -5392012.03942  24993750.121    24993749.003
  20561267.508   -23481922.48043 -18284387.12242  20561268.725    20561264.362
  23007249.536   -13094373.73143 -10188033.06042  23007250.887    23007247.335
 04  1 21  2 16 30.0000000  0  9G15G29G26G21G22G 6G 2G18G16
  22480153.369   -16834196.91143 -12974910.89342  22480154.309    22480151.935
  23381384.459   -11558763.74143  -8979110.81942  23381386.192    23381382.487
  21947983.297   -19485022.51243 -15062013.82542  21947985.145    21947981.277
  20585654.726   -27425193.33644 -21357780.39442  20585655.780    20585650.801
  22627461.851   -11578578.85243  -8895744.00242  22627462.333    22627457.511
  21224315.346   -23367755.12943 -18205229.08642  21224316.746    21224313.305
  24987569.238    -6986734.85843  -5417317.32342  24987570.293    24987569.213
  20555218.828   -23513708.39043 -18309155.33942  20555220.033    20555215.670
  23008519.693   -13087699.10743 -10182832.05742  23008521.059    23008517.453
 04  1 21  2 17  0.0000000  0  9G15G29G26G21G22G 6G 2G18G16
  22467359.263   -16901430.11243 -13027300.34642  22467360.218    22467357.829
  23390349.706   -11511651.14643  -8942399.68942  23390351.382    23390347.694
  21951222.121   -19468002.36443 -15048751.34542  21951223.940    21951220.086
  20584314.274   -27432237.42744 -21363269.27342  20584315.329    20584310.329
  22611493.006   -11662495.41543  -8961133.47542  22611493.496    22611488.718
  21236828.096   -23302000.23343 -18153991.53542  21236829.493    21236826.094
  24981469.194    -7018790.39743  -5442295.62442  24981470.314    24981469.227
  20549257.076   -23545037.41943 -18333567.54742  20549258.292    20549253.918
  23009892.443   -13080485.51143 -10177211.06642  23009893.778    23009890.099
 04  1 21  2 17 30.0000000  0  9G15G29G26G21G22G 6G 2G18G16
  22454583.285   -16968568.17843 -13079615.68242  22454584.231    22454581.844
  23399408.874   -11464045.19943  -8905304.13942  23399410.490    23399406.731
  21954585.530   -19450327.49643 -15034978.70442  21954587.329    21954583.486
  20583013.666   -27439072.08044 -21368594.96642  20583014.726    20583009.716
  22595580.769   -11746114.86643  -9026291.44842  22595581.226    22595576.387
  21249419.790   -23235830.51343 -18102430.74242  21249421.194    21249417.801
  24975448.183    -7050431.44243  -5466950.96042  24975449.156    24975448.095
  20543381.247   -23575915.13343 -18357628.07942  20543382.448    20543378.053
  23011366.363   -13072739.96343 -10171175.57342  23011367.724    23011364.017
 04  1 21  2 18  0.0000000  0  9G15G29G26G21G22G 6G 2G18G16
  22441825.979   -17035608.03643 -13131854.48542  22441826.926    22441824.576
  23408562.129   -11415944.73643  -8867823.23542  23408563.692    23408559.980
  21958074.015   -19431995.40543 -15020693.93142  21958075.798    21958071.926
  20581753.547   -27445694.02844 -21373754.91142  20581754.603    20581749.585
  22579725.710   -11829433.22243  -9091214.79342  22579726.179    22579721.352
  21262090.731   -23169244.43643 -18050545.52042  21262092.112    21262088.739
  24969506.567    -7081654.62943  -5491280.68242  24969507.549    24969506.445
  20537591.716   -23606339.23043 -18381335.14242  20537592.919    20537588.508
  23012941.882   -13064460.36243 -10164723.93042  23012943.254    23012939.549
 04  1 21  2 18 30.0000000  0  9G15G29G26G21G22G 6G 2G18G16
  22429087.155   -17102550.97243 -13184017.75742  22429088.054    22429085.689
  23417808.882   -11367352.63743  -8829959.25242  23417810.479    23417806.752
  21961687.223   -19413007.81943 -15005898.39542  21961689.006    21961685.087
  20580533.680   -27452104.31844 -21378749.92342  20580534.748    20580529.719
  22563927.984   -11912450.73643  -9155903.72242  22563928.462    22563923.644
  21274840.422   -23102244.60743 -17998337.90242  21274841.786    21274838.416
  24963644.308    -7112460.83843  -5515285.49442  24963645.319    24963644.190
  20531888.243   -23636310.99743 -18404689.73642  20531889.462    20531885.047
  23014618.673   -13055649.11243 -10157858.00842  23014620.016    23014616.281
 04  1 21  2 19  0.0000000  0  9G15G29G26G21G22G 6G 2G18G16
  22416366.928   -17169396.13243 -13236104.85142  22416367.832    22416365.451
  23427149.026   -11318269.71843  -8791712.83042  23427150.613    23427146.858
  21965425.189   -19393364.61443 -14990591.98742  21965426.971    21965423.059
  20579354.326   -27458301.91444 -21383579.20142  20579355.382    20579350.344
  22548187.814   -11995165.55543  -9220356.78142  22548188.310    22548183.461
  21287668.694   -23034831.58043 -17945808.30642  21287670.083    21287666.710
  24957861.606    -7142849.12043  -5538964.64642  24957862.634    24957861.450
  20526270.874   -23665830.21243 -18427691.70042  20526272.102    20526267.710
  23016396.502   -13046306.59943 -10150578.13142  23016397.830    23016394.074
 04  1 21  2 19 30.0000000  0  9G15G29G26G21G22G 6G 2G18G16
  22403666.059   -17236139.61743 -13288112.71442  22403666.913    22403664.544
  23436582.961   -11268694.13343  -8753082.48242  23436584.510    23436580.786
  21969288.504   -19373062.72043 -14974772.31342  21969290.299    21969286.357
  20578216.039   -27464283.58844 -21388240.22742  20578217.096    20578212.047
  22532506.213   -12077573.04243  -9284570.37042  22532506.695    22532501.818
  21300576.087   -22967002.98143 -17892954.88942  21300577.463    21300574.097
  24952159.143    -7172815.59543  -5562315.12042  24952160.284    24952159.019
  20520740.323   -23694893.33343 -18450338.26142  20520741.553    20520737.159
  23018275.874   -13036430.42343 -10142882.39942  23018277.224    23018273.479
 04  1 21  2 20  0.0000000  0  9G15G29G26G21G22G 6G 2G18G16
  22390983.387   -17302787.54243 -13340046.12342  22390984.187    22390981.837
  23446109.198   -11218633.51143  -8714074.19742  23446110.720    23446107.015
  21973275.900   -19352108.84443 -14958444.60342  21973277.667    21973273.754
  20577117.759   -27470054.87444 -21392737.31542  20577118.845    20577113.812
  22516881.971   -12159678.40843  -9348548.52042  22516882.484    22516877.654
  21313561.115   -22898766.36643 -17839783.53842  21313562.495    21313559.124
  24946535.879    -7202366.03943  -5585341.41442  24946537.010    24946535.748
  20515295.341   -23723506.73443 -18472634.39142  20515296.585    20515292.187
  23020255.410   -13026027.74943 -10134776.41542  23020256.755    23020253.036
 04  1 21  2 20 30.0000000  0  9G15G29G26G21G22G 6G 2G18G16
  22378319.959   -17369334.38643 -13391900.76742  22378320.722    22378318.353
  23455728.351   -11168084.15143  -8674685.06742  23455729.923    23455726.236
  21977388.253   -19330498.25843 -14941605.16742  21977389.994    21977386.121
  20576060.618   -27475610.20344 -21397066.12942  20576061.682    20576056.645
  22501316.548   -12241475.26743  -9412286.30442  22501317.059    22501312.107
  21326624.535   -22830117.72943 -17786291.10742  21326625.919    21326622.542
  24940992.891    -7231494.68543  -5608039.03542  24940993.965    24940992.705
  20509936.854   -23751665.75243 -18494576.45842  20509938.098    20509933.683
  23022335.962   -13015094.44543 -10126256.96342  23022337.301    23022333.576
 04  1 21  2 21  0.0000000  0  9G15G29G26G21G22G 6G 2G18G16
  22365674.995   -17435783.96343 -13443679.61842  22365675.771    22365673.380
  23465439.456   -11117052.05043  -8634919.78442  23465441.031    23465437.334
  21981624.615   -19308235.80543 -14924257.78242  21981626.389    21981622.491
  20575043.741   -27480953.70344 -21401229.87442  20575044.833    20575039.797
  22485809.150   -12322966.84343  -9475786.17842  22485809.647    22485804.778
  21339765.233   -22761062.80943 -17732482.08442  21339766.658    21339763.284
  24935529.426    -7260205.45243  -5630411.03742  24935530.526    24935529.205
  20504664.048   -23779374.50743 -18516167.66542  20504665.262    20504660.857
  23024516.375   -13003636.12043 -10117328.38942  23024517.722    23024514.026
 04  1 21  2 21 30.0000000  0  9G15G29G26G21G22G 6G 2G18G16
  22353049.680   -17502130.32843 -13495378.04742  22353050.440    22353048.023
  23475243.235   -11065532.93343  -8594774.99342  23475244.822    23475241.098
  21985986.072   -19285316.12243 -14906398.27642  21985987.832    21985983.896
  20574068.418   -27486079.10744 -21405223.68142  20574069.475    20574064.448
  22470361.281   -12404145.98543  -9539042.60942  22470361.749    22470356.852
  21352984.134   -22691597.15243 -17678353.03542  21352985.555    21352982.168
  24930146.631    -7288492.12343  -5652452.58242  24930147.748    24930146.428
  20499477.969   -23806627.39943 -18537403.65142  20499479.194    20499474.788
  23026797.653   -12991648.09843 -10107987.06242  23026798.953    23026795.276
 04  1 21  2 22  0.0000000  0  9G15G29G26G21G22G 6G 2G18G16
  22340443.371   -17568376.84943 -13546998.67542  22340444.127    22340441.687
  23485138.619   -11013532.12643  -8554254.89042  23485140.216    23485136.507
  21990471.744   -19261743.62343 -14888030.07942  21990473.522    21990469.594
  20573133.894   -27490989.96144 -21409050.31342  20573134.970    20573129.924
  22454972.296   -12485015.43343  -9602057.73042  22454972.753    22454967.824
  21366280.297   -22621725.57243 -17623907.68242  21366281.683    21366278.299
  24924843.822    -7316358.05043  -5674166.26642  24924844.968    24924843.668
  20494377.851   -23833428.59843 -18558287.67442  20494379.077    20494374.652
  23029178.775   -12979135.12443 -10098236.69042  23029180.062    23029176.414
 04  1 21  2 22 30.0000000  0  9G15G29G26G21G22G 6G 2G18G16
  22327855.439   -17634526.62243 -13598543.92242  22327856.224    22327853.739
  23495124.713   -10961054.75643  -8513363.41242  23495126.334    23495122.606
  21995080.867   -19237522.43043 -14869156.40842  21995082.660    21995078.724
  20572239.650   -27495689.30544 -21412712.12142  20572240.702    20572235.654
  22439641.763   -12565577.82043  -9664833.56542  22439642.199    22439637.311
  21379652.728   -22551452.94143 -17569149.81642  21379654.133    21379650.785
  24919620.625    -7343806.41943  -5695554.58642  24919621.688    24919620.365
  20489362.996   -23859781.72243 -18578822.54942  20489364.220    20489359.795
  23031658.940   -12966101.74443 -10088080.80742  23031660.196    23031656.618
 04  1 21  2 23  0.0000000  0  9G15G29G26G21G22G 6G 2G18G16
  22315287.049   -17700573.93643 -13650009.32842  22315287.813    22315285.306
  23505202.285   -10908096.82443  -8472097.48042  23505203.914    23505200.186
  21999814.382   -19212647.65043 -14849773.44642  21999816.166    21999812.223
  20571386.710   -27500171.27844 -21416204.54742  20571387.797    20571382.765
  22424370.968   -12645826.32543  -9727364.83842  22424371.379    22424366.400
  21393102.290   -22480775.19643 -17514076.27742  21393103.679    21393100.341
  24914477.926    -7370831.30643  -5716612.91842  24914479.020    24914477.725
  20484434.362   -23885681.76843 -18599004.38142  20484435.582    20484431.160
  23034238.992   -12952543.63943 -10077516.05342  23034240.212    23034236.651
 04  1 21  2 23 30.0000000  0  9G15G29G26G21G22G 6G 2G18G16
  22302737.603   -17766521.46743 -13701396.97642  22302738.402    22302735.852
  23515370.397   -10854663.03243  -8430460.75842  23515371.997    23515368.265
  22004671.598   -19187122.75543 -14829883.90942  22004673.405    22004669.427
  20570574.721   -27504438.26544 -21419529.45542  20570575.799    20570570.770
  22409159.550   -12725762.68743  -9789652.86742  22409159.972    22409155.023
  21406628.121   -22409696.55943 -17458690.35642  21406629.512    21406626.169
  24909415.283    -7397435.35043  -5737343.32342  24909416.405    24909415.135
  20479591.410   -23911131.61643 -18618835.40242  20479592.622    20479588.193
  23036918.073   -12938465.01843 -10066545.69142  23036919.291    23036915.716
 04  1 21  2 24  0.0000000  0  9G15G29G26G21G22G 6G 2G18G16
  22290207.805   -17832365.88343 -13752704.27842  22290208.623    22290206.056
  23525629.333   -10800751.79243  -8388451.99042  23525630.991    23525627.214
  22009652.926   -19160945.75843 -14809486.23542  22009654.706    22009650.748
  20569804.222   -27508487.20944 -21422684.46842  20569805.309    20569800.256
  22394008.295   -12805383.01743  -9851694.64442  22394008.708    22394003.768
  21420230.556   -22338215.36943 -17402990.75842  21420231.939    21420228.637
  24904433.415    -7423615.21043  -5757743.19442  24904434.484    24904433.245
  20474834.611   -23936128.59143 -18638313.53642  20474835.821    20474831.388
  23039696.529   -12923864.28043 -10055168.48842  23039697.732    23039694.117
 04  1 21  2 24 30.0000000  0  9G15G29G26G21G22G 6G 2G18G16
  22277697.067   -17898110.02543 -13803933.44842  22277697.922    22277695.312
  23535978.100   -10746368.22143  -8346075.15042  23535979.827    23535976.032
  22014757.591   -19134120.42643 -14788583.35642  22014759.393    22014755.428
  20569074.748   -27512320.70144 -21425671.58942  20569075.809    20569070.773
  22378916.744   -12884689.50943  -9913491.88042  22378917.149    22378912.154
  21433908.705   -22266336.25243 -17346981.08642  21433910.102    21433906.818
  24899531.673    -7449373.81643  -5777814.82042  24899532.769    24899531.543
  20470163.325   -23960676.31043 -18657441.60342  20470164.545    20470160.097
  23042573.455   -12908745.70043 -10043387.78542  23042574.724    23042571.066
 04  1 21  2 25  0.0000000  0  9G15G29G26G21G22G 6G 2G18G16
  22265206.033   -17963750.81043 -13855082.07342  22265206.874    22265204.234
  23546417.057   -10691511.11743  -8303329.34142  23546418.787    23546414.976
  22019985.997   -19106644.71243 -14767173.68742  22019987.820    22019983.842
  20568386.823   -27515935.79544 -21428488.53042  20568387.862    20568382.822
  22363885.656   -12963678.22843  -9975041.48942  22363886.082    22363881.126
  21447662.870   -22194057.77143 -17290660.21542  21447664.273    21447660.982
  24894710.777    -7474708.11343  -5797555.80742  24894711.827    24894710.594
  20465578.052   -23984772.09743 -18676217.51742  20465579.243    20465574.804
  23045549.263   -12893107.56543 -10031202.22342  23045550.524    23045546.930
 04  1 21  2 25 30.0000000  0  9G15G29G26G21G22G 6G 2G18G16
  22252734.382   -18029289.49943 -13906151.14942  22252735.251    22252732.590
  23556945.493   -10636183.79443  -8260217.13942  23556947.212    23556943.381
  22025337.694   -19078521.14843 -14745259.20342  22025339.534    22025335.558
  20567740.215   -27519333.76044 -21431136.28442  20567741.236    20567736.202
  22348914.929   -13042349.70043 -10036343.89942  22348915.362    22348910.353
  21461492.464   -22121382.94643 -17234030.51842  21461493.863    21461490.570
  24889970.327    -7499619.49443  -5816967.25642  24889971.308    24889970.144
  20461078.408   -24008417.83843 -18694642.74542  20461079.613    20461075.158
  23048623.431   -12876952.98843 -10018614.24142  23048624.729    23048621.091
 04  1 21  2 26  0.0000000  0 10G15G29G26G21G22G 3G 6G 2G18G16
  22240280.986   -18094732.40243 -13957145.58642  22240281.886    22240279.166
  23567561.755   -10580394.76743  -8216745.14442  23567563.468    23567559.616
  22030811.268   -19049756.99243 -14722845.54742  22030813.116    22030809.173
  20567133.732   -27522520.83044 -21433619.70042  20567134.751    20567129.724
  22334003.520   -13120709.66243 -10097403.58342  22334003.946    22333998.926
  24555907.014    -3957528.97653  -3040345.70952  24555908.553    24555906.426
  21475395.987   -22048319.62043 -17177098.09742  21475397.366    21475394.085
  24885309.094    -7524114.31243  -5836054.11142  24885310.071    24885308.937
  20456663.024   -24031620.75143 -18712722.91042  20456664.217    20456659.763
  23051794.282   -12860289.93843 -10005630.04142  23051795.602    23051791.951
 04  1 21  2 26 30.0000000  0 10G15G29G26G21G22G 3G 6G 2G18G16
  22227848.283   -18160066.74943 -14008055.43742  22227849.173    22227846.430
  23578267.977   -10524133.28943  -8172905.02342  23578269.650    23578265.781
  22036408.967   -19020340.87843 -14699923.88642  22036410.802    22036406.868
  20566569.830   -27525484.03144 -21435928.67342  20566570.851    20566565.841
  22319153.945   -13198744.59443 -10158209.97742  22319154.353    22319149.375
  24536720.251    -4058355.64143  -3118911.85242  24536721.720    24536719.877
  21489375.455   -21974857.03943 -17119854.54042  21489376.868    21489373.597
  24880729.574    -7548179.93643  -5854806.52342  24880730.508    24880729.443
  20452334.116   -24054369.21643 -18730448.96042  20452335.314    20452330.856
  23055063.956   -12843107.42243  -9992241.07142  23055065.313    23055061.603
 04  1 21  2 27  0.0000000  0 10G15G29G26G21G22G 3G 6G 2G18G16
  22215435.659   -18225295.27943 -14058882.83242  22215436.574    22215433.796
  23589063.191   -10467404.10543  -8128700.45742  23589064.864    23589060.972
  22042129.991   -18990276.62943 -14676497.17842  22042131.828    22042127.912
  20566048.010   -27528226.15544 -21438065.38142  20566049.031    20566044.019
  22304365.871   -13276456.53243 -10218764.71842  22304366.271    22304361.144
  24517556.725    -4159059.94243  -3197382.65042  24517558.209    24517556.342
  21503430.087   -21900999.55743 -17062303.26942  21503431.526    21503428.238
  24876231.156    -7571819.16443  -5873226.68242  24876232.123    24876230.994
  20448091.071   -24076666.38943 -18747823.35842  20448092.280    20448087.835
  23058431.721   -12825409.82343  -9978450.73542  23058433.055    23058429.326
 04  1 21  2 27 30.0000000  0 10G15G29G26G21G22G 3G 6G 2G18G16
  22203042.628   -18290421.06143 -14109630.15542  22203043.538    22203040.739
  23599946.344   -10410212.52643  -8084135.57442  23599948.045    23599944.215
  22047973.525   -18959568.64343 -14652568.86542  22047975.370    22047971.434
  20565567.695   -27530750.17744 -21440032.14042  20565568.716    20565563.701
  22289638.683   -13353848.04843 -10279069.74842  22289639.117    22289634.088
  24498416.346    -4259643.19743  -3275759.12842  24498417.667    24498415.900
  21517558.902   -21826752.24843 -17004448.24442  21517560.331    21517557.060
  24871813.272    -7595035.21743  -5891317.09342  24871814.238    24871813.098
  20443933.183   -24098516.07243 -18764849.06142  20443934.409    20443929.941
  23061896.616   -12807201.93443  -9964262.76542  23061897.918    23061894.234
 04  1 21  2 28  0.0000000  0 10G15G29G26G21G22G 3G 6G 2G18G16
  22190669.418   -18355442.68643 -14160296.31942  22190670.276    22190667.503
  23610917.461   -10352559.08343  -8039210.79542  23610919.160    23610915.252
  22053939.577   -18928216.75143 -14628138.79542  22053941.414    22053937.493
  20565129.176   -27533054.59244 -21441827.77842  20565130.200    20565125.169
  22274972.871   -13430917.20243 -10339123.60842  22274973.304    22274968.229
  24479299.628    -4360101.93643  -3354038.57542  24479300.973    24479299.306
  21531761.840   -21752115.42243 -16946289.71342  21531763.279    21531760.005
  24867476.207    -7617826.71643  -5909076.68642  24867477.224    24867475.943
  20439860.658   -24119917.29743 -18781525.31542  20439861.878    20439857.406
  23065458.483   -12788484.15243  -9949677.48642  23065459.775    23065456.093
 04  1 21  2 28 30.0000000  0 10G15G29G26G21G22G 3G 6G 2G18G16
  22178315.958   -18420360.50443 -14210881.59842  22178316.789    22178313.989
  23621975.877   -10294446.50143  -7993928.24142  23621977.589    23621973.630
  22060027.791   -18896222.75643 -14603208.39642  22060029.616    22060025.756
  20564732.318   -27535140.07244 -21443452.81442  20564733.344    20564728.299
  22260368.431   -13507663.75143 -10398926.08042  22260368.869    22260363.825
  24460206.870    -4460434.88143  -3432220.02742  24460208.144    24460206.394
  21546038.426   -21677091.42743 -16887829.48642  21546039.867    21546036.605
  24863219.757    -7640194.53343  -5926506.13342  24863220.705    24863219.449
  20435873.141   -24140871.74343 -18797853.43142  20435874.365    20435869.862
  23069116.972   -12769258.48043  -9934696.44742  23069118.276    23069114.577
 04  1 21  2 29  0.0000000  0 10G15G29G26G21G22G 3G 6G 2G18G16
  22165982.624   -18485172.54943 -14261384.45842  22165983.425    22165980.648
  23633121.692   -10235874.72143  -7948287.86942  23633123.451    23633119.416
  22066238.322   -18863585.95643 -14577777.09942  22066240.173    22066236.323
  20564377.473   -27537004.58244 -21444905.66542  20564378.517    20564373.478
  22245825.950   -13584084.74743 -10458474.86542  22245826.401    22245821.394
  24441138.812    -4560638.06243  -3510300.34842  24441140.124    24441138.213
  21560388.804   -21601679.93343 -16829067.31942  21560390.213    21560386.952
  24859044.225    -7662136.76343  -5943603.94942  24859045.279    24859043.996
  20431970.898   -24161377.93343 -18813832.25542  20431972.123    20431967.635
  23072872.277   -12749524.67743  -9919319.44442  23072873.536    23072869.760
 04  1 21  2 29 30.0000000  0 10G15G29G26G21G22G 3G 6G 2G18G16
  22153669.505   -18549878.19643 -14311804.41342  22153670.307    22153667.538
  23644354.533   -10176845.73343  -7902291.23842  23644356.288    23644352.209
  22072571.017   -18830307.16443 -14551845.55542  22072572.904    22072569.040
  20564064.869   -27538647.21144 -21446185.62542  20564065.923    20564060.877
  22231345.657   -13660179.19643 -10517769.22242  22231346.083    22231340.988
  24422095.911    -4660709.07743  -3588277.69242  24422097.234    24422095.203
  21574812.641   -21525882.18843 -16770004.17142  21574814.081    21574810.793
  24854949.813    -7683653.02043  -5960369.85042  24854950.949    24854949.543
  20428153.927   -24181436.27143 -18829462.10442  20428155.121    20428150.624
  23076723.943   -12729284.12943  -9903547.58442  23076725.236    23076721.457
 04  1 21  2 30  0.0000000  0 10G15G29G26G21G22G 3G 6G 2G18G16
  22141376.286   -18614479.23843 -14362142.85042  22141377.074    22141374.335
  23655673.661   -10117363.34043  -7855941.30442  23655675.454    23655671.343
  22079025.276   -18796389.75443 -14525416.38942  22079027.150    22079023.301
  20563794.134   -27540069.82644 -21447294.14442  20563795.196    20563790.157
  22216927.145   -13735948.61743 -10576810.27742  22216927.608    22216922.599
  24403078.129    -4760647.87543  -3666152.00742  24403079.477    24403077.304
  21589309.247   -21449702.11243 -16710643.08842  21589310.682    21589307.411
  24850935.999    -7704745.53443  -5976805.55942  24850937.074    24850935.797
  20424421.691   -24201049.28243 -18844744.94142  20424422.869    20424418.368
  23080671.243   -12708540.57043  -9887383.79342  23080672.526    23080668.856
 04  1 21  2 30 30.0000000  0 10G15G29G26G21G22G 3G 6G 2G18G16
  22129103.032   -18678975.28543 -14412399.47542  22129103.822    22129101.107
  23667078.691   -10057429.40243  -7809239.51342  23667080.431    23667076.377
  22085600.868   -18761834.73943 -14498490.39242  22085602.738    22085598.886
  20563565.395   -27541271.89144 -21448230.80642  20563566.444    20563561.399
  22202570.805   -13811391.84543 -10635597.19542  22202571.255    22202566.084
  24384085.844    -4860452.25443  -3743921.58442  24384087.290    24384085.100
  21603878.330   -21373141.08143 -16650985.15742  21603879.767    21603876.499
  24847002.927    -7725414.23243  -5992911.01742  24847003.927    24847002.645
  20420774.188   -24220216.90043 -18859680.72342  20420775.376    20420770.868
  23084714.057   -12687295.45243  -9870829.15542  23084715.305    23084711.639
 04  1 21  2 31  0.0000000  0 10G15G29G26G21G22G 3G 6G 2G18G16
  22116849.888   -18743365.90143 -14462573.94742  22116850.605    22116847.957
  23678569.301    -9997045.72243  -7762187.27542  23678571.069    23678566.971
  22092297.631   -18726642.99343 -14471068.24542  22092299.471    22092295.630
  20563378.658   -27542253.09744 -21448995.36942  20563379.711    20563374.664
  22188276.616   -13886507.90543 -10694129.14342  22188277.068    22188272.010
  24365119.680    -4960119.71343  -3821584.47642  24365121.075    24365119.069
  21618519.603   -21296200.57143 -16591031.53042  21618521.037    21618517.818
  24843150.407    -7745658.76943  -6008685.96742  24843151.517    24843150.233
  20417211.209   -24238940.31543 -18874270.37542  20417212.418    20417207.899
  23088852.127   -12665550.14643  -9853884.76042  23088853.380    23088849.576
 04  1 21  2 31 30.0000000  0 10G15G29G26G21G22G 3G 6G 2G18G16
  22104617.953   -18807644.85343 -14512661.40642  22104618.667    22104616.049
  23690146.230    -9936208.32743  -7714781.49442  23690148.026    23690143.900
  22099116.403   -18690810.13143 -14443146.53442  22099118.205    22099114.391
  20563235.142   -27543007.25144 -21449583.00442  20563236.186    20563231.133
  22174046.080   -13961290.13543 -10752400.98142  22174046.500    22174041.371
  24346181.108    -5059642.01443  -3899134.25342  24346182.577    24346180.555
  21633233.960   -21218876.35343 -16530778.91842  21633235.366    21633232.121
  24839379.733    -7765473.47843  -6024125.98742  24839380.781    24839379.641
  20413733.826   -24257214.01043 -18888509.59742  20413735.018    20413730.510
  23093086.047   -12643300.55643  -9836547.41842  23093087.262    23093083.528
 04  1 21  2 32  0.0000000  0 10G15G29G26G21G22G 3G 6G 2G18G16
  22092406.162   -18871818.02543 -14562666.44042  22092406.862    22092404.255
  23701807.959    -9874925.40243  -7667028.55342  23701809.735    23701805.641
  22106055.827   -18654343.18843 -14414730.73242  22106057.613    22106053.792
  20563133.743   -27543540.03944 -21449998.14542  20563134.795    20563129.744
  22159877.938   -14035743.68743 -10810416.70442  22159878.373    22159873.260
  24327269.483    -5159023.05943  -3976573.96142  24327270.941    24327268.882
  21648019.835   -21141176.13343 -16470233.31542  21648021.224    21648017.992
  24835689.748    -7784864.23443  -6039235.64342  24835690.852    24835689.574
  20410340.818   -24275044.46543 -18902403.43842  20410341.972    20410337.447
  23097414.499   -12620554.25143  -9818823.04542  23097415.654    23097412.064
 04  1 21  2 32 30.0000000  0 10G15G29G26G21G22G 3G 6G 2G18G16
  22080213.778   -18935889.26543 -14612592.04942  22080214.462    22080211.880
  23713553.280    -9813203.23343  -7618933.33442  23713555.018    23713550.955
  22113114.791   -18617248.07843 -14385825.44042  22113116.562    22113112.746
  20563073.756   -27543855.28144 -21450243.76842  20563074.806    20563069.739
  22145771.765   -14109872.33643 -10868179.25042  22145772.179    22145767.076
  24308384.194    -5258265.28343  -4053905.49542  24308385.647    24308383.629
  21662876.105   -21063106.00143 -16409399.46942  21662877.489    21662874.270
  24832079.528    -7803835.76943  -6054018.63542  24832080.590    24832079.386
  20407031.122   -24292436.89943 -18915955.95642  20407032.285    20407027.759
  23101836.353   -12597317.36543  -9800716.38142  23101837.500    23101833.981
 04  1 21  2 33  0.0000000  0 10G15G29G26G21G22G 3G 6G 2G18G16
  22068043.880   -18999842.44943 -14662425.66842  22068044.535    22068041.961
  23725384.742    -9751028.24143  -7570485.26942  23725386.486    23725382.434
  22120296.028   -18579510.34343 -14356419.40242  22120297.814    22120293.997
  20563058.147   -27543937.24544 -21450307.62142  20563059.197    20563054.142
  22131730.397   -14183659.77043 -10925675.92242  22131730.813    22131725.673
  24289528.883    -5357350.55043  -4131114.73542  24289530.208    24289528.268
  21677805.456   -20984651.98043 -16348266.48542  21677806.807    21677803.587
  24828552.133    -7822372.30943  -6068462.68642  24828553.165    24828551.938
  20403807.629   -24309376.31843 -18929155.47842  20403808.794    20403804.261
  23106354.251   -12573575.99143  -9782216.60942  23106355.400    23106351.771
 04  1 21  2 33 30.0000000  0 10G15G29G26G21G22G 3G 6G 2G18G16
  22055893.296   -19063694.13743 -14712180.19442  22055893.936    22055891.372
  23737298.885    -9688419.18743  -7521698.97042  23737300.563    23737296.497
  22127596.105   -18541148.25143 -14326526.85042  22127597.872    22127594.057
  20563083.779   -27543802.49544 -21450202.60642  20563084.834    20563079.766
  22117751.074   -14257121.70243 -10982918.94842  22117751.484    22117746.371
  24270700.547    -5456293.63643  -4208213.18142  24270701.881    24270700.010
  21692804.259   -20905832.71343 -16286848.88642  21692805.657    21692802.422
  24825104.157    -7840491.02243  -6082581.15042  24825105.320    24825103.979
  20400667.047   -24325880.15343 -18942015.58342  20400668.193    20400663.653
  23110964.480   -12549348.65643  -9763338.16842  23110965.687    23110961.978
 04  1 21  2 34  0.0000000  0 11G15G29G26G21G22G 3G 6G 2G18G16G23
  22043763.484   -19127436.51543 -14761849.54142  22043764.171    22043761.585
  23749296.635    -9625370.53743  -7472570.13442  23749298.295    23749294.206
  22135016.208   -18502155.36743 -14296142.77242  22135017.983    22135014.132
  20563152.235   -27543442.66244 -21449922.19542  20563153.274    20563148.228
  22103835.189   -14330249.76643 -11039901.82242  22103835.607    22103830.446
  24251901.289    -5555084.37543  -4285192.91442  24251902.639    24251900.690
  21707873.756   -20826642.08743 -16225141.93142  21707875.162    21707871.920
  24821737.213    -7858184.19443  -6096368.02342  24821738.352    24821737.143
  20397610.693   -24341941.28343 -18954530.72342  20397611.836    20397607.291
  23115668.351   -12524629.31143  -9744076.34942  23115669.541    23115665.952
  23258385.874     -271618.85953   -197249.21452  23258387.060    23258384.743
 04  1 21  2 34 30.0000000  0 11G15G29G26G21G22G 3G 6G 2G18G16G23
  22031654.683   -19191068.37643 -14811432.77642  22031655.413    22031652.810
  23761377.760    -9561883.61043  -7423099.77542  23761379.420    23761375.353
  22142556.184   -18462532.33843 -14265267.67042  22142557.993    22142554.144
  20563263.717   -27542856.71244 -21449465.59042  20563264.753    20563259.711
  22089983.179   -14403042.55143 -11096623.44042  22089983.604    22089978.426
  24233131.635    -5653719.57543  -4362051.45342  24233132.986    24233130.930
  21723013.739   -20747080.96043 -16163146.25842  21723015.157    21723011.938
  24818451.419    -7875451.21243  -6109822.83042  24818452.466    24818451.279
  20394638.557   -24357559.76943 -18966700.94842  20394639.721    20394635.179
  23120465.773   -12499419.07343  -9724432.01342  23120466.946    23120463.364
  23242949.525     -352737.06443   -260458.14242  23242950.768    23242948.367
 04  1 21  2 35  0.0000000  0 11G15G29G26G21G22G 3G 6G 2G18G16G23
  22019566.773   -19254590.67143 -14860930.63542  22019567.523    22019564.899
  23773541.735    -9497961.54543  -7373290.36642  23773543.409    23773539.243
  22150215.538   -18422282.03843 -14233903.78742  22150217.369    22150213.509
  20563418.027   -27542045.77844 -21448833.67842  20563419.058    20563414.023
  22076194.798   -14475500.84043 -11153084.40742  22076195.199    22076190.049
  24214391.538    -5752198.95543  -4438788.57342  24214392.926    24214390.860
  21738223.627   -20667152.60143 -16100864.43542  21738225.036    21738221.821
  24815246.330    -7892293.59543  -6122946.74542  24815247.424    24815246.232
  20391750.220   -24372737.88543 -18978528.02242  20391751.396    20391746.843
  23125355.979   -12473721.08543  -9704407.62442  23125357.142    23125353.605
  23227564.476     -433585.90043   -323457.17842  23227565.740    23227563.287
 04  1 21  2 35 30.0000000  0 11G15G29G26G21G22G 3G 6G 2G18G16G23
  22007500.366   -19317999.91643 -14910340.40042  22007501.125    22007498.513
  23785788.566    -9433603.62443  -7323141.30342  23785790.272    23785786.180
  22157994.613   -18381402.62043 -14202049.67842  22157996.466    22157992.635
  20563615.848   -27541006.13844 -21448023.55242  20563616.894    20563611.849
  22062470.857   -14547620.60143 -11209281.60142  22062471.256    22062465.998
  24195682.170    -5850516.90843  -4515399.89642  24195683.608    24195681.473
  21753503.686   -20586855.53743 -16038295.31142  21753505.078    21753501.867
  24812122.769    -7908708.22443  -6135737.36142  24812123.765    24812122.633
  20388946.266   -24387472.59543 -18990009.59042  20388947.455    20388942.890
  23130339.119   -12447533.87343  -9684002.01342  23130340.328    23130336.820
  23212231.381     -514161.38143   -386243.20242  23212232.652    23212230.350
 04  1 21  2 36  0.0000000  0 11G15G29G26G21G22G 3G 6G 2G18G16G23
  21995454.567   -19381300.96943 -14959665.85442  21995455.332    21995452.688
  23798116.999    -9368817.06543  -7272658.25942  23798118.720    23798114.613
  22165892.100   -18339900.90843 -14169710.65842  22165893.979    22165890.150
  20563856.194   -27539742.95844 -21447039.23942  20563857.255    20563852.203
  22048810.512   -14619406.18643 -11265218.37942  22048810.921    22048805.718
  24177003.100    -5948676.10543  -4591887.51742  24177004.510    24177002.320
  21768852.608   -20506196.56243 -15975444.19042  21768853.997    21768850.779
  24809079.550    -7924700.52943  -6148198.88042  24809080.586    24809079.386
  20386225.531   -24401770.06943 -19001150.45442  20386226.723    20386222.141
  23135414.097   -12420864.52443  -9663220.70642  23135415.311    23135411.676
  23196949.539     -594467.80043   -448819.57042  23196950.818    23196948.522
 04  1 21  2 36 30.0000000  0 11G15G29G26G21G22G 3G 6G 2G18G16G23
  21983430.518   -19444487.71243 -15008902.24142  21983431.284    21983428.609
  23810527.726    -9303598.13943  -7221838.27942  23810529.485    23810525.363
  22173908.861   -18297772.57843 -14136883.36942  22173910.720    22173906.876
  20564140.289   -27538250.01244 -21445875.88842  20564141.340    20564136.273
  22035214.883   -14690851.42543 -11320889.97242  22035215.288    22035210.008
  24158355.680    -6046668.60643  -4668245.25142  24158357.121    24158354.926
  21784271.115   -20425171.83243 -15912308.06142  21784272.504    21784269.317
  24806117.784    -7940265.08143  -6160327.08842  24806118.720    24806117.547
  20383588.896   -24415625.55243 -19011946.90742  20383590.112    20383585.515
  23140581.642   -12393709.24843  -9642060.75042  23140582.871    23140579.158
  23181720.108     -674498.73043   -511181.27442  23181721.398    23181719.085
 04  1 21  2 37  0.0000000  0 11G15G29G26G21G22G 3G 6G 2G18G16G23
  21971427.219   -19507565.36443 -15058053.62342  21971428.013    21971425.297
  23823019.262    -9237954.76043  -7170687.57042  23823021.019    23823016.887
  22182043.452   -18255024.92543 -14103573.49042  22182045.310    22182041.471
  20564467.083   -27536532.62144 -21444537.64942  20564468.128    20564463.058
  22021683.183   -14761961.24343 -11376300.18542  22021683.561    22021678.328
  24139739.272    -6144498.05743  -4744475.91442  24139740.615    24139738.527
  21799757.739   -20343789.05043 -15848892.92142  21799759.135    21799755.973
  24803236.237    -7955407.82643  -6172126.60942  24803237.161    24803235.937
  20381035.161   -24429045.43943 -19022403.94342  20381036.371    20381031.754
  23145840.203   -12366075.44043  -9620527.92642  23145841.409    23145837.814
  23166542.236     -754258.94143   -573332.03542  23166543.515    23166541.210
 04  1 21  2 37 30.0000000  0 11G15G29G26G21G22G 3G 6G 2G18G16G23
  21959445.930   -19570527.35643 -15107114.88042  21959446.741    21959443.985
  23835592.328    -9171882.69543  -7119202.82642  23835594.107    23835590.020
  22190296.837   -18211653.17243 -14069777.30142  22190298.658    22190294.840
  20564837.870   -27534584.16344 -21443019.36142  20564838.900    20564833.814
  22008216.539   -14832728.55543 -11431443.51742  22008216.910    22008211.643
  24121155.608    -6242155.68843  -4820572.69642  24121156.992    24121154.833
  21815313.407   -20262043.42243 -15785195.04742  21815314.783    21815311.670
  24800436.153    -7970122.44843  -6183592.53042  24800437.078    24800435.767
  20378565.436   -24442023.87943 -19032516.99142  20378566.651    20378562.003
  23151190.590   -12337958.64243  -9598618.75042  23151191.826    23151188.305
  23151417.203     -833741.40843   -635266.37942  23151418.517    23151416.166
 04  1 21  2 38  0.0000000  0 11G15G29G26G21G22G 3G 6G 2G18G16G23
  21947485.804   -19633378.22243 -15156089.54342  21947486.590    21947483.822
  23848245.634    -9105388.98243  -7067389.51242  23848247.413    23848243.408
  22198667.722   -18167663.85743 -14035499.89442  22198669.549    22198665.683
  20565251.766   -27532409.14044 -21441324.52842  20565252.795    20565247.700
  21994814.342   -14903157.69743 -11486323.33942  21994814.715    21994809.450
  24102604.078    -6339644.18143  -4896537.67242  24102605.505    24102603.356
  21830936.814   -20179941.82743 -15721219.78942  21830938.214    21830935.101
  24797716.456    -7984414.42843  -6194729.12242  24797717.398    24797716.000
  20376178.594   -24454566.71443 -19042290.60342  20376179.828    20376175.160
  23156631.698   -12309365.94843  -9576338.72242  23156632.901    23156629.198
  23136344.191     -912950.26443   -696987.51242  23136345.495    23136343.199
 04  1 21  2 38 30.0000000  0 11G15G29G26G21G22G 3G 6G 2G18G16G23
  21935547.547   -19696114.11343 -15204974.60942  21935548.360    21935545.548
  23860979.356    -9038472.60743  -7015246.85342  23860981.156    23860977.172
  22207156.443   -18123055.27443 -14000739.94342  22207158.258    22207154.395
  20565709.480   -27530003.72044 -21439450.16642  20565710.510    20565705.420
  21981477.169   -14973244.68343 -11540936.54342  21981477.563    21981472.272
  24084085.872    -6436957.97743  -4972366.52042  24084087.212    24084085.110
  21846628.265   -20097482.81343 -15656966.05042  21846629.672    21846626.534
  24795077.780    -7998280.76943  -6205534.03642  24795078.716    24795077.391
  20373875.097   -24466671.52943 -19051722.90342  20373876.321    20373871.667
  23162163.608   -12280296.03743  -9553686.83342  23162164.814    23162160.879
  23121324.084     -991881.34643   -758492.20342  23121325.391    23121323.101
 04  1 21  2 39  0.0000000  0 11G15G29G26G21G22G 3G 6G 2G18G16G23
  21923630.700   -19758737.31543 -15253771.87742  21923631.537    21923628.702
  23873792.587    -8971138.30243  -6962778.53542  23873794.371    23873790.429
  22215762.190   -18077831.75043 -13965500.81042  22215764.010    22215760.101
  20566210.650   -27527370.03344 -21437397.93642  20566211.672    20566206.606
  21968204.821   -15042991.46043 -11595284.65842  21968205.195    21968199.844
  24065600.774    -6534097.56343  -5048059.63342  24065602.075    24065599.998
  21862386.905   -20014670.63243 -15592437.09442  21862388.319    21862385.174
  24792519.572    -8011724.20443  -6216009.41942  24792520.518    24792519.081
  20371654.337   -24478341.56443 -19060816.41742  20371655.555    20371650.915
  23167785.374   -12250753.05343  -9530666.32942  23167786.617    23167782.845
  23106356.481    -1070536.58243   -819781.95442  23106357.797    23106355.470
 04  1 21  2 39 30.0000000  0 11G15G29G26G21G22G 3G 6G 2G18G16G23
  21911735.636   -19821246.08643 -15302479.97042  21911736.462    21911733.644
  23886685.235    -8903386.84743  -6909985.16742  23886687.014    23886683.069
  22224484.917   -18031993.50043 -13929782.67642  22224486.737    22224482.792
  20566755.556   -27524506.43644 -21435166.55142  20566756.573    20566751.517
  21954997.509   -15112396.12043 -11649366.17542  21954997.907    21954992.571
  24047149.441    -6631059.39743  -5123614.23142  24047150.781    24047148.671
  21878212.603   -19931505.94243 -15527633.45242  21878214.063    21878210.915
  24790041.905    -8024743.69243  -6226154.45942  24790042.932    24790041.715
  20369516.369   -24489576.49543 -19069570.88542  20369517.600    20369512.957
  23173497.050   -12220737.86843  -9507277.89842  23173498.253    23173494.635
  23091441.681    -1148913.90443   -880855.13642  23091442.997    23091440.752
 04  1 21  2 40  0.0000000  0 11G15G29G26G21G22G 3G 6G 2G18G16G23
  21899862.485   -19883639.82843 -15351098.43742  21899863.277    21899860.454
  23899656.892    -8835220.18443  -6856868.25342  23899658.658    23899654.743
  22233324.290   -17985542.06043 -13893586.74042  22233326.131    22233322.180
  20567344.277   -27521412.66044 -21432755.80742  20567345.296    20567340.237
  21941855.428   -15181457.92143 -11703180.54142  21941855.818    21941850.465
  24028732.497    -6727840.67343  -5199028.14542  24028733.860    24028731.740
  21894105.066   -19847990.41043 -15462556.41842  21894106.568    21894103.414
  24787644.871    -8037339.43943  -6235969.31242  24787646.084    24787644.863
  20367461.132   -24500376.80143 -19077986.68442  20367462.355    20367457.708
  23179298.401   -12190252.25243  -9483522.88842  23179299.552    23179295.818
  23076580.099    -1227012.27343   -941710.97842  23076581.328    23076579.053
 04  1 21  2 40 30.0000000  0 11G15G29G26G21G22G 3G 6G 2G18G16G23
  21888011.250   -19945918.18143 -15399626.98642  21888012.063    21888009.230
  23912707.102    -8766640.75143  -6803429.70042  23912708.935    23912704.942
  22242280.015   -17938479.43243 -13856914.55142  22242281.845    22242277.875
  20567976.831   -27518088.41744 -21430165.47942  20567977.869    20567972.817
  21928778.732   -15250176.56143 -11756727.49942  21928779.101    21928773.771
  24010350.284    -6824439.46343  -5274299.86242  24010351.687    24010349.536
  21910063.924   -19764126.11143 -15397207.64642  21910065.420    21910062.278
  24785328.401    -8049512.20343  -6245454.56542  24785329.623    24785328.528
  20365488.323   -24510743.92643 -19086064.93742  20365489.531    20365484.891
  23185188.693   -12159298.40543  -9459402.98042  23185189.909    23185185.998
  23061771.612    -1304831.23943  -1002349.09042  23061772.854    23061770.580
 04  1 21  2 41  0.0000000  0 11G15G29G26G21G22G 3G 6G 2G18G16G23
  21876182.032   -20008081.00643 -15448065.51342  21876182.851    21876179.994
  23925835.399    -8697651.18843  -6749671.58042  23925837.175    23925833.230
  22251351.654   -17890807.52743 -13819767.58742  22251353.483    22251349.538
  20568653.318   -27514533.48744 -21427395.39642  20568654.346    20568649.283
  21915767.257   -15318551.67843 -11810006.77742  21915767.659    21915762.316
  23992003.212    -6920853.52843  -5349427.62342  23992004.631    23992002.426
  21926088.809   -19679915.00243 -15331588.63642  21926090.284    21926087.119
  24783092.410    -8061262.46743  -6254610.59842  24783093.629    24783092.510
  20363597.757   -24520678.79743 -19093806.37042  20363598.977    20363594.330
  23191167.622   -12127878.36843  -9434919.84142  23191168.842    23191165.003
  23047016.358    -1382370.23043  -1062769.03142  23047017.616    23047015.400
 04  1 21  2 41 30.0000000  0 11G15G29G26G21G22G 3G 6G 2G18G16G23
  21864374.935   -20070127.56543 -15496413.44142  21864375.754    21864372.879
  23939041.441    -8628253.01443  -6695595.04042  23939043.220    23939039.278
  22260539.017   -17842527.51043 -13782146.78042  22260540.839    22260536.897
  20569373.834   -27510747.10144 -21424444.95842  20569374.884    20569369.805
  21902821.550   -15386581.94543 -11863017.34142  21902821.951    21902816.650
  23973691.796    -7017080.12343  -5424409.31042  23973693.233    23973691.115
  21942179.405   -19595358.61343 -15265700.56442  21942180.859    21942177.682
  24780936.886    -8072590.02043  -6263437.25742  24780938.021    24780936.890
  20361789.423   -24530181.63443 -19101211.15342  20361790.624    20361785.977
  23197235.075   -12095993.71143  -9410074.66042  23197236.278    23197232.567
  23032314.654    -1459628.20243  -1122970.00642  23032315.900    23032313.656
 04  1 21  2 42  0.0000000  0 11G15G29G26G21G22G 3G 6G 2G18G16G23
  21852590.154   -20132056.80543 -15544669.95342  21852590.957    21852588.078
  23952324.831    -8558447.96643  -6641201.47342  23952326.647    23952322.660
  22269841.852   -17793640.71243 -13744053.15742  22269843.670    22269839.748
  20570138.633   -27506728.00144 -21421313.18242  20570139.677    20570134.609
  21889941.586   -15454266.31543 -11915758.38142  21889941.983    21889936.636
  23955416.610    -7113116.28343  -5499242.59242  23955418.078    23955415.993
  21958335.429   -19510458.19143 -15199544.39642  21958336.885    21958333.717
  24778861.768    -8083494.60543  -6271934.31942  24778862.951    24778861.844
  20360063.225   -24539252.74543 -19108279.52842  20360064.418    20360059.781
  23203390.720   -12063646.13143  -9384868.76242  23203391.924    23203388.236
  23017666.722    -1536603.67343  -1182950.86142  23017667.932    23017665.653
 04  1 21  2 42 30.0000000  0 11G15G29G26G21G22G 3G 6G 2G18G16G23
  21840828.087   -20193866.66443 -15592833.43842  21840828.882    21840826.002
  23965685.550    -8488236.94143  -6586491.55042  23965687.368    23965683.393
  22279260.064   -17744147.35143 -13705486.87842  22279261.911    22279258.000
  20570948.065   -27502474.38244 -21417998.66442  20570949.111    20570944.052
  21877127.906   -15521602.63443 -11968228.20942  21877128.299    21877122.985
  23937178.462    -7208958.36743  -5573924.66042  23937179.895    23937177.773
  21974556.866   -19425214.01343 -15133120.35742  21974558.346    21974555.135
  24776867.407    -8093975.33143  -6280101.10142  24776868.586    24776867.371
  20358419.270   -24547891.51243 -19115011.00842  20358420.486    20358415.845
  23209634.225   -12030836.15343  -9359302.54142  23209635.460    23209631.742
  23003072.869    -1613294.52643  -1242709.92042  23003074.095    23003071.877
 04  1 21  2 43  0.0000000  0 11G15G29G26G21G22G 3G 6G 2G18G16G23
  21829088.177   -20255560.02943 -15640906.15042  21829088.978    21829086.096
  23979122.406    -8417625.55943  -6531469.67442  23979124.211    23979120.214
  22288792.736   -17694052.90243 -13666452.22242  22288794.577    22288790.653
  20571801.618   -27497988.91144 -21414503.47842  20571802.647    20571797.611
  21864379.870   -15588593.96543 -12020429.22042  21864380.241    21864374.898
  23918976.888    -7304607.78343  -5648456.58942  23918978.339    23918976.223
  21990842.706   -19339631.52343 -15066432.71442  21990844.160    21990840.937
  24774952.967    -8104036.07543  -6287940.64142  24774954.057    24774952.851
  20356856.815   -24556102.15543 -19121408.89342  20356858.043    20356853.396
  23215964.602   -11997569.26243  -9333380.30242  23215965.833    23215962.124
  22988532.631    -1689703.65943  -1302249.46542  22988533.891    22988531.651
 04  1 21  2 43 30.0000000  0 11G15G29G26G21G22G 3G 6G 2G18G16G23
  21817371.076   -20317133.67743 -15688885.57942  21817371.857    21817368.992
  23992635.719    -8346612.82643  -6476135.03942  23992637.473    23992633.465
  22298440.006   -17643356.13043 -13626948.22642  22298441.811    22298437.906
  20572699.843   -27493268.65244 -21410825.34042  20572700.883    20572695.831
  21851698.097   -15655236.83443 -12072358.69642  21851698.475    21851693.195
  23900813.063    -7400059.14743  -5722834.19142  23900814.502    23900812.335
  22007193.087   -19253709.84843 -14999480.80342  22007194.523    22007191.298
  24773118.922    -8113674.37943  -6295450.99242  24773119.943    24773118.744
  20355376.229   -24563882.54643 -19127471.51242  20355377.458    20355372.812
  23222382.203   -11963844.61843  -9307101.35242  23222383.432    23222379.731
  22974046.713    -1765827.30143  -1361566.53742  22974047.955    22974045.791
 04  1 21  2 44  0.0000000  0 11G15G29G26G21G22G 3G 6G 2G18G16G23
  21805676.472   -20378588.99843 -15736772.79942  21805677.240    21805674.391
  24006224.489    -8275203.43243  -6420491.33442  24006226.188    24006222.144
  22308201.129   -17592060.98043 -13586977.95742  22308202.965    22308199.038
  20573642.434   -27488315.19544 -21406965.49042  20573643.480    20573638.430
  21839082.478   -15721532.54943 -12124017.67142  21839082.837    21839077.531
  23882687.004    -7495311.87443  -5797057.01242  23882688.458    23882686.254
  22023607.295   -19167452.67743 -14932267.44742  22023608.741    22023605.522
  24771364.733    -8122892.61943  -6302634.02742  24771365.741    24771364.618
  20353976.916   -24571235.85143 -19133201.33642  20353978.145    20353973.498
  23228886.192   -11929666.29943  -9280468.89842  23228887.405    23228883.775
  22959614.943    -1841666.82943  -1420662.22842  22959616.160    22959613.944
 04  1 21  2 44 30.0000000  0 11G15G29G26G21G22G 3G 6G 2G18G16G23
  21794004.651   -20439924.56843 -15784566.71342  21794005.430    21794002.597
  24019888.532    -8203398.17143  -6364539.15542  24019890.301    24019886.214
  22318076.028   -17540167.98943 -13546541.84442  22318077.896    22318073.914
  20574629.724   -27483126.90344 -21402922.65442  20574630.770    20574625.724
  21826533.128   -15787479.51243 -12175404.88942  21826533.478    21826528.202
  23864599.493    -7590362.42243  -5871122.29342  23864600.907    23864598.657
  22040085.199   -19080860.81243 -14864793.27342  22040086.633    22040083.447
  24769690.719    -8131689.92343  -6309489.05942  24769691.716    24769690.542
  20352658.957   -24578161.72043 -19138598.09842  20352660.182    20352655.525
  23235476.196   -11895035.20743  -9253483.64642  23235477.409    23235473.926
  22945237.538    -1917220.24443  -1479534.98242  22945238.765    22945236.524
 04  1 21  2 45  0.0000000  0 11G15G29G26G21G22G 3G 6G 2G18G16G23
  21782355.740   -20501139.77343 -15832266.83942  21782356.532    21782353.708
  24033627.482    -8131199.42443  -6308280.35842  24033629.199    24033625.149
  22328064.286   -17487679.27143 -13505641.52142  22328066.146    22328062.161
  20575661.794   -27477703.25744 -21398696.42942  20575662.847    20575657.797
  21814050.274   -15853077.26043 -12226519.98642  21814050.639    21814045.389
  23846550.833    -7685208.45843  -5945028.21842  23846552.308    23846549.979
  22056626.391   -18993936.35643 -14797059.94142  22056627.817    22056624.634
  24768096.704    -8140066.91743  -6316016.58542  24768097.625    24768096.478
  20351422.197   -24584660.75043 -19143662.25242  20351423.423    20351418.769
  23242152.016   -11859953.49643  -9226147.25542  23242153.205    23242149.675
  22930914.724    -1992487.09443  -1538184.43742  22930915.943    22930913.697
 04  1 21  2 45 30.0000000  0 11G15G29G26G21G22G 3G 6G 2G18G16G23
  21770729.742   -20562234.77743 -15879873.30942  21770730.501    21770727.683
  24047440.723    -8058610.26143  -6251717.34042  24047442.413    24047438.446
  22338165.429   -17434597.41243 -13464279.01342  22338167.279    22338163.286
  20576738.603   -27472044.56044 -21394287.04342  20576739.642    20576734.588
  21801633.851   -15918325.84743 -12277363.01642  21801634.208    21801628.939
  23828541.361    -7779848.46143  -6018773.59842  23828542.798    23828540.474
  22073230.344   -18906682.00043 -14729069.55742  22073231.767    22073228.588
  24766582.401    -8148024.83243  -6322217.54742  24766583.282    24766582.102
  20350266.238   -24590735.26743 -19148395.61642  20350267.452    20350262.807
  23248913.135   -11824424.21143  -9198462.08642  23248914.303    23248910.574
  22916646.319    -2067467.43343  -1596610.62742  22916647.605    22916645.398
 04  1 21  2 46  0.0000000  0 11G15G29G26G21G22G 3G 6G 2G18G16G23
  21759127.409   -20623205.37643 -15927382.83842  21759128.152    21759125.323
  24061328.407    -7985629.29643  -6194849.01642  24061330.224    24061326.231
  22348379.740   -17380920.78443 -13422453.05442  22348381.573    22348377.588
  20577860.913   -27466146.70844 -21389691.29942  20577861.964    20577856.901
  21789284.604   -15983221.30143 -12327930.86942  21789284.971    21789279.763
  23810572.292    -7874276.21843  -6092353.60442  23810573.740    23810571.385
  22089897.398   -18819096.00143 -14660820.74342  22089898.845    22089895.697
  24765148.477    -8155560.51043  -6328089.49342  24765149.364    24765148.093
  20349191.659   -24596382.15843 -19152795.76742  20349192.858    20349188.217
  23255759.606   -11788445.69043  -9170426.87142  23255760.852    23255757.077
  22902433.330    -2142156.94843  -1654810.21142  22902434.592    22902432.376
 04  1 21  2 46 30.0000000  0 11G15G29G26G21G22G 3G 6G 2G18G16G23
  21747548.144   -20684054.65243 -15974797.82842  21747548.899    21747546.086
  24075289.653    -7912262.47443  -6137680.03242  24075291.407    24075287.464
  22358706.155   -17326654.99643 -13380168.00242  22358708.013    22358703.992
  20579028.160   -27460012.75044 -21384911.57942  20579029.217    20579024.141
  21777002.035   -16047766.76243 -12378226.01442  21777002.398    21776997.103
  23792643.306    -7968493.40343  -6165769.51042  23792644.780    23792642.332
  22106626.502   -18731183.94943 -14592317.87242  22106627.954    22106624.827
  24763794.040    -8162678.26043  -6333635.78442  24763794.907    24763793.607
  20348197.585   -24601605.94543 -19156866.23042  20348198.790    20348194.124
  23262690.366   -11752023.81143  -9142046.21242  23262691.640    23262688.038
  22888275.090    -2216558.68343  -1712785.54142  22888276.343    22888274.147
 04  1 21  2 47  0.0000000  0 11G15G29G26G21G22G 3G 6G 2G18G16G23
  21735991.895   -20744783.02043 -16022118.59842  21735992.664    21735989.825
  24089323.633    -7838513.24943  -6080213.05642  24089325.428    24089321.386
  22369144.178   -17271802.87943 -13337426.06842  22369145.992    22369141.993
  20580240.190   -27453643.45244 -21379948.47742  20580241.257    20580236.170
  21764785.873   -16111962.77843 -12428248.84242  21764786.238    21764781.040
  23774754.634    -8062498.45443  -6239020.12942  23774756.164    23774753.690
  22123417.139   -18642948.61643 -14523563.08742  22123418.587    22123415.473
  24762518.841    -8169379.52443  -6338857.54842  24762519.688    24762518.321
  20347283.556   -24606409.00743 -19160608.85042  20347284.778    20347280.110
  23269705.053   -11715161.78343  -9113322.56442  23269706.279    23269702.655
  22874171.539    -2290673.00043  -1770536.91642  22874172.805    22874170.596
 04  1 21  2 47 30.0000000  0 11G15G29G26G21G22G 3G 6G 2G18G16G23
  21724459.681   -20805385.00343 -16069340.89042  21724460.464    21724457.631
  24103430.834    -7764378.95143  -6022446.02542  24103432.649    24103428.672
  22379694.268   -17216361.78743 -13294225.20642  22379696.076    22379692.042
  20581498.048   -27447033.38544 -21374797.76842  20581499.097    20581493.997
  21752637.314   -16175804.06743 -12477995.27942  21752637.670    21752632.378
  23756907.749    -8156284.09943  -6312099.77542  23756909.295    23756906.828
  22140269.825   -18554387.17543 -14454554.18042  22140271.287    22140268.187
  24761323.624    -8175660.11943  -6343751.51942  24761324.503    24761323.176
  20346450.329   -24610787.47343 -19164020.61642  20346451.567    20346446.899
  23276804.012   -11677856.92443  -9084253.82742  23276805.247    23276801.405
  22860123.715    -2364494.49643  -1828060.12142  22860124.999    22860122.766
 04  1 21  2 48  0.0000000  0 11G15G29G26G21G22G 3G 6G 2G18G16G23
  21712950.685   -20865865.05843 -16116468.16742  21712951.460    21712948.634
  24117609.942    -7689866.84143  -5964384.60642  24117611.745    24117607.758
  22390355.111   -17160338.71743 -13250570.85842  22390356.879    22390352.893
  20582800.812   -27440187.29144 -21369463.14342  20582801.849    20582796.756
  21740555.396   -16239294.97343 -12527468.67742  21740555.756    21740550.492
  23739102.175    -8249852.97343  -6385010.52042  23739103.673    23739101.164
  22157183.223   -18465506.71543 -14385296.69542  22157184.687    22157181.611
  24760207.425    -8181525.56843  -6348321.99742  24760208.310    24760206.986
  20345696.777   -24614747.44243 -19167106.28342  20345698.003    20345693.313
  23283985.699   -11640116.61543  -9054845.79842  23283986.949    23283983.083
  22846130.791    -2438027.56043  -1885358.57342  22846132.078    22846129.873
 04  1 21  2 48 30.0000000  0 11G15G29G26G21G22G 3G 6G 2G18G16G23
  21701465.649   -20926219.16843 -16163497.31642  21701466.411    21701463.577
  24131861.273    -7614975.47643  -5906027.65242  24131862.988    24131859.116
  22401126.955   -17103732.09743 -13206461.78442  22401128.749    22401124.766
  20584149.294   -27433100.85444 -21363941.23542  20584150.358    20584145.254
  21728540.895   -16302431.37343 -12576665.84042  21728541.262    21728535.969
  23721338.994    -8343198.79443  -6457747.44842  23721340.500    23721338.006
  22174157.653   -18376305.47743 -14315789.24942  22174159.131    22174156.040
  24759170.831    -8186972.88943  -6352566.67142  24759171.692    24759170.389
  20345023.393   -24618285.86443 -19169863.46942  20345024.632    20345019.962
  23291250.537   -11601939.33943  -9025097.29242  23291251.754    23291248.061
  22832193.541    -2511267.80843  -1942428.84842  22832194.855    22832192.676
 04  1 21  2 49  0.0000000  0 11G15G29G26G21G22G 3G 6G 2G18G16G23
  21690004.260   -20986448.86043 -16210429.50442  21690005.082    21690002.207
  24146183.885    -7539709.74843  -5847378.99542  24146185.557    24146181.701
  22412009.066   -17046546.15843 -13161901.29342  22412010.825    22412006.888
  20585543.171   -27425775.92744 -21358233.49142  20585544.242    20585539.124
  21716593.487   -16365215.40843 -12625588.42942  21716593.858    21716588.573
  23703618.203    -8436321.86343  -6530310.79342  23703619.690    23703617.227
  22191192.313   -18286787.84843 -14246035.26542  22191193.786    22191190.732
  24758213.228    -8192004.87743  -6356487.70242  24758214.067    24758212.871
  20344429.649   -24621405.92343 -19172294.66142  20344430.883    20344426.218
  23298597.865   -11563329.36943  -8995011.61642  23298599.048    23298595.427
  22818311.792    -2584217.03643  -1999272.36342  22818313.056    22818310.855
 04  1 21  2 49 30.0000000  0 11G15G29G26G21G22G 3G 6G 2G18G16G23
  21678566.860   -21046552.82143 -16257263.72842  21678567.646    21678564.775
  24160577.422    -7464070.93443  -5788439.63542  24160579.007    24160575.249
  22423001.140   -16988782.29943 -13116890.47742  22423002.909    22422998.962
  20586982.749   -27418210.93944 -21352338.68842  20586983.824    20586978.684
  21704713.378   -16427645.53343 -12674235.24842  21704713.752    21704708.439
  23685940.451    -8529218.88643  -6602698.00942  23685941.926    23685939.430
  22208287.000   -18196954.83043 -14176035.52642  22208288.449    22208285.409
  24757334.778    -8196621.09843  -6360084.76642  24757335.623    24757334.393
  20343915.444   -24624107.98443 -19174400.14942  20343916.681    20343912.023
  23306027.193   -11524288.32143  -8964590.01742  23306028.382    23306024.704
  22804485.649    -2656873.77243  -2055887.95842  22804486.897    22804484.683
 04  1 21  2 50  0.0000000  0 11G15G29G26G21G22G 3G 6G 2G18G16G23
  21667153.679   -21106529.48843 -16303998.75642  21667154.452    21667151.544
  24175041.594    -7388060.26443  -5729210.50042  24175043.248    24175039.601
  22434103.104   -16930441.28843 -13071429.93542  22434104.816    22434100.838
  20588468.279   -27410404.43844 -21346255.68942  20588469.328    20588464.197
  21692900.892   -16489720.29643 -12722605.15342  21692901.279    21692896.016
  23668306.415    -8621886.17943  -6674906.20742  23668307.849    23668305.379
  22225441.538   -18106807.32743 -14105790.73842  22225442.974    22225439.915
  24756535.374    -8200821.25743  -6363357.61442  24756536.268    24756535.112
  20343480.854   -24626391.65743 -19176179.61542  20343482.092    20343477.435
  23313538.114   -11484817.42943  -8933833.47642  23313539.371    23313535.713
  22790715.475    -2729236.34643  -2112274.34442  22790716.709    22790714.551
 04  1 21  2 50 30.0000000  0 11G15G29G26G21G22G 3G 6G 2G18G16G23
  21655765.140   -21166376.64743 -16350632.86642  21655765.908    21655762.967
  24189576.434    -7311678.92043  -5669692.53942  24189578.082    24189574.499
  22445314.600   -16871524.12543 -13025520.42842  22445316.365    22445312.373
  20590000.140   -27402354.46544 -21339982.97342  20590001.206    20589996.058
  21681156.383   -16551438.08043 -12770696.90042  21681156.761    21681151.459
  23650716.803    -8714319.97343  -6746932.47142  23650718.231    23650715.782
  22242655.755   -18016346.11143 -14035301.49042  22242657.164    22242654.126
  24755815.308    -8204604.87243  -6366305.88242  24755816.279    24755815.114
  20343125.880   -24628256.99643 -19177633.10442  20343127.120    20343122.458
  23321130.744   -11444917.72143  -8902742.80742  23321131.955    23321128.342
  22777001.643    -2801302.76843  -2168429.95942  22777002.885    22777000.707
 04  1 21  2 51  0.0000000  0 11G15G29G26G21G22G 3G 6G 2G18G16G23
  21644400.121   -21226100.07043 -16397170.55542  21644400.910    21644397.931
  24204180.281    -7234935.42643  -5609892.37742  24204181.890    24204178.258
  22456634.238   -16812039.02043 -12979168.37642  22456635.982    22456631.993
  20591577.211   -27394066.79144 -21333525.03242  20591578.265    20591573.134
  21669478.637   -16612804.62343 -12818514.94142  21669479.041    21669473.789
  23633170.896    -8806523.98743  -6818779.68842  23633172.285    23633169.860
  22259928.127   -17925579.34243 -13964574.14342  22259929.507    22259926.492
  24755173.216    -8207978.73343  -6368934.87842  24755174.216    24755173.032
  20342849.174   -24629710.98143 -19178766.06142  20342850.421    20342845.760
  23328803.486   -11404597.47843  -8871324.44042  23328804.686    23328801.131
  22763343.024    -2873078.91143  -2224359.38642  22763344.292    22763342.156
 04  1 21  2 51 30.0000000  0 11G15G29G26G21G22G 3G 6G 2G18G16G23
  21633060.000   -21285692.57043 -16443606.22642  21633060.795    21633057.817
  24218853.746    -7157825.63443  -5549806.79342  24218855.399    24218851.822
  22468062.749   -16751981.86443 -12932370.56742  22468064.498    22468060.489
  20593200.846   -27385534.52144 -21326876.49942  20593201.889    20593196.760
  21657869.132   -16673812.95943 -12866053.87042  21657869.538    21657864.229
  23615670.390    -8898489.58243  -6890441.12842  23615671.745    23615669.297
  22277259.416   -17834502.72043 -13893605.33642  22277260.810    22277257.794
  24754610.304    -8210937.03443  -6371240.06242  24754611.271    24754610.078
  20342651.711   -24630748.47643 -19179574.48342  20342652.987    20342648.298
  23336556.966   -11363852.77843  -8839575.34042  23336558.180    23336554.639
  22749741.041    -2944557.69043  -2280057.10442  22749742.301    22749740.174
 04  1 21  2 52  0.0000000  0 11G15G29G26G21G22G 3G 6G 2G18G16G23
  21621743.979   -21345158.46543 -16489943.24342  21621744.779    21621741.770
  24233595.587    -7080356.95743  -5489441.55442  24233597.247    24233593.545
  22479598.752   -16691359.65743 -12885132.45442  22479600.499    22479596.468
  20594870.084   -27376762.48244 -21320041.13042  20594871.141    20594865.995
  21646326.892   -16734467.78243 -12913317.32942  21646327.286    21646321.981
  23598214.813    -8990219.13443  -6961918.62942  23598216.181    23598213.629
  22294648.388   -17743123.16843 -13822400.48442  22294649.777    22294646.753
  24754125.426    -8213485.46443  -6373225.85842  24754126.329    24754125.147
  20342532.435   -24631375.31843 -19180062.90642  20342533.686    20342528.996
  23344389.774   -11322690.73643  -8807501.02842  23344390.954    23344387.480
  22736194.748    -3015743.51143  -2335526.53442  22736196.012    22736193.894
 04  1 21  2 52 30.0000000  0 11G15G29G26G21G22G 3G 6G 2G18G16G23
  21610453.262   -21404491.46443 -16536176.71042  21610454.059    21610451.045
  24248406.346    -7002525.98543  -5428794.01242  24248408.007    24248404.223
  22491242.867   -16630169.12243 -12837451.50342  22491244.656    22491240.636
  20596586.255   -27367743.99744 -21313013.73142  20596587.286    20596582.133
  21634853.071   -16794762.99843 -12960300.57642  21634853.464    21634848.127
  23580805.659    -9081704.80843  -7033206.10942  23580807.027    23580804.385
  22312095.647   -17651437.13743 -13750956.84142  22312097.084    22312094.031
  24753719.437    -8215619.22643  -6374888.54542  24753720.358    24753719.013
  20342492.141   -24631587.00143 -19180227.83442  20342493.383    20342488.689
  23352302.740   -11281107.97743  -8775098.88642  23352303.891    23352300.379
  22722705.466    -3086630.25143  -2390762.92542  22722706.689    22722704.565
 04  1 21  2 53  0.0000000  0 11G15G29G26G21G22G 3G 6G 2G18G16G23
  21599187.580   -21463692.87143 -16582307.63342  21599188.360    21599185.338
  24263285.196    -6924337.16643  -5367867.63442  24263286.799    24263282.982
  22502994.392   -16568414.34543 -12789330.86642  22502996.181    22502992.140
  20598348.977   -27358480.69444 -21305795.56042  20598350.037    20598344.885
  21623447.385   -16854700.20243 -13007004.85142  21623447.782    21623442.438
  23563443.020    -9172945.78843  -7104302.90742  23563444.402    23563441.679
  22329600.519   -17559448.38643 -13679277.28942  22329601.975    22329598.902
  24753391.840    -8217340.90843  -6376230.12842  24753392.790    24753391.409
  20342530.291   -24631386.49443 -19180071.57942  20342531.519    20342526.825
  23360294.960   -11239108.98243  -8742372.39342  23360296.119    23360292.575
  22709272.762    -3157219.28543  -2445767.32042  22709273.986    22709271.896
 04  1 21  2 53 30.0000000  0 11G15G29G26G21G22G 3G 6G 2G18G16G23
  21587946.581   -21522764.57243 -16628337.49242  21587947.366    21587944.321
  24278231.191    -6845795.30643  -5306666.14442  24278232.835    24278229.012
  22514852.349   -16506100.11243 -12740774.29942  22514854.165    22514850.094
  20600157.976   -27348974.37844 -21298388.03042  20600158.994    20600153.866
  21612109.400   -16914281.61443 -13053431.89042  21612109.777    21612104.428
  23546126.892    -9263942.30743  -7175209.22842  23546128.285    23546125.578
  22347162.102   -17467161.67143 -13607365.57342  22347163.561    22347160.454
  24753142.115    -8218653.77443  -6377253.14542  24753142.957    24753141.604
  20342646.197   -24630777.38743 -19179596.92742  20342647.431    20342642.698
  23368365.361   -11196698.57043  -8709325.33542  23368366.579    23368363.058
  22695896.342    -3227512.56543  -2500541.27442  22695897.568    22695895.436
 04  1 21  2 54  0.0000000  0 11G15G29G26G21G22G 3G 6G 2G18G16G23
  21576730.555   -21581705.18943 -16674265.20442  21576731.331    21576728.249
  24293244.089    -6766902.07043  -5245190.86842  24293245.714    24293241.852
  22526816.465   -16443227.86643 -12691782.91442  22526818.348    22526814.268
  20602013.506   -27339223.37044 -21290789.82742  20602014.536    20602009.405
  21600839.261   -16973506.16043 -13099580.84442  21600839.680    21600834.360
  23528857.935    -9354691.17543  -7245922.56942  23528859.335    23528856.570
  22364780.112   -17374578.36243 -13535222.73742  22364781.595    22364778.470
  24752970.093    -8219557.67843  -6377957.49342  24752970.927    24752969.577
  20342839.748   -24629760.15843 -19178804.26642  20342840.985    20342836.243
  23376513.644   -11153878.29843  -8675958.90842  23376514.896    23376511.491
  22682576.420    -3297509.01043  -2555083.92042  22682577.663    22682575.526
 04  1 21  2 54 30.0000000  0 11G15G29G26G21G22G 3G 6G 2G18G16G23
  21565539.936   -21640511.97643 -16720088.64142  21565540.747    21565537.646
  24308323.728    -6687657.81843  -5183442.06242  24308325.447    24308321.518
  22538886.762   -16379797.98943 -12642357.00842  22538888.618    22538884.557
  20603915.919   -27329226.01944 -21282999.67142  20603916.958    20603911.811
  21589637.558   -17032371.58243 -13145449.97142  21589637.966    21589632.600
  23511636.887    -9445188.09443  -7316439.58542  23511638.288    23511635.504
  22382454.596   -17281698.44343 -13462848.78842  22382456.055    22382452.927
  24752876.054    -8220051.53743  -6378342.32942  24752876.919    24752875.488
  20343111.141   -24628333.98743 -19177692.95442  20343112.376    20343107.607
  23384740.076   -11110648.72443  -8642273.52642  23384741.283    23384737.773
  22669313.390    -3367206.16743  -2609393.34242  22669314.706    22669312.600
 04  1 21  2 55  0.0000000  0 11G15G29G26G21G22G 3G 6G 2G18G16G23
  21554374.294   -21699187.60543 -16765809.87242  21554375.113    21554371.996
  24323469.043    -6608068.55043  -5121424.43342  24323470.692    24323466.819
  22551062.058   -16315816.14643 -12592501.00542  22551063.913    22551059.890
  20605864.739   -27318984.95844 -21275019.61242  20605865.739    20605860.601
  21578503.591   -17090880.82743 -13191041.55142  21578503.984    21578498.635
  23494463.667    -9535433.97443  -7386760.99342  23494465.032    23494462.248
  22400184.465   -17188527.43443 -13390248.00042  22400185.891    22400182.790
  24752859.182    -8220139.60643  -6378410.96242  24752860.085    24752858.720
  20343459.556   -24626503.03743 -19176266.22642  20343460.777    20343456.002
  23393043.261   -11067015.49143  -8608273.60142  23393044.443    23393040.847
  22656106.908    -3436606.78243  -2663471.72042  22656108.181    22656106.023
 04  1 21  2 55 30.0000000  0 11G15G29G26G21G22G 3G 6G 2G18G16G23
  21543235.110   -21757724.28443 -16811422.82942  21543235.931    21543232.810
  24338680.905    -6528129.40143  -5059134.15042  24338682.637    24338678.737
  22563343.332   -16251277.37143 -12542211.01742  22563345.218    22563341.161
  20607861.382   -27308492.54444 -21266843.69142  20607862.378    20607857.240
  21567438.861   -17149026.31043 -13236349.68442  21567439.254    21567433.869
  23477339.976    -9625419.13243  -7456879.23142  23477341.285    23477338.595
  22417970.684   -17095060.09143 -13317416.30242  22417972.116    22417969.049
  24752921.004    -8219815.21543  -6378158.20542  24752921.902    24752920.400
  20343886.106   -24624261.32943 -19174519.41842  20343887.331    20343882.559
  23401424.029   -11022973.97443  -8573955.53342  23401425.240    23401421.729
  22642958.204    -3505703.24343  -2717313.06942  22642959.510    22642957.412
